[[{"header":{"parameterUnit":"m.s-1","parameterCategory":1,"la1":30.6,"la2":29.2853,"lo1":-89.7004,"lo2":-87.6739,"dy":0.0162,"dx":0.0183,"nx":112,"ny":82,"refTime":"2024-07-02T00:00:00:Z","depth":0,"parameterNumber":2,"parameterNumberName":"U-component_of_WINDS"},"data":[0.0,0.0,0.0,0.0,0.0,0.0,0.0,0.0,0.0,0.0,0.0,0.0,0.0,0.0,0.0,0.0,0.0,0.0,0.0,0.0,0.0,0.0,0.0,0.0,0.0,0.0,0.0,0.0,0.0,0.0,0.0,0.0,0.0,0.0,0.0,0.0,0.0,0.0,0.0,0.0,0.0,0.0,0.0,0.0,0.0,0.0,0.0,0.0,0.0,0.0,0.0,0.0,0.0,0.0,0.0,0.0,0.0,0.0,0.0,0.0,0.0,0.0,0.0,0.0,0.0,0.0,0.0,0.0,0.0,0.0,0.0,0.0,0.0,0.0,0.0,0.0,0.0,0.0,0.0,0.0,0.0,0.0,0.0,0.0,0.0,0.0,0.0,0.0,0.0,0.0,0.0065,0.0074,0.0044,0.0048,0.0048,0.0046,0.0044,0.004,0.0,0.0,0.0,0.0,0.0,0.0,0.0,0.0,0.0,0.0,0.0,0.0,0.0,0.0,0.0,0.0,0.0,0.0,0.0,0.0,0.0,0.0,0.0,0.0,0.0,0.0,0.0,0.0,0.0,0.0,0.0,0.0,0.0,0.0,0.0,0.0,0.0,0.0,0.0,0.0,0.0,0.0,0.0,0.0,0.0,0.0,0.0,0.0,0.0,0.0,0.0,0.0,0.0,0.0,0.0,0.0,0.0,0.0,0.0,0.0,0.0,0.0,0.0,0.0,0.0,0.0,0.0,0.0,0.0,0.0,0.0,0.0,0.0,0.0,0.0,0.0,0.0,0.0,0.0,0.0,0.0,0.0,0.0,0.0,0.0,0.0,0.0,0.0,0.0,0.0,0.0,0.0,0.0,0.0,0.0,0.0,0.0,0.0,0.0,0.0,0.0,0.0,0.0,0.0,0.0341,0.0342,0.0332,0.0346,0.0335,0.0333,0.0315,0.0277,0.0,0.0,0.0,0.0,0.0,0.0,0.0,0.0,0.0,0.0,0.0,0.0,0.0,0.0,0.0,0.0,0.0,0.0,0.0,0.0,0.0,0.0,0.0,0.0,0.0,0.0,0.0,0.0,0.0,0.0,0.0,0.0,0.0,0.0,0.0,0.0,0.0,0.0,0.0,0.0,0.0,0.0,0.0,0.0,0.0,0.0,0.0,0.0,0.0,0.0,0.0,0.0,0.0,0.0,0.0,0.0,0.0,0.0,0.0,0.0,0.0,0.0,0.0,0.0,0.0,0.0,0.0,0.0,0.0,0.0,0.0,0.0,0.0,0.0,0.0,0.0,0.0,0.0,0.0,0.0,0.0,0.0,0.0,0.0,0.0,0.0,0.0,0.0,0.0,0.0,0.0,0.0,0.0,0.0,0.0,0.0,0.0,0.0,0.0,0.0,0.0,0.0,0.0,0.0552,0.0636,0.066,0.0654,0.0666,0.0642,0.0629,0.068,0.0635,0.0509,0.0,0.0,0.0,0.0,0.0,0.0,0.0,0.0,0.0,0.0,0.0,0.0,0.0,0.0,0.0,0.0,0.0,0.0,0.0,0.0,0.0,0.0,0.0,0.0,0.0,0.0,0.0,0.0,0.0,0.0,0.0,0.0,0.0,0.0,0.0,0.0,0.0,0.0,0.0,0.0,0.0,0.0,0.0,0.0,0.0,0.0,0.0,0.0,0.0,0.0,0.0,0.0,0.0,0.0,0.0,0.0,0.0,0.0,0.0,0.0,0.0,0.0,0.0,0.0,0.0,0.0,0.0,0.0,0.0,0.0,0.0,0.0,0.0,0.0,0.0,0.0,0.0,0.0,0.0,0.0,0.0,0.0,0.0,0.0,0.0,0.0,0.0,0.0,0.0,0.0,0.0,0.0,0.0,0.0,0.0,0.0,0.0,0.0,0.0,0.0,0.0,0.0,0.0695,0.0841,0.0847,0.0886,0.0892,0.0809,0.0878,0.0906,0.0912,0.0849,0.0,0.0,0.0,0.0,0.0,0.0,0.0,0.0,0.0,0.0,0.0,0.0,0.0,0.0,0.0,0.0,0.0,0.0,0.0,0.0,0.0,0.0,0.0,0.0,0.0,0.0,0.0,0.0,0.0,0.0,0.0,0.0,0.0,0.0,0.0,0.0,0.0,0.0,0.0,0.0,0.0,0.0,0.0,0.0,0.0,0.0,0.0,0.0,0.0,0.0,0.0,0.0,0.0,0.0,0.0,0.0,0.0,0.0,0.0,0.0,0.0,0.0,0.0,0.0,0.0,0.0,0.0,0.0,0.0,0.0,0.0,0.0,0.0,0.0,0.0,0.0,0.0,0.0,0.0,0.0,0.0,0.0,0.0,0.0,0.0,0.0,0.0,0.0,0.0,0.0,0.0,0.0,0.0,0.0,0.0,0.0,0.0,0.0,0.0,0.0,0.0,0.0,0.081,0.0797,0.0798,0.0886,0.0892,0.0809,0.0876,0.0905,0.0912,0.0883,0.0,0.0,0.0,0.0,0.0,0.0,0.0,0.0,0.0,0.0,0.0,0.0,0.0,0.0,0.0,0.0,0.0,0.0,0.0,0.0,0.0,0.0,0.0,0.0,0.0,0.0,0.0,0.0,0.0,0.0,0.0,0.0,0.0,0.0,0.0,0.0,0.0,0.0,0.0,0.0,0.0,0.0,0.0,0.0,0.0,0.0,0.0,0.0,0.0,0.0,0.0,0.0,0.0,0.0,0.0,0.0,0.0,0.0,0.0,0.0,0.0,0.0,0.0,0.0,0.0,0.0,0.0,0.0,0.0,0.0,0.0,0.0,0.0,0.0,0.0,0.0,0.0,0.0,0.0,0.0,0.0,0.0,0.0,0.0,0.0,0.0,0.0,0.0,0.0,0.0,0.0,0.0,0.0,0.0,0.0,0.0,0.0,0.0,0.0,0.0,0.0,0.0,0.0866,0.0797,0.0748,0.0834,0.0892,0.086,0.081,0.0784,0.0833,0.0,0.0,0.0,0.0,0.0,0.0,0.0,0.0,0.0,0.0,0.0,0.0,0.0,0.0,0.0,0.0,0.0,0.0,0.0,0.0,0.0,0.0,0.0,0.0,0.0,0.0,0.0,0.0,0.0,0.0,0.0,0.0,0.0,0.0,0.0,0.0,0.0,0.0,0.0,0.0,0.0,0.0,0.0,0.0,0.0,0.0,0.0,0.0,0.0,0.0,0.0,0.0,0.0,0.0,0.0,0.0,0.0,0.0,0.0,0.0,0.0,0.0,0.0,0.0,0.0,0.0,0.0,0.0,0.0,0.0,0.0,0.0,0.0,0.0,0.0,0.0,0.0,0.0,0.0,0.0,0.0,0.0,0.0,0.0,0.0,0.0,0.0,0.0,0.0,0.0,0.0,0.0,0.0,0.0,0.0,0.0,0.0,0.0,0.0,0.0,0.0,0.0,0.1072,0.0915,0.0752,0.0598,0.0677,0.0735,0.0759,0.0658,0.0684,0.0716,0.0,0.0,0.0,0.0,0.0,0.0,0.0,0.0,0.0,0.0,0.0,0.0,0.0,0.0,0.0,0.0,0.0,0.0,0.0,0.0,0.0,0.0,0.0,0.0,0.0,0.0,0.0,0.0,0.0,0.0,0.0,0.0,0.0,0.0,0.0,0.0,0.0,0.0,0.0,0.0,0.0,0.0,0.0,0.0,0.0,0.0,0.0,0.0,0.0,0.0,0.0,0.0,0.0,0.0,0.0,0.0,0.0,0.0,0.0,0.0,0.0,0.0,0.0,0.0,0.0,0.0,0.0,0.0,0.0,0.0,0.0,0.0,0.0,0.0,0.0,0.0,0.0,0.0,0.0,0.0,0.0,0.0,0.0,0.0,0.0,0.0,0.0,0.0,0.0,0.0,0.0,0.0,0.0,0.0,0.0,0.0,0.0,0.0,0.0,0.0,0.0,0.0,0.1002,0.0875,0.0708,0.0448,0.0417,0.042,0.0405,0.047,0.052,0.0,0.0,0.0,0.0,0.0,0.0,0.0,0.0,0.0,0.0,0.0,0.0,0.0,0.0,0.0,0.0,0.0,0.0,0.0,0.0,0.0,0.0,0.0,0.0,0.0,0.0,0.0,0.0,0.0,0.0,0.0,0.0,0.0,0.0,0.0,0.0,0.0,0.0,0.0,0.0,0.0,0.0,0.0,0.0,0.0,0.0,0.0,0.0,0.0,0.0,0.0,0.0,0.0,0.0,0.0,0.0,0.0,0.0,0.0,0.0,0.0,0.0,0.0,0.0,0.0,0.0,0.0,0.0,0.0,0.0,0.0,0.0,0.0,0.0,0.0,0.0,0.0,0.0,0.0,0.0,0.0,0.0,0.0,0.0,0.0,0.0,0.0,0.0,0.0,0.0,0.0,0.0,0.0,0.0,0.0,0.0,0.0,0.0,0.0,0.0,0.0,0.0,0.0,0.1052,0.069,0.0354,0.015,0.0104,0.0105,0.0101,0.0141,0.0256,0.0527,0.0,0.0,0.0,0.0,0.0,0.0,0.0,0.0,0.0,0.0,0.0,0.0,0.0,0.0,0.0,0.0,0.0,0.0,0.0,0.0,0.0,0.0,0.0,0.0,0.0,0.0,0.0,0.0,0.0,0.0,0.0,0.0,0.0,0.0,0.0,0.0,0.0,0.0,0.0,0.0,0.0,0.0,0.0,0.0,0.0,0.0,0.0,0.0,0.0,0.0,0.0,0.0,0.0,0.0,0.0,0.0,0.0,0.0,0.0,0.0,0.0,0.0,0.0,0.0,0.0,0.0,0.0,0.0,0.0,0.0,0.0,0.0,0.0,0.0,0.0,0.0,0.0,0.0,0.0,0.0,0.0,0.0,0.0,0.0,0.0,0.0,0.0,0.0,0.0,0.0,0.0,0.0,0.0,0.0,0.0,0.0,0.0,0.0,0.0,0.0,0.0,0.0,0.1,0.0634,0.0276,0.005,-0.0,-0.0,-0.0,-0.0,0.0086,0.0303,0.0,0.0,0.0,0.0,0.0,0.0,0.0,0.0,0.0,0.0,0.0,0.0,0.0,0.0,0.0,0.0,0.0,0.0,0.0,0.0,0.0,0.0,0.0,0.0,0.0,0.0,0.0,0.0,0.0,0.0,0.0,0.0,0.0,0.0,0.0,0.0,0.0,0.0,0.0,0.0,0.0,0.0,0.0,0.0,0.0,0.0,0.0,0.0,0.0,0.0,0.0,0.0,0.0,0.0,0.0,0.0,0.0,0.0,0.0,0.0,0.0,0.0,0.0,0.0,0.0,0.0,0.0,0.0,0.0,0.0,0.0,0.0,0.0,0.0,0.0,0.0,0.0,0.0,0.0,0.0,0.0,0.0,0.0,0.0,0.0,0.0,0.0,0.0,0.0,0.0,0.0,0.0,0.0,0.0,0.0,0.0,0.0,0.0,0.0,0.0,0.0,0.0,0.0776,0.0621,0.0388,0.005,-0.0,-0.0,-0.0,-0.0,-0.0,-0.0,0.0,0.0,0.0,0.0,0.0,0.0,0.0,0.0,0.0,0.0,0.0,0.0,0.0,0.0,0.0,0.0,0.0,0.0,0.0,0.0,0.0,0.0,0.0,0.0,0.0,0.0,0.0,0.0,0.0,0.0,0.0,0.0,0.0,0.0,0.0,0.0,0.0,0.0,0.0,0.0,0.0,0.0,0.0,0.0,0.0,0.0,0.0,0.0,0.0,0.0,0.0,0.0,0.0,0.0,0.0,0.0,0.0,0.0,0.0,0.0,0.1942,0.1986,0.0,0.0,0.0,0.0,0.0,0.0,0.0,0.0,0.0,0.0,0.0,0.0,0.0,0.0,0.0,0.0,0.0,0.0,0.0,0.0,0.0,0.0,0.0,0.0,0.0,0.0,0.0,0.0,0.0,0.0,0.0,0.0,0.0,0.0,0.0,0.0,0.0,0.0,0.0,0.0,0.0609,0.0542,0.0392,0.0052,-0.0,-0.0,-0.0,-0.0,-0.0,-0.0,0.0035,0.0,0.0,0.0,0.0,0.0,0.0,0.0,0.0,0.0,0.0,0.0,0.0,0.0,0.0,0.0,0.0,0.0,0.0,0.0,0.0,0.0,0.0,0.0,0.0,0.0,0.0,0.0,0.0,0.0,0.0,0.0,0.0,0.0,0.0,0.0,0.0,0.0,0.0,0.0,0.0,0.0,0.0,0.0,0.0,0.0,0.0,0.0,0.0,0.0,0.0,0.0,0.0,0.0,0.0,0.0,0.0,0.0,0.0,0.0,0.1954,0.2064,0.0,0.0,0.0,0.0,0.0,0.0,0.0,0.0,0.0,0.0,0.0,0.0,0.0,0.0,0.0,0.0,0.0,0.0,0.0,0.0,0.0,0.0,0.0,0.0,0.0,0.0,0.0,0.0,0.0,0.0,0.0,0.0,0.0,0.0,0.0,0.0,0.0,0.0,0.0,0.0,0.0538,0.037,0.0201,-0.0,-0.0,-0.0,-0.0,-0.0,-0.0,-0.0,-0.0,0.0,0.0,0.0,0.0,0.0,0.0,0.0,0.0,0.0,0.0,0.0,0.0,0.0,0.0,0.0,0.0,0.0,0.0,0.0,0.0,0.0,0.0,0.0,0.0,0.0,0.0,0.0,0.0,0.0,0.0,0.0,0.0,0.0,0.0,0.0,0.0,0.0,0.0,0.0,0.0,0.0,0.0,0.0,0.0,0.0,0.0,0.0,0.0,0.0,0.0,0.0,0.0,0.0,0.1879,0.174,0.1559,0.1565,0.145,0.1402,0.1733,0.1924,0.2001,0.1921,0.0,0.0,0.0,0.0,0.0,0.0,0.0,0.0,0.0,0.0,0.0,0.0,0.0,0.0,0.0,0.0,0.0,0.0,0.0,0.0,0.0,0.0,0.1878,0.1647,0.1733,0.1808,0.1777,0.0,0.0,0.0,0.0,0.0,0.0,0.0,0.0,0.0,0.0,0.0,0.0511,0.0191,-0.0,-0.0,-0.0,-0.0,-0.0,-0.0,-0.0,-0.0,-0.0,-0.0,0.0,0.0,0.0,0.0,0.0,0.0,0.0,0.0,0.0,0.0,0.0,0.0,0.0,0.0,0.0,0.0,0.0,0.0,0.0,0.0,0.0,0.0,0.0,0.0,0.0,0.0,0.0,0.0,0.0,0.0,0.0,0.0,0.064,0.085,0.0,0.0,0.0,0.0,0.0,0.0,0.0,0.0,0.0,0.0,0.0,0.0,0.0,0.1864,0.1768,0.1723,0.181,0.1992,0.1692,0.1542,0.1492,0.1049,0.0815,0.0785,0.085,0.0,0.1588,0.1515,0.0,0.0,0.0,0.0,0.0,0.0,0.0,0.0,0.0,0.0,0.0,0.0,0.0,0.0,0.0,0.0,0.0,0.0,0.0,0.0,0.0,0.0,0.1591,0.166,0.1637,0.1532,0.155,0.1501,0.144,0.1232,0.1201,0.1228,0.0,0.0,0.0,0.0,0.0,0.0,0.051,0.0202,-0.0,-0.0,-0.0,-0.0,-0.0,-0.0,-0.0,-0.0,-0.0,-0.0,-0.0,-0.0,0.0,0.0,0.0,0.0,0.0,0.0,0.0,0.0,0.0,0.0,0.0,0.0,0.0,0.0,0.0,0.0,0.0,0.0,0.0,0.0,0.0,0.0,0.0,0.0,0.0,0.0,0.0,0.0,0.0,0.0604,0.0757,0.0869,0.1123,0.1311,0.0,0.0,0.0,0.0,0.0,0.0,0.0,0.0,0.0,0.1669,0.1666,0.1666,0.1571,0.1283,0.1209,0.1364,0.125,0.1136,0.1136,0.0909,0.0744,0.0696,0.0686,0.0901,0.1158,0.1252,0.1298,0.1353,0.0,0.0,0.0,0.0,0.1249,0.1238,0.112,0.123,0.1351,0.1143,0.0,0.0,0.0,0.0,0.0,0.0,0.0,0.1138,0.1326,0.1404,0.1357,0.1158,0.115,0.118,0.118,0.1016,0.0949,0.1068,0.1065,0.1021,0.1041,0.1047,0.0,0.0,0.0,0.0574,0.0487,0.0206,-0.0,-0.0,-0.0,-0.0,-0.0,-0.0,-0.0,-0.0,-0.0,-0.0,-0.0,-0.0,-0.0,0.0,0.0,0.0,0.0,0.0,0.0,0.0,0.0,0.0,0.0,0.0,0.0,0.0,0.0,0.0,0.0,0.0,0.0,0.0,0.0,0.0,0.0,0.0,0.0,0.0,0.0,0.0,0.0,0.0706,0.0854,0.0997,0.1222,0.1408,0.0,0.0,0.0,0.0,0.0,0.0,0.1691,0.1663,0.1594,0.1445,0.1391,0.1347,0.1323,0.0943,0.0724,0.0679,0.0679,0.0679,0.0679,0.0679,0.0617,0.0494,0.0494,0.0556,0.0674,0.0827,0.088,0.0956,0.1307,0.136,0.1276,0.1192,0.1141,0.1114,0.097,0.1064,0.1218,0.1061,0.0976,0.099,0.1198,0.0,0.0,0.0,0.0,0.0948,0.1086,0.1152,0.1098,0.0805,0.0716,0.0729,0.0842,0.066,0.0477,0.0745,0.0784,0.082,0.0918,0.0944,0.0,0.0496,0.0398,0.038,0.0355,0.0158,-0.0,-0.0,-0.0,-0.0,-0.0,-0.0161,-0.0207,-0.0195,-0.014,-0.0089,-0.0084,-0.0114,-0.007,-0.0,0.0,0.0,0.0,0.0,0.0,0.0,0.0,0.0,0.0,0.0,0.0,0.0,0.0,0.0,0.0,0.0,0.0,0.0,0.0,0.0,0.0,0.0,0.0,0.0,0.0,0.0,0.0,0.0,0.0,0.1268,0.1457,0.0,0.0,0.0,0.0,0.1598,0.1661,0.1607,0.1326,0.1422,0.128,0.0779,0.089,0.0921,0.0922,0.0923,0.0617,0.0062,0.0062,0.0062,0.0062,0.0062,0.0062,0.0062,0.0062,0.0062,0.0062,0.0059,0.0234,0.0465,0.045,0.0554,0.0719,0.0718,0.0734,0.0757,0.0699,0.0595,0.0424,0.0455,0.0417,0.0477,0.0664,0.0644,0.0,0.0,0.0519,0.0549,0.0552,0.0743,0.0894,0.0895,0.0448,0.0224,0.0785,0.0616,0.0332,0.0107,0.025,0.0427,0.0426,0.0,0.0543,0.0518,0.0245,-0.0,-0.0,-0.0,-0.0,-0.0,-0.0,-0.0,-0.0,-0.0543,-0.0786,-0.0655,-0.0486,-0.0368,-0.038,-0.0377,-0.0274,-0.0,-0.0,0.0,0.0,0.0,0.0,0.0,0.0,0.0,0.0,0.0,0.0,0.0,0.0,0.0,0.0,0.0,0.0,0.0,0.0,0.0,0.0,0.0,0.0,0.0,0.0,0.0,0.0,0.0,0.0,0.1085,0.1307,0.0,0.1548,0.155,0.1567,0.1556,0.1248,0.1018,0.0932,0.1044,0.1015,0.0836,0.0498,0.0318,0.0318,0.0324,0.0196,-0.0,-0.0,-0.0,-0.0,-0.0,-0.0,-0.0,-0.0,-0.0,-0.0,-0.0,0.0063,0.0121,0.012,0.0179,0.0239,0.0239,0.0241,0.0243,0.0243,0.0184,0.0123,0.012,0.0117,0.017,0.0221,0.0218,0.0162,0.0162,0.0165,0.0168,0.0172,0.0231,0.0347,0.0347,0.0171,0.0056,0.028,0.0224,0.0112,-0.0,0.0053,0.0154,0.0154,0.0149,0.0196,0.0153,0.0052,-0.0159,-0.0548,-0.0556,-0.0505,-0.028,-0.028,-0.0336,-0.0561,-0.0777,-0.0914,-0.1012,-0.1047,-0.1005,-0.0839,-0.0684,-0.0568,-0.0448,-0.0171,-0.0094,0.0,0.0,0.0,0.0,0.0,0.0,0.0,0.0,0.0,0.0,0.0,0.0,0.0,0.0,0.0,0.0,0.0,0.0,0.0,0.0,0.0,0.0,0.0,0.0,0.0,0.0503,0.0654,0.0886,0.1126,0.1315,0.1438,0.1348,0.1315,0.1289,0.0974,0.0702,0.0479,0.0555,0.0627,0.0627,0.0195,-0.0,-0.0,-0.0,-0.0,-0.0,-0.0,-0.0,-0.0,-0.0,-0.0,-0.0,-0.0,-0.0,-0.0,-0.0,-0.0,-0.0,-0.0,-0.0,-0.0,-0.0,-0.0,-0.0,-0.0,-0.0,-0.0,-0.0,-0.0,-0.0,-0.0,-0.0,-0.0,-0.0,-0.0,-0.0,-0.0,-0.0,-0.0,-0.0,-0.0,-0.0,-0.0,-0.0,-0.0056,-0.028,-0.0165,-0.0054,-0.0271,-0.0319,-0.0317,-0.0324,-0.0325,-0.0437,-0.0839,-0.0954,-0.101,-0.0898,-0.0898,-0.0954,-0.1178,-0.1276,-0.1344,-0.152,-0.1546,-0.1443,-0.1262,-0.1092,-0.0921,-0.0747,-0.0349,-0.0349,-0.0716,0.0,0.0,0.0,0.0,0.0,0.0,0.0,0.0,0.0,0.0,0.0,0.0,0.0,0.0,0.0,0.0,0.0,0.0,0.0,0.0,0.0,0.0,0.0,0.021,0.0227,0.0393,0.0741,0.0991,0.1196,0.1295,0.1031,0.0865,0.0866,0.0866,0.0619,0.0062,-0.0,-0.0,-0.0,-0.0,-0.0,-0.0,-0.0,-0.0,-0.0,-0.0,-0.0,-0.0,-0.0,-0.0,-0.0,-0.0,-0.0,-0.0,-0.0,-0.0,-0.0,-0.0,-0.0,-0.0,-0.0,-0.0,-0.0,-0.0,-0.0,-0.0,-0.0,-0.0,-0.0,-0.0,-0.0,-0.0,-0.0,-0.0,-0.0,-0.0,-0.0,-0.0,-0.0,-0.0,-0.0,-0.0057,-0.0056,-0.0225,-0.0787,-0.0449,-0.0224,-0.0785,-0.0898,-0.0954,-0.0954,-0.0954,0.0,-0.0954,-0.1178,-0.1459,-0.1797,-0.1797,-0.1797,-0.1853,-0.2011,-0.2099,-0.2127,-0.1951,-0.1781,-0.1615,-0.1614,-0.1379,-0.0828,-0.0643,-0.0724,-0.1134,0.0,0.0,0.0,0.0,0.0,0.0,0.0,0.0,0.0,0.0,0.0,0.0,0.0,0.0,0.0,0.0,0.0,0.0,0.0,0.0,0.0,0.0042,0.0046,0.0046,0.0049,0.0106,0.0228,0.0463,0.0707,0.0973,0.0922,0.0748,0.0255,0.0255,0.0193,-0.0,-0.0,-0.0,-0.0,-0.0,-0.0,-0.0,-0.0,-0.0,-0.0,-0.0,-0.0,-0.0,-0.0,-0.0,-0.0,-0.0,-0.0,-0.0,-0.0,-0.0,-0.0,-0.0,-0.0,-0.0,-0.0,-0.0,-0.0,-0.0,-0.0,-0.0,-0.0,-0.0,-0.0,-0.0,-0.0,-0.0,-0.0,-0.0,-0.0,-0.0,-0.0,-0.0,-0.0,-0.0,-0.0122,-0.0664,-0.0709,-0.0697,-0.0872,-0.1141,-0.1234,-0.0954,-0.129,-0.1572,-0.1572,-0.1741,-0.1852,-0.1961,-0.2073,-0.2074,-0.2074,-0.2074,-0.2184,-0.2406,-0.2494,-0.2578,-0.2627,-0.2641,-0.2501,-0.2109,-0.2103,-0.1788,-0.1155,-0.1381,-0.1575,0.0,0.0,0.0,0.0,0.0,0.0,0.0,0.0,0.0,0.0,0.0,0.0,0.0,0.0,0.0,0.0,0.0,0.0,0.0,0.0,0.0,0.0,-0.0,-0.0,-0.0,-0.0,-0.0,-0.0,0.0122,0.0309,0.0503,0.0509,0.0389,-0.0,-0.0,-0.0,-0.0,-0.0,-0.0,-0.0,-0.0,-0.0,-0.0,-0.0,-0.0,-0.0,-0.0,-0.0,-0.0,-0.0,-0.0,-0.0,-0.0,-0.0,-0.0,-0.0,-0.0,-0.0,0.0,0.0,0.0,0.0,-0.0,-0.0,-0.0,-0.0,-0.0,-0.0,-0.0,-0.0,-0.0,-0.0,-0.0,-0.0,-0.0,-0.0,-0.0,-0.0,-0.0066,-0.0389,-0.0446,-0.0564,-0.0991,-0.1278,-0.1435,-0.1417,-0.1799,0.0,-0.1684,-0.1849,-0.2076,-0.2184,-0.2298,-0.2465,-0.2687,-0.2687,-0.2687,-0.2687,-0.2687,-0.2798,-0.3074,-0.309,0.0,0.0,0.0,-0.3008,-0.2595,-0.2502,0.0,0.0,0.0,0.0,0.0,-0.2075,0.0,0.0,-0.1089,-0.0743,0.0,0.0,0.0,0.0,0.0,0.0,0.0,0.0,0.0,0.0,0.0,0.0,0.0,0.0,0.0,0.0,-0.0,-0.0,-0.0,-0.0,-0.0,-0.0,-0.0,-0.0,-0.0,-0.0,-0.0,-0.0,-0.0,-0.0,-0.0,-0.0,0.0,0.0,0.0,-0.0,-0.0,-0.0,-0.0,-0.0,-0.0,-0.0,-0.0,-0.0,-0.0,-0.0,-0.0,-0.0,-0.0,-0.0,-0.0,-0.0,-0.0,-0.0,-0.0,-0.0,-0.0,-0.0,-0.0,0.0,0.0,-0.0,-0.0,-0.0,-0.0,-0.0,-0.0,-0.0,-0.0,-0.0,-0.0135,-0.0135,-0.0268,-0.0914,-0.1169,-0.1225,-0.1255,-0.1803,-0.2274,-0.2271,-0.2482,-0.2681,-0.2824,-0.2635,-0.2519,-0.2738,-0.2792,-0.2905,-0.313,-0.3186,-0.3244,-0.3469,-0.3469,0.0,-0.3638,-0.365,-0.3685,-0.367,-0.3538,-0.3339,-0.308,-0.284,-0.27,-0.27,-0.2514,-0.2502,-0.2625,-0.2625,-0.268,-0.2785,-0.1863,-0.1268,0.0,0.0,0.0,0.0,0.0,0.0,0.0,0.0,0.0,0.0,0.0,0.0,0.0,0.0,0.0,-0.0,-0.0,-0.0,-0.0,-0.0,-0.0,-0.0,-0.0,-0.0,-0.0,-0.0,-0.0,-0.0,-0.0,-0.0,-0.0,-0.0,-0.0,-0.0,-0.0,-0.0,-0.0,-0.0,-0.0,-0.0,-0.0,0.0,-0.0,-0.0,-0.0,-0.0,-0.0,-0.0,-0.0,-0.0,-0.0,-0.0,-0.0,-0.0,-0.0,-0.0,-0.0,-0.0,-0.0,-0.0,-0.0,-0.0,-0.0,-0.0,-0.0,-0.0,0.0,-0.0,-0.0,-0.0135,-0.0742,-0.0877,-0.0942,-0.1069,-0.1535,-0.2,-0.2189,-0.2471,-0.2746,-0.2916,-0.298,-0.3105,-0.3548,-0.3128,-0.2907,-0.3244,-0.3357,-0.3469,-0.363,-0.3685,-0.3741,-0.3855,-0.3858,-0.3913,-0.4082,-0.4058,-0.4104,-0.4098,-0.3872,-0.3713,-0.3636,-0.342,-0.3314,-0.3314,-0.3288,-0.3274,-0.3322,-0.342,-0.3483,-0.3501,-0.2531,-0.2148,0.0,0.0,0.0,0.0,0.0,0.0,0.0,0.0,0.0,0.0,0.0,-0.0,-0.0,0.0,-0.0,-0.0,-0.0,-0.0,-0.0,-0.0,-0.0,-0.0,-0.0,-0.0,-0.0,-0.0,-0.0,-0.0,-0.0,-0.0,-0.0,-0.0,-0.0,-0.0,-0.0,-0.0,-0.0,-0.0,-0.0,-0.0,-0.0,-0.0,-0.0,-0.0,-0.0,-0.0,-0.0,-0.0,-0.0,-0.0,-0.0,-0.0,-0.0,-0.0,-0.0,-0.0,-0.0,-0.0,-0.0,-0.0303,-0.0681,-0.0681,-0.0681,-0.068,-0.0671,-0.0663,-0.0653,-0.0565,-0.0556,-0.0617,-0.1014,-0.1347,-0.1683,-0.1749,-0.2151,-0.2622,-0.2825,-0.2992,-0.3209,-0.3549,-0.3703,-0.3832,-0.4127,-0.3875,-0.3699,-0.3811,-0.386,-0.3971,-0.4132,-0.4128,-0.4184,-0.4242,-0.4242,-0.4298,-0.4356,-0.4356,-0.4293,-0.4204,-0.4072,-0.3996,-0.392,-0.382,-0.3773,-0.3773,-0.3773,-0.3773,-0.3773,-0.3823,-0.3862,-0.3926,-0.3417,-0.3072,0.0,0.0,0.0,0.0,0.0,0.0,0.0,0.0,-0.0,-0.0,-0.0,-0.0,-0.0,-0.0,-0.0,-0.0,-0.0,-0.0,-0.0,-0.0,-0.0,-0.0,-0.0,-0.0,-0.0,-0.0,-0.0,-0.0,-0.0,-0.0,-0.0,-0.0,-0.0,-0.0,-0.0,-0.0,-0.0,-0.0,-0.0,-0.0,-0.0,-0.0,-0.0,-0.0,-0.0,-0.0,-0.0,-0.0,-0.0,-0.0,-0.0,-0.0,-0.0157,-0.0314,-0.0471,-0.0314,-0.0157,-0.0079,-0.0079,-0.0628,-0.1335,-0.1493,-0.1571,-0.1565,-0.1612,-0.1672,-0.1652,-0.1512,-0.1483,-0.1395,-0.1431,-0.1891,-0.2356,-0.2557,-0.2824,-0.309,-0.3357,-0.3556,-0.3796,-0.4232,-0.4385,-0.4546,-0.4539,-0.4529,-0.4464,-0.4268,-0.4249,-0.4301,-0.4463,-0.4519,-0.4519,-0.4519,-0.4519,-0.4519,-0.4519,-0.4519,-0.4412,-0.4244,-0.4237,-0.4236,-0.4111,-0.4107,-0.4107,-0.4107,-0.4107,-0.4107,-0.4107,-0.4107,-0.4168,-0.4237,-0.4128,-0.3853,-0.0591,-0.0264,-0.0,-0.0,-0.0,-0.0,0.0,0.0,-0.0,-0.0,-0.0,-0.0,-0.0,-0.0,-0.0,-0.0,-0.0,-0.0,-0.0,-0.0,-0.0,-0.0,-0.0,-0.0,-0.0,-0.0,-0.0,-0.0,-0.0,-0.0,-0.0,-0.0,-0.0,-0.0,-0.0,-0.0,-0.0,-0.0,-0.0,-0.0,-0.0,-0.0,-0.0,-0.0,-0.0,-0.0,-0.0,-0.0,-0.0,-0.0,-0.0,-0.0079,-0.0864,-0.1572,-0.2123,-0.1415,-0.0864,-0.055,-0.055,-0.0864,-0.1415,-0.2123,-0.2357,-0.2431,-0.2818,-0.2927,-0.2872,-0.2856,-0.269,-0.2594,-0.2722,-0.2805,-0.2889,-0.3092,-0.3291,-0.3553,-0.4087,-0.4356,-0.4553,-0.4935,-0.4903,-0.4835,-0.486,-0.4779,-0.464,-0.4487,-0.4463,-0.4463,-0.4519,-0.4519,-0.4519,-0.4519,-0.4519,-0.4519,-0.4519,-0.4519,-0.4512,-0.4494,-0.444,-0.4484,-0.4467,-0.4467,-0.4467,-0.4467,-0.4467,-0.4467,-0.4467,-0.4467,-0.4477,-0.444,-0.444,-0.4323,-0.0848,-0.0449,-0.0189,0.0,-0.0,-0.0,-0.0,-0.0,-0.0,-0.0,-0.0,-0.0,-0.0,-0.0,-0.0,0.0,-0.0,-0.0,-0.0,-0.0,-0.0,-0.0,-0.0,-0.0,-0.0,-0.0,-0.0,-0.0,-0.0,-0.0,-0.0,-0.0,-0.0,-0.0,-0.0,-0.0,-0.0,-0.0,-0.0,-0.0,-0.0,-0.0,-0.0,-0.0,-0.0,-0.0,-0.0,-0.0,-0.0,-0.0,-0.0314,-0.0864,-0.165,-0.2123,-0.2202,-0.1808,-0.1649,-0.1726,-0.1726,-0.2041,-0.2514,-0.2829,-0.3062,-0.3294,-0.3452,-0.3659,-0.3846,-0.3793,-0.3681,-0.3495,-0.3583,-0.3566,-0.3558,-0.3823,-0.4023,-0.4223,-0.4688,-0.4821,-0.4957,-0.5226,-0.5245,-0.5155,-0.5004,-0.4921,-0.4772,-0.4619,-0.4573,-0.4519,-0.4519,-0.4519,-0.4519,-0.4519,-0.4519,-0.4519,-0.4519,-0.4519,-0.4519,-0.4519,-0.4519,-0.4519,-0.4519,-0.4519,-0.4519,-0.4519,-0.4519,-0.4519,-0.4519,-0.4519,-0.4519,-0.4519,-0.4519,-0.4463,-0.1259,0.0,0.0,-0.0156,-0.0053,-0.0,-0.0,-0.0,-0.0,-0.0,-0.0,-0.0,-0.0,-0.0,-0.0,-0.0,-0.0,-0.0,-0.0,-0.0,-0.0,-0.0,-0.0,-0.0,-0.0,-0.0,-0.0,-0.0,-0.0,-0.0,-0.0,-0.0,-0.0,-0.0,-0.0,-0.0,-0.0,-0.0,-0.0,-0.0,-0.0,-0.0,-0.0,-0.0,-0.0,-0.0,-0.0236,-0.0393,-0.0393,-0.0393,-0.0707,-0.1415,-0.2201,-0.2437,-0.2437,-0.2357,-0.2434,-0.2589,-0.2666,-0.2981,-0.3454,-0.353,-0.3765,-0.4075,-0.4151,-0.4307,-0.4523,-0.4518,-0.4392,-0.4267,-0.4262,-0.4206,-0.4228,-0.4489,-0.4622,-0.4824,-0.509,-0.5156,-0.5223,-0.5362,-0.5428,-0.5311,-0.5159,-0.5047,-0.4911,-0.4718,-0.4596,-0.4567,-0.4522,-0.4519,-0.4519,-0.4519,-0.4519,-0.4519,-0.4519,-0.4519,-0.4519,-0.4519,-0.4519,-0.4519,-0.4519,-0.4519,-0.4519,-0.4519,-0.4519,-0.4519,-0.4519,-0.4519,-0.4519,-0.4519,-0.4519,-0.4519,0.0,0.0,-0.0697,-0.0443,-0.0172,-0.0,-0.0,-0.0,-0.0,-0.0,-0.0,-0.0,-0.0,-0.0,-0.0,-0.0,-0.0,-0.0,-0.0,-0.0,-0.0,-0.0,-0.0,-0.0,-0.0,-0.0,-0.0,-0.0,-0.0,-0.0,-0.0,-0.0,-0.0,-0.0,-0.0,-0.0,-0.0,-0.0,-0.0,-0.0,-0.0,-0.0,-0.0,-0.0,-0.0,-0.0079,-0.0864,-0.1257,-0.1257,-0.1257,-0.1257,-0.1414,-0.2198,-0.2826,-0.3299,-0.337,-0.3136,-0.2824,-0.2978,-0.3368,-0.3841,-0.3992,-0.4382,-0.4698,-0.4927,-0.5002,-0.5002,-0.4999,-0.483,-0.4723,-0.4867,-0.4752,-0.4691,-0.502,-0.5087,-0.5156,-0.5359,-0.5362,-0.5362,-0.5428,-0.5428,-0.5311,-0.5159,-0.5128,-0.5026,-0.4735,-0.4687,-0.4629,-0.4536,-0.4519,-0.4519,-0.4519,-0.4519,-0.4519,-0.4519,-0.4519,-0.4519,-0.4519,-0.4519,-0.4519,-0.4519,-0.4519,-0.4519,-0.4519,-0.4519,-0.4519,-0.4519,-0.4519,-0.4519,-0.4519,-0.4519,-0.4519,-0.2605,0.0,-0.1427,-0.1096,-0.1009,-0.0856,-0.0437,-0.0318,-0.0258,-0.0065,-0.0,-0.0,-0.0,-0.0,-0.0,-0.0,-0.0,-0.0,-0.0,-0.0,-0.0,-0.0,-0.0,-0.0,-0.0,-0.0,-0.0,-0.0,-0.0,-0.0,-0.0,-0.0,-0.0,-0.0,-0.0,-0.0,-0.0,-0.0,-0.0,-0.0,-0.0,-0.0,-0.0,-0.0,-0.0319,-0.0943,-0.1729,-0.2123,-0.2123,-0.212,-0.2276,-0.2671,-0.3142,-0.3532,-0.3839,-0.4151,-0.4307,-0.4462,-0.4229,-0.4462,-0.4774,-0.4851,-0.5162,-0.5473,-0.555,-0.5709,-0.5867,-0.5867,-0.566,-0.5444,-0.5516,-0.5306,-0.516,-0.5292,-0.5292,-0.5292,-0.5362,-0.5428,-0.5428,-0.5428,-0.5428,-0.5411,-0.5291,-0.5199,-0.503,-0.4735,-0.4606,-0.4577,-0.4525,-0.4519,-0.4519,-0.4519,-0.4519,-0.4519,-0.4519,-0.4519,-0.4519,-0.4519,-0.4519,-0.4519,-0.4519,-0.4519,-0.4519,-0.4519,-0.4519,-0.4519,-0.4519,-0.4519,-0.4519,-0.4519,-0.4519,-0.4519,-0.3215,-0.2741,-0.2211,-0.1911,-0.1776,-0.1577,-0.1157,-0.0968,-0.071,-0.0452,-0.0256,-0.0126,-0.0,-0.0,-0.0,-0.0,-0.0,-0.0,-0.0,-0.0,-0.0,-0.0,-0.0,-0.0,-0.0,-0.0,-0.0,-0.0,-0.0,-0.0,-0.0,-0.0,-0.0,-0.0,-0.0,-0.0,-0.0,-0.0,-0.0171,-0.0517,-0.0513,-0.0423,-0.025,-0.0246,-0.0646,-0.1352,-0.2052,-0.2438,-0.2672,-0.2746,-0.3059,-0.3532,-0.3925,-0.4233,-0.4457,-0.4854,-0.5243,-0.5476,-0.5168,-0.5243,-0.555,-0.555,-0.5786,-0.6022,-0.6022,-0.618,-0.6338,-0.6338,-0.6078,-0.5871,-0.5817,-0.5623,-0.543,-0.5439,-0.5428,-0.5428,-0.5428,-0.5428,-0.5428,-0.5428,-0.5428,-0.5428,-0.5428,-0.5233,-0.5064,-0.4877,-0.4674,-0.458,-0.4525,-0.4519,-0.4519,-0.4519,-0.4519,-0.4519,-0.4519,-0.4519,-0.4519,-0.4519,-0.4519,-0.4519,-0.4519,-0.4519,-0.4519,-0.4519,-0.4519,-0.4519,-0.4519,-0.4519,-0.4519,-0.4519,-0.4519,-0.4519,-0.3619,-0.3315,-0.3022,-0.2897,-0.2524,-0.2196,-0.2127,-0.1804,-0.1416,-0.109,-0.069,-0.0369,-0.0123,0.0,-0.0,-0.0,-0.0,-0.0,-0.0,-0.0,-0.0,0.0,0.0,0.0,0.0,0.0,-0.0,-0.0,-0.0,-0.0,-0.0,-0.0,-0.0,-0.0,-0.0,-0.0,-0.0,-0.0087,-0.0528,-0.1435,-0.1408,-0.122,-0.0782,-0.075,-0.0979,-0.1463,-0.1988,-0.2516,-0.2981,-0.3292,-0.3604,-0.3919,-0.4543,-0.4851,-0.5082,-0.5479,-0.5712,-0.5864,-0.5712,-0.5789,-0.5941,-0.5941,-0.6099,-0.6338,-0.6338,-0.6338,-0.6338,-0.6338,-0.6149,-0.5996,-0.585,-0.5708,-0.5562,-0.541,-0.5439,-0.5435,-0.5428,-0.5428,-0.5428,-0.5428,-0.5428,-0.5428,-0.5428,-0.524,-0.5138,-0.5131,-0.4887,-0.4646,-0.4549,-0.4522,-0.4519,-0.4519,-0.4519,-0.4519,-0.4519,-0.4519,-0.4519,-0.4519,-0.4519,-0.4519,-0.4519,-0.4519,-0.4519,-0.4519,-0.4519,-0.4519,-0.4519,-0.4519,-0.4519,-0.4519,-0.4519,-0.4519,-0.4276,-0.4038,-0.3816,-0.3624,-0.351,-0.3236,-0.2847,-0.2704,-0.2351,-0.158,-0.1136,-0.0827,-0.0693,-0.0293,0.0,-0.0,-0.0,0.0,-0.0,-0.0,0.0,-0.0,0.0,-0.0,-0.0,-0.0,-0.0,-0.0,-0.0,-0.0,-0.0,-0.0,-0.0,-0.0,-0.0,-0.0,-0.0,-0.0707,-0.1518,-0.2513,-0.2142,-0.212,-0.2348,-0.2321,-0.2519,-0.2924,-0.3311,-0.3586,-0.3837,-0.407,-0.4462,-0.4932,-0.5087,-0.5395,-0.5705,-0.5786,-0.5944,-0.618,-0.6106,-0.618,-0.618,-0.618,-0.6261,-0.6338,-0.6338,-0.6338,-0.6338,-0.6338,-0.6149,-0.602,-0.5983,-0.5861,-0.5711,-0.5566,-0.5532,-0.5501,-0.5452,-0.5428,-0.5428,-0.5428,-0.5428,-0.5428,-0.5428,-0.5328,-0.5264,-0.5148,-0.4975,-0.4806,-0.4653,-0.4587,-0.4519,-0.4519,-0.4519,-0.4519,-0.4519,-0.4519,-0.4519,-0.4519,-0.4519,-0.4519,-0.4519,-0.4519,-0.4519,-0.4519,-0.4519,-0.4519,-0.4519,-0.4519,-0.4519,-0.4519,-0.4519,-0.4519,-0.4661,-0.4547,-0.4392,-0.4324,-0.4137,-0.3934,-0.3613,-0.3306,-0.2883,-0.2201,-0.163,0.0,-0.0933,-0.0501,0.0,0.0,0.0,0.0,-0.0,-0.0,-0.0,0.0,-0.0,0.0,-0.0,-0.0,-0.0,-0.0,-0.0,-0.0,-0.0,-0.0,-0.0,-0.0,-0.0,-0.0175,-0.0617,-0.1606,-0.2244,-0.2694,-0.2691,-0.2764,-0.2996,-0.3143,-0.3325,-0.3704,-0.3993,-0.4241,-0.4535,-0.4774,-0.5165,-0.5553,-0.5712,-0.5867,-0.6099,-0.6099,-0.618,-0.6338,-0.6338,-0.6338,-0.6338,-0.6338,-0.6338,-0.6338,-0.6338,-0.6338,-0.6338,-0.6338,-0.62,-0.6115,-0.6047,-0.5966,-0.5847,-0.564,-0.5589,-0.5549,-0.5463,-0.5428,-0.5428,-0.5428,-0.5428,-0.5428,-0.5428,-0.5428,-0.5332,-0.5243,-0.5104,-0.4958,-0.4809,-0.4599,-0.4519,-0.4519,-0.4519,-0.4519,-0.4519,-0.4519,-0.4519,-0.4519,-0.4519,-0.4519,-0.4519,-0.4519,-0.4519,-0.4519,-0.4519,-0.4519,-0.4519,-0.4519,-0.4519,-0.4519,-0.4519,-0.4519,-0.4845,-0.4922,-0.4891,-0.4872,-0.4643,-0.4414,-0.4299,-0.3738,-0.3118,-0.2745,0.0,-0.1476,-0.1045,-0.0635,-0.033,-0.006,0.0,-0.0,-0.0,-0.0,-0.0,-0.0,-0.0,-0.0,-0.0,-0.0,-0.0,-0.0,-0.0,-0.0,-0.0,-0.0085,-0.0171,-0.0175,-0.0175,-0.0617,-0.1435,-0.2424,-0.2784,-0.2603,-0.3138,-0.3405,-0.3403,-0.3692,-0.3955,-0.427,-0.4435,-0.4731,-0.516,-0.5479,-0.5789,-0.5941,-0.618,-0.6338,-0.6338,-0.6338,-0.6338,-0.6338,-0.6338,-0.6338,-0.6338,-0.6338,-0.6338,-0.6338,-0.6338,-0.6338,-0.6338,-0.6338,-0.6338,-0.623,-0.6095,-0.6061,-0.5986,-0.5688,-0.5616,-0.5569,-0.5466,-0.5428,-0.5428,-0.5428,-0.5428,-0.5428,-0.5428,-0.5428,-0.5428,-0.5428,-0.523,-0.5081,-0.4938,-0.467,-0.4539,-0.4519,-0.4519,-0.4519,-0.4519,-0.4519,-0.4519,-0.4519,-0.4519,-0.4519,-0.4519,-0.4519,-0.4519,-0.4519,-0.4519,-0.4519,-0.4519,-0.4519,-0.4519,-0.4519,-0.4519,-0.4519,-0.5031,-0.5178,-0.5266,-0.5074,-0.5021,-0.4846,-0.4262,-0.3961,0.0,0.0,-0.2041,-0.1654,-0.1319,-0.0767,-0.0324,-0.0057,0.0,0.0,0.0,0.0,-0.0,0.0,0.0,-0.0,-0.0,-0.0,-0.0,-0.0,-0.0,-0.0,-0.0,-0.0711,-0.1157,-0.116,-0.116,-0.1251,-0.1436,-0.2424,-0.3142,-0.3588,-0.3762,-0.4117,-0.4652,-0.4994,-0.5226,-0.5444,-0.5421,-0.5531,-0.5783,-0.5786,-0.6022,-0.6257,-0.6261,-0.6338,-0.6338,-0.6338,-0.6338,-0.6338,-0.6338,-0.6338,-0.6338,-0.6338,-0.6338,-0.6338,-0.6338,-0.6338,-0.6338,-0.6338,-0.6338,-0.6254,-0.6227,-0.622,-0.6146,-0.5837,-0.5766,-0.5691,-0.542,-0.5428,-0.5428,-0.5428,-0.5428,-0.5428,-0.5428,-0.5428,-0.5428,-0.5428,-0.523,-0.5081,-0.4938,-0.4762,-0.4602,-0.4532,-0.4519,-0.4519,-0.4519,-0.4519,-0.4519,-0.4519,-0.4519,-0.4519,-0.4519,-0.4519,-0.4519,-0.4519,-0.4519,-0.4519,-0.4519,-0.4519,-0.4519,-0.4519,-0.4519,-0.4519,-0.507,-0.5131,-0.5131,-0.5131,-0.5013,-0.4766,-0.4313,0.0,0.0,0.0,-0.2037,-0.1617,-0.1378,0.0,0.0,0.0,0.0,0.0,0.0,0.0,0.0,0.0,0.0,-0.0,0.0,-0.0,-0.0,-0.0,-0.045,-0.0539,-0.0,-0.0898,-0.1616,-0.2154,-0.2154,-0.2242,-0.242,-0.323,-0.3857,-0.4297,-0.4565,-0.501,-0.5544,-0.575,-0.5881,-0.6028,-0.5958,-0.5974,-0.6099,-0.6099,-0.618,-0.6338,-0.6338,-0.6338,-0.6338,-0.6338,-0.6338,-0.6338,-0.6338,-0.6338,-0.6338,-0.6338,-0.6338,-0.6338,-0.6338,-0.6338,-0.6338,-0.6338,-0.6338,-0.6338,-0.6338,-0.62,-0.6084,-0.5857,-0.5684,-0.5535,-0.5459,-0.5428,-0.5428,-0.5428,-0.5428,-0.5428,-0.5428,-0.5428,-0.5428,-0.5428,-0.5298,-0.5196,-0.5047,-0.4901,-0.4721,-0.4543,-0.4519,-0.4519,-0.4519,-0.4519,-0.4519,-0.4519,-0.4519,-0.4519,-0.4519,-0.4519,-0.4519,-0.4519,-0.4519,-0.4519,-0.4519,-0.4519,-0.4519,-0.4519,-0.4519,-0.4519,-0.491,-0.4917,-0.4877,-0.4892,-0.4683,-0.4464,-0.4097,-0.3518,0.0,0.0,-0.1896,-0.1479,-0.1361,0.0,0.0,0.0,0.0,0.0,0.0,0.0,0.0,0.0,0.0,0.0,-0.0,-0.0,-0.0088,-0.0268,-0.1165,-0.1348,-0.0359,-0.1167,-0.197,-0.2765,-0.3031,-0.32,-0.3447,-0.407,-0.4597,-0.4851,-0.5298,-0.5739,-0.6174,-0.6245,-0.6292,-0.6318,-0.6205,-0.6235,-0.6338,-0.6338,-0.6338,-0.6338,-0.6338,-0.6338,-0.6338,-0.6338,-0.6338,-0.6338,-0.6338,-0.6338,-0.6338,-0.6338,-0.6338,-0.6338,-0.6338,-0.6338,-0.6338,-0.6338,-0.6338,-0.6338,-0.6338,-0.6146,-0.5983,-0.58,-0.5552,-0.5428,-0.5428,-0.5428,-0.5428,-0.5428,-0.5428,-0.5428,-0.5428,-0.5428,-0.5428,-0.5428,-0.5428,-0.5308,-0.5148,-0.5033,-0.4847,-0.4545,-0.4536,-0.4519,-0.4519,-0.4519,-0.4519,-0.4519,-0.4519,-0.4519,-0.4519,-0.4519,-0.4519,-0.4519,-0.4519,-0.4519,-0.4519,-0.4519,-0.4519,-0.4519,-0.4519,-0.4519,-0.4604,-0.4637,-0.4642,-0.4228,-0.4065,-0.3897,-0.318,0.0,0.0,-0.1958,-0.1501,-0.1127,-0.1125,-0.0874,0.0,0.0,0.0,-0.0,0.0,0.0,0.0,0.0,0.0,0.0,-0.0,-0.0,-0.0348,-0.1222,-0.2222,-0.2334,-0.1346,-0.1974,-0.2403,-0.2617,-0.3307,-0.3703,-0.3882,-0.4471,-0.4977,-0.5231,-0.5736,-0.6071,-0.6328,-0.6562,-0.6555,-0.6491,-0.6478,-0.6393,-0.6338,-0.6338,-0.6338,-0.6338,-0.6338,-0.6338,-0.6338,-0.6338,-0.6338,-0.6338,-0.6338,-0.6338,-0.6338,-0.6338,-0.6338,-0.6338,-0.6338,-0.6338,-0.6338,-0.6338,-0.6338,-0.6338,-0.6338,-0.6146,-0.5959,-0.5677,-0.5484,-0.5428,-0.5428,-0.5428,-0.5428,-0.5428,-0.5428,-0.5428,-0.5428,-0.5428,-0.5428,-0.5428,-0.5428,-0.5308,-0.5148,-0.5121,-0.4999,-0.4701,-0.4601,-0.4519,-0.4519,-0.4519,-0.4519,-0.4519,-0.4519,-0.4519,-0.4519,-0.4519,-0.4519,-0.4519,-0.4519,-0.4519,-0.4519,-0.4519,-0.4519,-0.4519,-0.4519,-0.4519,-0.4298,-0.4262,-0.407,-0.3804,-0.3645,-0.3431,-0.2815,0.0,-0.2035,-0.1638,-0.1124,-0.0756,-0.0728,-0.0482,-0.0218,-0.0045,-0.0,-0.0,-0.0,0.0,0.0,0.0,-0.0443,0.0,0.0,-0.0821,-0.0925,-0.1279,-0.2236,-0.2592,-0.2418,-0.2624,-0.3071,-0.3478,-0.3856,-0.4231,-0.4527,-0.503,-0.5535,-0.5871,-0.6121,-0.6287,-0.6533,-0.6607,-0.6529,-0.6468,-0.6383,-0.6315,-0.6338,-0.6338,-0.6338,-0.6338,-0.6338,-0.6338,-0.6338,-0.6338,-0.6338,-0.6338,-0.6338,-0.6338,-0.6338,-0.6338,-0.6338,-0.6338,-0.6338,-0.6338,-0.6338,-0.6338,-0.6338,-0.624,-0.6146,-0.5945,-0.5711,-0.5501,-0.5473,-0.5428,-0.5428,-0.5428,-0.5428,-0.5428,-0.5428,-0.5428,-0.5428,-0.5428,-0.5428,-0.5428,-0.5428,-0.5338,-0.5277,-0.5186,-0.5053,-0.485,-0.4691,-0.4562,-0.4525,-0.4519,-0.4519,-0.4519,-0.4519,-0.4519,-0.4519,-0.4519,-0.4519,-0.4519,-0.4519,-0.4519,-0.4519,-0.4519,-0.4519,-0.4519,-0.4519,-0.4519,-0.3929,-0.3811,-0.3599,-0.335,-0.3145,-0.2902,0.0,-0.2009,-0.1701,-0.135,-0.0871,-0.0477,-0.0354,-0.0155,-0.0,-0.0,-0.0,-0.0,-0.0,-0.0184,0.0,0.0,0.0,-0.1286,-0.1318,-0.1519,-0.1725,-0.1933,-0.2608,-0.3112,-0.3364,-0.3564,-0.3751,-0.4174,-0.4525,-0.4881,-0.5257,-0.5589,-0.6003,-0.6329,-0.6329,-0.641,-0.6566,-0.6458,-0.641,-0.6403,-0.6305,-0.6338,-0.6338,-0.6338,-0.6338,-0.6338,-0.6338,-0.6338,-0.6338,-0.6338,-0.6338,-0.6338,-0.6338,-0.6338,-0.6338,-0.6338,-0.6338,-0.6338,-0.6338,-0.6338,-0.6338,-0.6338,-0.6227,-0.6146,-0.5952,-0.5745,-0.5552,-0.5466,-0.5428,-0.5428,-0.5428,-0.5428,-0.5428,-0.5428,-0.5428,-0.5428,-0.5428,-0.5428,-0.5428,-0.5428,-0.5428,-0.5428,-0.5428,-0.5267,-0.5128,-0.4938,-0.4823,-0.4677,-0.4536,-0.4519,-0.4519,-0.4519,-0.4519,-0.4519,-0.4519,-0.4519,-0.4519,-0.4519,-0.4519,-0.4519,-0.4519,-0.4519,-0.4519,-0.4519,-0.4519,-0.4519,-0.3445,-0.3377,-0.3174,-0.2622,-0.2522,-0.2347,0.0,-0.1611,-0.1493,-0.1072,-0.0725,-0.0403,-0.0067,-0.0,-0.0,-0.0,-0.0,-0.0,-0.0,-0.064,0.0,0.0,0.0,-0.1327,-0.1285,-0.2056,-0.2707,-0.3353,-0.3697,-0.4032,-0.4281,-0.4603,-0.4629,-0.4382,-0.5267,-0.5845,-0.5867,-0.6183,-0.6264,-0.6268,-0.6268,-0.6268,-0.6268,-0.6264,-0.6342,-0.6342,-0.6338,-0.6338,-0.6338,-0.6338,-0.6338,-0.6338,-0.6338,-0.6338,-0.6338,-0.6338,-0.6338,-0.6338,-0.6338,-0.6338,-0.6338,-0.6338,-0.6338,-0.6338,-0.6338,-0.6338,-0.6338,-0.6338,-0.6149,-0.5966,-0.5671,-0.5593,-0.5552,-0.5466,-0.5428,-0.5428,-0.5428,-0.5428,-0.5428,-0.5428,-0.5428,-0.5428,-0.5428,-0.5428,-0.5428,-0.5428,-0.5428,-0.5428,-0.5428,-0.5425,-0.5247,-0.4952,-0.4918,-0.4792,-0.4543,-0.4519,-0.4519,-0.4519,-0.4519,-0.4519,-0.4519,-0.4519,-0.4519,-0.4519,-0.4519,-0.4519,-0.4519,-0.4519,-0.4519,-0.4519,-0.4519,-0.4519,-0.3254,-0.3159,-0.3024,-0.267,-0.2424,-0.2183,-0.1696,-0.1381,-0.1066,-0.0674,-0.046,-0.0303,-0.0034,-0.0,-0.0,-0.0,-0.0,0.0,0.0,0.0,0.0,-0.1778,-0.2141,-0.2446,-0.263,-0.3067,-0.3501,-0.3685,-0.4168,-0.4566,-0.48,-0.5167,-0.5266,-0.5186,-0.5583,-0.5908,-0.5864,-0.618,-0.6338,-0.6338,-0.6338,-0.6338,-0.6338,-0.6338,-0.6338,-0.6338,-0.6338,-0.6338,-0.6338,-0.6338,-0.6338,-0.6338,-0.6338,-0.6338,-0.6338,-0.6338,-0.6338,-0.6338,-0.6338,-0.6338,-0.6338,-0.6338,-0.6338,-0.6338,-0.6338,-0.6338,-0.624,-0.6132,-0.5993,-0.583,-0.564,-0.5511,-0.542,-0.5439,-0.5428,-0.5428,-0.5428,-0.5428,-0.5428,-0.5428,-0.5428,-0.5428,-0.5428,-0.5428,-0.5428,-0.5428,-0.5428,-0.5428,-0.5428,-0.5428,-0.5247,-0.4952,-0.4918,-0.4796,-0.4543,-0.4519,-0.4519,-0.4519,-0.4519,-0.4519,-0.4519,-0.4519,-0.4519,-0.4519,-0.4519,-0.4519,-0.4519,-0.4519,-0.4519,-0.4519,-0.4519,-0.4519,0.0,-0.294,-0.2769,-0.2493,-0.2222,-0.1965,-0.158,-0.1224,-0.0911,-0.0547,-0.0314,-0.0134,-0.0034,-0.0,-0.0,-0.0,-0.0,0.0,0.0,0.0,0.0,-0.2297,0.0,-0.3154,-0.3673,-0.3919,-0.4153,-0.4387,-0.4698,-0.5007,-0.5315,-0.5553,-0.5752,-0.5839,-0.5989,-0.6022,-0.6022,-0.618,-0.6338,-0.6338,-0.6338,-0.6338,-0.6338,-0.6338,-0.6338,-0.6338,-0.6338,-0.6338,0.0,-0.6338,-0.6338,-0.6338,-0.6338,-0.6338,-0.6338,-0.6338,-0.6338,-0.6338,-0.6338,-0.6338,-0.6338,-0.6338,-0.6338,-0.6251,-0.6193,-0.6173,-0.6142,-0.5986,-0.5837,-0.5688,-0.5542,-0.5433,-0.5428,-0.5428,-0.5428,-0.5428,-0.5428,-0.5428,-0.5428,-0.5428,-0.5428,-0.5428,-0.5428,-0.5428,-0.5428,-0.5428,-0.5428,-0.5428,-0.5428,-0.5428,-0.5267,-0.5026,-0.4952,-0.4819,-0.4568,-0.4553,-0.4519,-0.4519,-0.4519,-0.4519,-0.4519,-0.4519,-0.4519,-0.4519,-0.4519,-0.4519,-0.4519,-0.4519,-0.4519,-0.4519,-0.4519,-0.4519,0.0,-0.2594,-0.2415,-0.2156,-0.1954,-0.1715,-0.1402,-0.1164,0.0,-0.0653,-0.0313,-0.0034,-0.0,-0.0,-0.0,-0.0,-0.0,0.0,0.0,-0.1143,0.0,0.0,-0.2981,-0.3512,-0.4373,-0.4462,-0.4696,-0.5321,-0.5398,-0.5553,-0.5941,-0.5941,-0.6022,-0.6261,-0.6338,-0.6338,-0.6338,-0.6338,-0.6338,-0.6338,-0.6338,-0.6338,-0.6338,-0.6338,-0.6338,-0.6338,-0.6338,-0.6338,-0.6338,-0.6338,-0.6338,-0.6338,-0.6338,-0.6338,-0.6338,-0.6338,-0.6338,-0.6338,-0.6338,-0.6338,-0.6335,-0.6247,-0.6244,-0.6213,-0.6061,-0.602,-0.5996,-0.5833,-0.5691,-0.5555,-0.5403,-0.5428,-0.5428,-0.5428,-0.5428,-0.5428,-0.5428,-0.5428,-0.5428,-0.5428,-0.5428,-0.5428,-0.5428,-0.5428,-0.5428,-0.5428,-0.5428,-0.5428,-0.5428,-0.5428,-0.5304,-0.5145,-0.5013,-0.4867,-0.4704,-0.4551,-0.4519,-0.4519,-0.4519,-0.4519,-0.4519,-0.4519,-0.4519,-0.4519,-0.4519,-0.4519,-0.4519,-0.4519,-0.4519,-0.4519,-0.4519,-0.4519,-0.1926,0.0,-0.2206,-0.2178,-0.2021,-0.1815,0.0,-0.1388,-0.1064,0.0,0.0,-0.0238,-0.0035,-0.0,-0.0,-0.0,0.0,0.0,-0.0576,0.0,0.0,-0.2666,-0.3202,-0.3888,-0.4758,-0.5165,-0.5479,-0.5709,-0.5944,-0.6103,-0.618,-0.618,-0.6257,-0.6261,-0.6338,-0.6338,-0.6338,-0.6338,-0.6338,-0.6338,-0.6338,-0.6338,-0.6338,-0.6338,-0.6338,-0.6338,-0.6338,-0.6338,-0.6338,-0.6338,-0.6338,-0.6338,-0.6338,-0.6338,-0.6338,-0.6338,-0.6338,-0.6338,-0.6338,-0.6338,-0.624,-0.6122,-0.6084,-0.6054,-0.5901,-0.5935,-0.5976,-0.5711,-0.5616,-0.5555,-0.5403,-0.5428,-0.5428,-0.5428,-0.5428,-0.5428,-0.5428,-0.5428,-0.5428,-0.5428,-0.5428,-0.5428,-0.5428,-0.5428,-0.5428,-0.5428,-0.5428,-0.5428,-0.5428,-0.5428,-0.5304,-0.5145,-0.5101,-0.4975,-0.4714,-0.4551,-0.4519,-0.4519,-0.4519,-0.4519,-0.4519,-0.4519,-0.4519,-0.4519,-0.4519,-0.4519,-0.4519,-0.4519,-0.4519,-0.4519,-0.4519,-0.4519,-0.1337,-0.1609,-0.1848,-0.1915,-0.1757,-0.1546,-0.1439,0.0,0.0,0.0,0.0,0.0,-0.0326,-0.0118,0.0,0.0,-0.0391,0.0,0.0,0.0,-0.2634,-0.3033,-0.3647,-0.4348,-0.5151,-0.5479,-0.5715,-0.6022,-0.618,-0.6338,-0.6338,-0.6338,-0.6338,-0.6338,-0.6338,-0.6338,-0.6338,-0.6338,-0.6338,-0.6338,-0.6338,-0.6338,-0.6338,-0.6338,-0.6338,-0.6338,-0.6338,-0.6338,-0.6338,-0.6338,-0.6338,-0.6338,-0.6338,-0.6338,-0.6338,-0.6338,-0.6338,-0.6338,-0.6338,-0.6213,-0.6142,-0.6057,-0.5983,-0.5898,-0.5749,-0.5762,-0.5793,-0.5637,-0.5538,-0.5464,-0.5449,-0.5428,-0.5428,-0.5428,-0.5428,-0.5428,-0.5428,-0.5428,-0.5428,-0.5428,-0.5428,-0.5428,-0.5428,-0.5428,-0.5428,-0.5428,-0.5428,-0.5428,-0.5428,-0.5428,-0.5328,-0.5247,-0.5172,-0.5064,-0.4904,-0.4758,-0.4613,-0.4525,-0.4519,-0.4519,-0.4519,-0.4519,-0.4519,-0.4519,-0.4519,-0.4519,-0.4519,-0.4519,-0.4519,-0.4519,-0.4519,-0.4519,-0.0809,-0.1077,-0.1357,-0.1466,-0.1328,-0.1161,-0.1137,0.0,0.0,0.0,0.0,0.0,0.0,0.0,0.0,0.0,0.0,0.0,-0.1721,-0.2346,-0.3018,-0.3522,-0.3997,-0.4623,-0.5487,-0.5576,-0.573,-0.619,-0.619,-0.619,-0.619,-0.619,-0.619,-0.619,-0.619,-0.619,-0.619,-0.6213,-0.6227,-0.6227,-0.6227,-0.6237,-0.6338,-0.6338,-0.6338,-0.6338,-0.6338,-0.6338,-0.6338,-0.6338,-0.6338,-0.6338,-0.6338,-0.6338,-0.6338,-0.6338,-0.6247,-0.622,-0.62,-0.6105,-0.5989,-0.5969,-0.5874,-0.5742,-0.5599,-0.5555,-0.5555,-0.5555,-0.546,-0.5428,-0.5428,-0.5428,-0.5428,-0.5428,-0.5428,-0.5428,-0.5428,-0.5428,-0.5428,-0.5428,-0.5428,-0.5428,-0.5428,-0.5428,-0.5428,-0.5428,-0.5428,-0.5428,-0.5428,-0.5428,-0.5428,-0.5428,-0.5243,-0.5155,-0.5131,-0.502,-0.483,-0.4551,-0.4567,-0.4543,-0.4519,-0.4519,-0.4519,-0.4519,-0.4519,-0.4519,-0.4519,-0.4519,-0.4519,-0.4519,-0.4519,-0.4519,-0.0458,-0.0508,-0.0654,-0.1008,-0.1045,-0.1057,-0.1142,0.0,0.0,0.0,0.0,0.0,0.0,0.0,-0.0511,0.0,0.0,-0.1964,0.0,-0.2768,-0.3264,-0.3432,-0.3956,-0.4538,-0.5213,-0.5438,-0.5586,-0.5871,-0.5871,-0.5871,-0.5871,-0.5871,-0.5871,-0.5871,-0.5871,-0.5871,-0.5871,-0.6,-0.6064,-0.6064,-0.6064,-0.6135,-0.6338,-0.6338,-0.6338,-0.6338,-0.6338,-0.6338,-0.6338,-0.6338,-0.6338,-0.6338,-0.6338,-0.6338,-0.6338,-0.6338,-0.6176,-0.6047,-0.5918,-0.5857,-0.5817,-0.5698,-0.564,-0.5593,-0.5443,-0.5463,-0.5463,-0.5463,-0.5446,-0.5428,-0.5428,-0.5428,-0.5428,-0.5428,-0.5428,-0.5428,-0.5428,-0.5428,-0.5428,-0.5428,-0.5428,-0.5428,-0.5428,-0.5428,-0.5428,-0.5428,-0.5428,-0.5428,-0.5428,-0.5428,-0.5428,-0.5428,-0.5342,-0.5274,-0.5142,-0.5111,-0.5026,-0.486,-0.4728,-0.4599,-0.4522,-0.4519,-0.4519,-0.4519,-0.4519,-0.4519,-0.4519,-0.4519,-0.4519,-0.4519,-0.4519,-0.4519,-0.0352,-0.0394,-0.0446,-0.069,-0.0782,-0.0887,-0.1011,0.0,0.0,0.0,0.0,0.0,0.0,0.0,-0.102,-0.1278,0.0,-0.221,-0.2562,-0.3035,-0.3527,-0.3968,-0.4307,-0.4722,-0.5294,-0.5447,-0.5591,-0.5803,-0.58,-0.58,-0.58,-0.58,-0.58,-0.58,-0.58,-0.5766,-0.5688,-0.5755,-0.583,-0.5908,-0.5908,-0.5945,-0.6013,-0.6013,-0.6013,-0.6013,-0.6013,-0.6057,-0.6135,-0.6135,-0.6135,-0.6135,-0.6135,-0.6084,-0.6013,-0.6013,-0.5966,-0.5895,-0.5827,-0.5752,-0.5677,-0.561,-0.5535,-0.5454,-0.5449,-0.5428,-0.5428,-0.5428,-0.5428,-0.5428,-0.5428,-0.5428,-0.5428,-0.5428,-0.5428,-0.5428,-0.5428,-0.5428,-0.5428,-0.5428,-0.5428,-0.5428,-0.5428,-0.5428,-0.5428,-0.5428,-0.5428,-0.5428,-0.5428,-0.5428,-0.5428,-0.5428,-0.5428,-0.5332,-0.526,-0.5254,-0.5125,-0.4816,-0.4728,-0.4623,-0.4525,-0.4519,-0.4519,-0.4519,-0.4519,-0.4519,-0.4519,-0.4519,-0.4519,-0.4519,-0.4519,-0.4519,-0.0271,-0.031,-0.0329,-0.0374,-0.0496,-0.0682,-0.0893,0.0,0.0,0.0,0.0,0.0,0.0,-0.1293,0.0,-0.2065,-0.2247,-0.2433,-0.3039,-0.3506,-0.3919,-0.4486,-0.4706,-0.4951,-0.5339,-0.5422,-0.556,-0.5698,-0.5698,-0.5698,-0.5698,-0.5698,-0.5698,-0.5698,-0.5698,-0.5647,-0.5538,-0.5538,-0.561,-0.5752,-0.5752,-0.5769,-0.58,-0.58,-0.58,-0.58,-0.58,-0.5867,-0.5976,-0.5976,-0.5976,-0.5976,-0.5976,-0.5905,-0.5796,-0.5766,-0.5752,-0.5745,-0.5711,-0.5627,-0.5538,-0.5538,-0.5457,-0.5428,-0.5428,-0.5428,-0.5428,-0.5428,-0.5428,-0.5428,-0.5428,-0.5428,-0.5428,-0.5428,-0.5428,-0.5428,-0.5428,-0.5428,-0.5428,-0.5428,-0.5428,-0.5428,-0.5428,-0.5428,-0.5428,-0.5428,-0.5428,-0.5428,-0.5428,-0.5428,-0.5428,-0.5428,-0.5428,-0.5428,-0.5428,-0.5428,-0.5199,-0.4816,-0.4728,-0.4636,-0.4577,-0.4536,-0.4519,-0.4519,-0.4519,-0.4519,-0.4519,-0.4519,-0.4519,-0.4519,-0.4519,-0.4519,-0.0027,-0.0028,-0.003,-0.0037,-0.0235,0.0,-0.0962,-0.1225,0.0,-0.1883,0.0,0.0,0.0,-0.1364,-0.1371,-0.2252,-0.2582,-0.2951,-0.3652,-0.422,-0.4561,-0.4573,-0.4903,-0.5106,-0.5119,-0.5326,-0.5396,-0.5459,-0.5459,-0.5459,-0.5459,-0.5459,-0.5459,-0.5459,-0.5459,-0.5456,-0.5446,-0.5446,-0.5454,-0.5606,-0.5606,-0.5674,-0.58,-0.58,-0.58,-0.58,-0.58,-0.581,-0.5817,-0.5817,-0.5817,-0.5817,-0.5817,-0.5813,-0.5786,-0.5654,-0.5606,-0.5586,-0.5443,-0.5452,-0.5446,-0.5446,-0.5435,-0.5428,-0.5428,-0.5428,-0.5428,-0.5428,-0.5428,-0.5428,-0.5428,-0.5428,-0.5428,-0.5428,-0.5428,-0.5428,-0.5428,-0.5428,-0.5428,-0.5428,-0.5428,-0.5428,-0.5428,-0.5428,-0.5428,-0.5428,-0.5428,-0.5428,-0.5428,-0.5428,-0.5428,-0.5428,-0.5428,-0.5428,-0.5428,-0.5428,-0.5287,-0.5108,-0.4843,-0.4684,-0.4674,-0.4594,-0.4519,-0.4519,-0.4519,-0.4519,-0.4519,-0.4519,-0.4519,-0.4519,-0.4519,-0.4519,-0.0,-0.0,-0.006,-0.0374,0.0,0.0,0.0,-0.1455,-0.1794,-0.2175,-0.2285,0.0,0.0,0.0,-0.1709,-0.256,-0.2921,-0.337,-0.4092,-0.4572,-0.4957,-0.5093,-0.5226,-0.5292,-0.5292,-0.5359,-0.5428,-0.5428,-0.5428,-0.5428,-0.5428,-0.5428,-0.5428,-0.5428,-0.5428,-0.5428,-0.5428,-0.5428,-0.5459,-0.5447,-0.5447,-0.5477,-0.5528,-0.5528,-0.5528,-0.5528,-0.5528,-0.5583,-0.5671,-0.5671,-0.5671,-0.5661,-0.5566,-0.5528,-0.5521,-0.5467,-0.5447,-0.544,-0.5449,-0.5428,-0.5428,-0.5428,-0.5428,-0.5428,-0.5428,-0.5428,-0.5428,-0.5428,-0.5428,-0.5428,-0.5428,-0.5428,-0.5428,-0.5428,-0.5428,-0.5428,-0.5428,-0.5428,-0.5428,-0.5428,-0.5428,-0.5428,-0.5428,-0.5428,-0.5428,-0.5428,-0.5428,-0.5428,-0.5428,-0.5428,-0.5428,-0.5428,-0.5428,-0.5428,-0.5428,-0.5428,-0.5338,-0.5277,-0.4996,-0.4792,-0.4694,-0.4545,-0.4519,-0.4519,-0.4519,-0.4519,-0.4519,-0.4519,-0.4519,-0.4519,-0.4519,-0.4519,-0.0,-0.0114,-0.0369,0.0,0.0,0.0,-0.1548,-0.1811,-0.207,-0.2416,-0.2591,-0.2465,-0.1906,0.0,0.0,-0.287,-0.3292,-0.3689,-0.4472,-0.4896,-0.517,-0.5355,-0.5428,-0.5428,-0.5428,-0.5428,-0.5428,-0.5428,-0.5428,-0.5428,-0.5428,-0.5428,-0.5428,-0.5428,-0.5428,-0.5428,-0.5428,-0.5428,-0.5428,-0.5428,-0.5428,-0.5428,-0.5428,-0.5428,-0.5428,-0.5428,-0.5428,-0.542,-0.5518,-0.5518,-0.5518,-0.5508,-0.547,-0.5428,-0.5428,-0.5428,-0.5428,-0.5428,-0.5428,-0.5428,-0.5428,-0.5428,-0.5428,-0.5428,-0.5428,-0.5428,-0.5428,-0.5428,-0.5428,-0.5428,-0.5428,-0.5428,-0.5428,-0.5428,-0.5428,-0.5428,-0.5428,-0.5428,-0.5428,-0.5428,-0.5428,-0.5428,-0.5428,-0.5428,-0.5428,-0.5428,-0.5428,-0.5428,-0.5428,-0.5428,-0.5428,-0.5428,-0.5428,-0.5428,-0.5428,-0.5428,-0.5428,-0.5428,-0.5125,-0.4918,-0.4769,-0.4568,-0.4519,-0.4519,-0.4519,-0.4519,-0.4519,-0.4519,-0.4519,-0.4519,-0.4519,-0.4519,-0.0,-0.0353,-0.0882,0.0,0.0,0.0,-0.2232,-0.2287,-0.2309,-0.2617,-0.2577,-0.2521,-0.2521,-0.2352,-0.2433,-0.3157,-0.3579,-0.4076,-0.4779,-0.5004,-0.5186,-0.5404,-0.5425,-0.5425,-0.5425,-0.5425,-0.5425,-0.5428,-0.5428,-0.5428,-0.5428,-0.5428,-0.5428,-0.5428,-0.5428,-0.5428,-0.5428,-0.5428,-0.5428,-0.5428,-0.5428,-0.5428,-0.5428,-0.5428,-0.5428,-0.5428,-0.5428,-0.5428,-0.5428,-0.5428,-0.5428,-0.5428,-0.5428,-0.5428,-0.5428,-0.5428,-0.5428,-0.5428,-0.5428,-0.5428,-0.5428,-0.5428,-0.5428,-0.5428,-0.5428,-0.5428,-0.5428,-0.5428,-0.5428,-0.5428,-0.5428,-0.5428,-0.5428,-0.5428,-0.5428,-0.5428,-0.5428,-0.5428,-0.5428,-0.5428,-0.5428,-0.5428,-0.5428,-0.5428,-0.5428,-0.5428,-0.5428,-0.5428,-0.5428,-0.5428,-0.5428,-0.5428,-0.5428,-0.5428,-0.5428,-0.5428,-0.5428,-0.5428,-0.5216,-0.5067,-0.4925,-0.4626,-0.4519,-0.4519,-0.4519,-0.4519,-0.4519,-0.4519,-0.4519,-0.4519,-0.4519,-0.4519,-0.0275,-0.076,0.0,0.0,0.0,0.0,0.0,-0.2603,0.0,0.0,-0.3352,-0.3241,-0.3135,-0.3079,-0.3142,-0.3452,-0.3814,-0.4194,-0.4571,-0.4793,-0.4999,-0.5043,-0.505,-0.5087,-0.5189,-0.5199,-0.5243,-0.5418,-0.5428,-0.5428,-0.5428,-0.5428,-0.5428,-0.5428,-0.5428,-0.5428,-0.5428,-0.5428,-0.5428,-0.5428,-0.5428,-0.5428,-0.5428,-0.5428,-0.5428,-0.5428,-0.5428,-0.5428,-0.5428,-0.5428,-0.5428,-0.5428,-0.5428,-0.5428,-0.5428,-0.5428,-0.5428,-0.5428,-0.5428,-0.5428,-0.5428,-0.5428,-0.5428,-0.5428,-0.5428,-0.5428,-0.5428,-0.5428,-0.5428,-0.5428,-0.5428,-0.5428,-0.5428,-0.5428,-0.5428,-0.5428,-0.5428,-0.5428,-0.5428,-0.5428,-0.5428,-0.5428,-0.5428,-0.5428,-0.5428,-0.5428,-0.5428,-0.5428,-0.5428,-0.5428,-0.5428,-0.5428,-0.5428,-0.5428,-0.5428,-0.5491,-0.5554,-0.5554,-0.5535,-0.5318,-0.4925,-0.4728,-0.4572,-0.4519,-0.4519,-0.4519,-0.4519,-0.4519,-0.4519,-0.4519,-0.4519,-0.4519,-0.0636,0.0,0.0,0.0,0.0,0.0,-0.3045,0.0,0.0,0.0,-0.3796,-0.3683,-0.3633,-0.3577,-0.3633,-0.3799,-0.4035,-0.4279,-0.4564,-0.471,-0.485,-0.4911,-0.4918,-0.4952,-0.504,-0.5047,-0.5084,-0.5179,-0.5186,-0.5186,-0.5186,-0.5186,-0.5186,-0.5186,-0.524,-0.527,-0.527,-0.5332,-0.5428,-0.5428,-0.5428,-0.5428,-0.5428,-0.5428,-0.5428,-0.5428,-0.5428,-0.5428,-0.5428,-0.5428,-0.5428,-0.5428,-0.5428,-0.5428,-0.5428,-0.5428,-0.5428,-0.5428,-0.5428,-0.5428,-0.5428,-0.5428,-0.5428,-0.5428,-0.5428,-0.5428,-0.5428,-0.5428,-0.5428,-0.5428,-0.5428,-0.5428,-0.5428,-0.5428,-0.5428,-0.5428,-0.5428,-0.5428,-0.5428,-0.5428,-0.5428,-0.5428,-0.5428,-0.5428,-0.5428,-0.5428,-0.5428,-0.5428,-0.5428,-0.5425,-0.5491,-0.5491,-0.5557,-0.5627,-0.5627,-0.5752,-0.5881,-0.5885,-0.6051,-0.5888,-0.5529,-0.5122,-0.4844,-0.4684,-0.468,-0.468,-0.468,-0.468,-0.468,-0.468,-0.468,-0.468,-0.097,0.0,0.0,0.0,0.0,0.0,-0.3802,-0.3965,-0.3907,-0.4021,0.0,-0.3907,-0.4021,-0.3965,-0.3965,-0.4193,-0.4249,-0.435,-0.465,-0.467,-0.4721,-0.486,-0.4877,-0.488,-0.4897,-0.4897,-0.4904,-0.4918,-0.4918,-0.4918,-0.4918,-0.4918,-0.4918,-0.4918,-0.5043,-0.5111,-0.5111,-0.525,-0.5387,-0.5387,-0.5387,-0.5387,-0.5321,-0.5415,-0.5428,-0.5428,-0.5428,-0.5428,-0.5428,-0.5428,-0.5428,-0.5428,-0.5428,-0.5428,-0.5428,-0.5428,-0.5428,-0.5428,-0.5428,-0.5428,-0.5428,-0.5428,-0.5428,-0.5428,-0.5428,-0.5428,-0.5428,-0.5428,-0.5428,-0.5428,-0.5428,-0.5428,-0.5428,-0.5428,-0.5428,-0.5428,-0.5428,-0.5428,-0.5428,-0.5428,-0.5428,-0.5428,-0.5428,-0.5428,-0.5428,-0.5428,-0.5428,-0.5428,-0.5428,-0.5488,-0.5617,-0.5617,-0.5818,-0.5958,-0.5954,-0.6214,-0.6346,-0.6482,-0.6675,-0.6698,-0.6487,-0.5718,-0.5201,-0.5011,-0.4952,-0.4952,-0.5007,-0.4952,-0.4952,-0.4956,-0.4952,-0.4952,0.0,-0.1262,0.0,0.0,0.0,0.0,-0.4067,-0.4245,-0.4349,-0.4408,-0.4353,-0.4349,-0.4408,-0.4353,-0.4353,-0.4408,-0.4408,-0.4473,-0.4507,-0.4567,-0.458,-0.4558,-0.4562,-0.4609,-0.4728,-0.4741,-0.4789,-0.4911,-0.4918,-0.4918,-0.4918,-0.4918,-0.4918,-0.4918,-0.4948,-0.4965,-0.4965,-0.4996,-0.5016,-0.5016,-0.5016,-0.5016,-0.5023,-0.5257,-0.5428,-0.5428,-0.5428,-0.5428,-0.5428,-0.5428,-0.5428,-0.5428,-0.5428,-0.5428,-0.5428,-0.5428,-0.5428,-0.5428,-0.5428,-0.5428,-0.5428,-0.5428,-0.5428,-0.5428,-0.5428,-0.5428,-0.5428,-0.5428,-0.5428,-0.5428,-0.5428,-0.5428,-0.5428,-0.5428,-0.5428,-0.5428,-0.5428,-0.5428,-0.5428,-0.5428,-0.5428,-0.5428,-0.5428,-0.5428,-0.5428,-0.5428,-0.5428,-0.5428,-0.5428,-0.5488,-0.5683,-0.5822,-0.6086,-0.635,-0.6544,-0.6933,-0.726,-0.726,-0.7526,-0.7531,-0.7151,-0.6318,-0.5785,-0.5614,-0.5332,-0.5336,-0.5609,-0.5336,-0.5281,-0.5454,-0.5281,-0.5171,0.0,0.0,0.0,0.0,0.0,0.0,-0.4284,-0.4411,-0.4519,-0.4519,-0.4519,-0.4519,-0.4519,-0.4519,-0.4519,-0.4519,-0.4519,-0.4519,-0.4519,-0.4519,-0.4519,-0.4519,-0.4519,-0.4549,-0.4572,-0.4582,-0.4616,-0.4694,-0.4701,-0.4701,-0.4701,-0.4701,-0.4701,-0.4701,-0.4772,-0.4809,-0.4809,-0.488,-0.4918,-0.4918,-0.4918,-0.4918,-0.4925,-0.5077,-0.5186,-0.525,-0.525,-0.5291,-0.5428,-0.5428,-0.5428,-0.5428,-0.5428,-0.5428,-0.5428,-0.5428,-0.5428,-0.5428,-0.5428,-0.5428,-0.5428,-0.5428,-0.5428,-0.5428,-0.5428,-0.5428,-0.5428,-0.5428,-0.5308,-0.525,-0.525,-0.5199,-0.5148,-0.5148,-0.526,-0.5428,-0.5428,-0.5428,-0.5428,-0.5428,-0.5428,-0.5428,-0.5428,-0.5428,-0.5428,-0.5491,-0.5488,-0.5554,-0.5756,-0.6017,-0.621,-0.635,-0.6749,-0.7073,-0.7138,-0.7652,-0.8042,-0.8112,-0.8265,-0.8291,-0.7979,-0.7379,-0.6758,-0.6213,-0.5987,-0.5987,-0.6209,-0.5987,-0.5991,-0.605,-0.5887,-0.5773,0.0,0.0,0.0,0.0,0.0,0.0,-0.4429,-0.4519,-0.4519,-0.4519,-0.4519,-0.4519,-0.4519,-0.4519,-0.4519,-0.4519,-0.4519,-0.4519,-0.4519,-0.4519,-0.4519,-0.4519,-0.4519,-0.4519,-0.4519,-0.4519,-0.4519,-0.4519,-0.4519,-0.4519,-0.4519,-0.4519,-0.4519,-0.4519,-0.4585,-0.4653,-0.4653,-0.4775,-0.484,-0.484,-0.484,-0.484,-0.484,-0.484,-0.4935,-0.5094,-0.5094,-0.5165,-0.5284,-0.5284,-0.5284,-0.5287,-0.5311,-0.5321,-0.5325,-0.5418,-0.5428,-0.5428,-0.5428,-0.5428,-0.5428,-0.5428,-0.5428,-0.5422,-0.5328,-0.5321,-0.5318,-0.5291,-0.5192,-0.5094,-0.5094,-0.5006,-0.4918,-0.4918,-0.5108,-0.5291,-0.5318,-0.5342,-0.5428,-0.5428,-0.5428,-0.5425,-0.5425,-0.5491,-0.5557,-0.5683,-0.5749,-0.5881,-0.621,-0.6605,-0.6872,-0.7007,-0.7531,-0.7922,-0.7922,-0.8436,-0.8823,-0.8964,-0.897,-0.889,-0.8804,-0.8417,-0.7816,-0.6918,-0.6804,-0.6804,-0.6799,-0.6804,-0.675,-0.6804,-0.6598,-0.6431,0.0,0.0,0.0,0.0,0.0,0.0,0.0,0.0,-0.4519,-0.4519,-0.4519,-0.4519,-0.4519,-0.4519,-0.4519,-0.4519,-0.4519,-0.4519,-0.4519,-0.4519,-0.4519,-0.4519,-0.4519,-0.4519,-0.4519,-0.4519,-0.4519,-0.4519,-0.4519,-0.4519,-0.4519,-0.4519,-0.4519,-0.4519,-0.4536,-0.4549,-0.4549,-0.457,-0.458,-0.458,-0.458,-0.458,-0.458,-0.458,-0.4677,-0.4948,-0.4948,-0.4958,-0.4979,-0.4979,-0.4979,-0.4989,-0.5114,-0.5162,-0.5179,-0.5311,-0.5428,-0.5428,-0.5428,-0.5428,-0.5428,-0.5428,-0.5428,-0.5335,-0.5203,-0.5162,-0.5135,-0.5013,-0.4962,-0.4948,-0.4948,-0.4931,-0.4918,-0.4918,-0.4948,-0.5009,-0.5135,-0.5267,-0.5428,-0.5428,-0.5488,-0.555,-0.555,-0.5885,-0.6079,-0.6145,-0.6342,-0.6539,-0.6609,-0.7064,-0.7456,-0.7582,-0.8242,-0.8705,-0.8823,-0.9344,-0.9606,-0.9676,-0.9544,-0.9386,-0.9149,-0.8871,-0.8538,-0.8156,-0.7622,-0.7509,-0.7711,-0.7509,-0.7461,-0.7557,-0.7187,-0.6864,-0.1767,0.0,0.0,0.0,0.0,-0.3958,-0.427,-0.4341,-0.4365,-0.4501,-0.4519,-0.4519,-0.4519,-0.4519,-0.4519,-0.4519,-0.4519,-0.4519,-0.4519,-0.4519,-0.4519,-0.4519,-0.4519,-0.4519,-0.4519,-0.4519,-0.4519,-0.4519,-0.4519,-0.4519,-0.4519,-0.4519,-0.4519,-0.4519,-0.4519,-0.4519,-0.4519,-0.4519,-0.4519,-0.4519,-0.4519,-0.4519,-0.4519,-0.4519,-0.4582,-0.4792,-0.4792,-0.484,-0.4918,-0.4918,-0.4918,-0.4925,-0.4989,-0.5013,-0.502,-0.5087,-0.5114,-0.5114,-0.5114,-0.5114,-0.5114,-0.5114,-0.5114,-0.5101,-0.5033,-0.5013,-0.4999,-0.4938,-0.4857,-0.4792,-0.4792,-0.4728,-0.4663,-0.4663,-0.4728,-0.4809,-0.487,-0.5067,-0.5257,-0.547,-0.562,-0.5818,-0.6017,-0.628,-0.6609,-0.6868,-0.7064,-0.726,-0.7647,-0.8042,-0.8306,-0.8554,-0.9081,-0.9414,-0.9414,-0.9862,-1.0053,-1.0053,-0.9829,-0.9577,-0.9505,-0.9066,-0.8717,-0.8646,-0.8215,-0.8049,-0.8203,-0.8049,-0.8049,-0.8103,-0.7735,-0.7408,0.0,0.0,0.0,0.0,0.0,-0.3676,0.0,0.0,-0.4224,-0.4385,-0.4436,-0.4519,-0.4519,-0.4519,-0.4519,-0.4519,-0.4519,-0.4519,-0.4519,-0.4519,-0.4519,-0.4519,-0.4519,-0.4519,-0.4519,-0.4519,-0.4519,-0.4519,-0.4519,-0.4519,-0.4519,-0.4519,-0.4519,-0.4519,-0.4519,-0.4519,-0.4519,-0.4519,-0.4519,-0.4519,-0.4519,-0.4519,-0.4519,-0.4519,-0.458,-0.4633,-0.4633,-0.4697,-0.4802,-0.4802,-0.4802,-0.4806,-0.4847,-0.486,-0.4867,-0.4904,-0.4918,-0.4918,-0.4918,-0.4918,-0.4918,-0.4918,-0.4918,-0.4911,-0.4874,-0.486,-0.4853,-0.4813,-0.4721,-0.4633,-0.4633,-0.4548,-0.4519,-0.4519,-0.4551,-0.4653,-0.4731,-0.4952,-0.5293,-0.5535,-0.5855,-0.6218,-0.6548,-0.6872,-0.726,-0.7717,-0.7847,-0.8172,-0.8619,-0.8888,-0.9157,-0.9408,-0.9734,-0.9926,-0.9926,-1.018,-1.0338,-1.026,-0.9907,-0.9653,-0.9573,-0.9078,-0.8804,-0.8804,-0.8586,-0.848,-0.848,-0.848,-0.848,-0.848,-0.8162,-0.7842,0.0,0.0,0.0,0.0,0.0,0.0,0.0,0.0,-0.4197,-0.4204,-0.4368,-0.4519,-0.4519,-0.4519,-0.4519,-0.4519,-0.4519,-0.4519,-0.4519,-0.4519,-0.4519,-0.4519,-0.4519,-0.4519,-0.4519,-0.4519,-0.4519,-0.4519,-0.4519,-0.4519,-0.4519,-0.4519,-0.4519,-0.4519,-0.4519,-0.4519,-0.4519,-0.4519,-0.4519,-0.4519,-0.4519,-0.4519,-0.4519,-0.4519,-0.4522,-0.4529,-0.4529,-0.4532,-0.4543,-0.4543,-0.4543,-0.4556,-0.4646,-0.4704,-0.4721,-0.4867,-0.4918,-0.4918,-0.4918,-0.4918,-0.4918,-0.4918,-0.4918,-0.4894,-0.4748,-0.4704,-0.4674,-0.4584,-0.4536,-0.4529,-0.4529,-0.4522,-0.4519,-0.4519,-0.4522,-0.4555,-0.4847,-0.5154,-0.5456,-0.565,-0.623,-0.6741,-0.7068,-0.7717,-0.8166,-0.8425,-0.8882,-0.921,-0.9274,-0.9536,-0.974,-0.9804,-1.0053,-1.0238,-1.0238,-1.0434,-1.0441,-1.016,-0.9853,-0.9559,-0.9216,-0.8971,-0.8804,-0.8804,-0.8804,-0.8758,-0.8758,-0.8758,-0.8758,-0.8752,-0.8381,-0.8049,0.0,0.0,0.0,0.0,-0.2883,-0.3117,-0.3554,-0.3741,-0.3873,-0.4013,-0.4141,-0.4209,-0.4307,-0.4399,-0.4519,-0.4519,-0.4519,-0.4519,-0.4519,-0.4519,-0.4519,-0.4519,-0.4519,-0.4519,-0.4519,-0.4519,-0.4519,-0.4519,-0.4519,-0.4519,-0.4519,-0.4519,-0.4519,-0.4519,-0.4519,-0.4519,-0.4519,-0.4519,-0.4519,-0.4519,-0.4519,-0.4519,-0.4519,-0.4519,-0.4519,-0.4519,-0.4519,-0.4519,-0.4519,-0.4519,-0.4519,-0.4522,-0.4577,-0.4545,-0.4551,-0.4606,-0.4626,-0.4626,-0.4626,-0.4626,-0.4626,-0.4626,-0.4626,-0.4616,-0.4562,-0.4545,-0.4587,-0.4532,-0.4519,-0.4519,-0.4519,-0.4519,-0.4519,-0.4632,-0.4632,-0.472,-0.4944,-0.524,-0.5523,-0.6065,-0.6582,-0.7177,-0.7887,-0.8431,-0.8882,-0.9274,-0.9472,-0.9728,-0.9919,-1.0053,-1.018,-1.0308,-1.0434,-1.0498,-1.0498,-1.0388,-1.0234,-1.0127,-0.9666,-0.9352,-0.919,-0.8965,-0.8804,-0.8804,-0.8804,-0.8804,-0.8804,-0.8804,-0.8804,-0.8804,-0.8586,-0.8362,-0.1906,0.0,0.0,0.0,0.0,-0.2819,-0.3228,-0.3395,-0.3571,-0.3822,-0.391,-0.3988,-0.409,-0.429,-0.4406,-0.4512,-0.4519,-0.4519,-0.4519,-0.4519,-0.4519,-0.4519,-0.4519,-0.4519,-0.4519,-0.4519,-0.4519,-0.4519,-0.4519,-0.4519,-0.4519,-0.4519,-0.4519,-0.4519,-0.4519,-0.4519,-0.4519,-0.4519,-0.4519,-0.4519,-0.4519,-0.4519,-0.4519,-0.4519,-0.4519,-0.4519,-0.4519,-0.4519,-0.4519,-0.4519,-0.4519,-0.4519,-0.4519,-0.4519,-0.4519,-0.4519,-0.4519,-0.4519,-0.4519,-0.4519,-0.4519,-0.4519,-0.4519,-0.4519,-0.4519,-0.4519,-0.4519,-0.4519,-0.4519,-0.4519,-0.4519,-0.4519,-0.4519,-0.4688,-0.4743,-0.4849,-0.523,-0.5469,-0.5712,-0.6315,-0.6875,-0.7521,-0.8357,-0.8828,-0.9208,-0.9587,-0.9711,-0.9835,-1.0082,-1.0082,-1.0137,-1.0267,-1.0329,-1.0329,-1.0329,-1.008,-0.9927,-0.9826,-0.9396,-0.9143,-0.9044,-0.8911,-0.8804,-0.8804,-0.8804,-0.8804,-0.8804,-0.8804,-0.8804,-0.8804,-0.8685,-0.8527,0.0,0.0,0.0,0.0,0.0,0.0,-0.2709,-0.3015,-0.3333,-0.3534,-0.368,-0.3826,-0.3978,-0.408,-0.4231,-0.4426,-0.4512,-0.4519,-0.4519,-0.4519,-0.4519,-0.4519,-0.4519,-0.4519,-0.4519,-0.4519,-0.4519,-0.4519,-0.4519,-0.4519,-0.4519,-0.4519,-0.4519,-0.4519,-0.4519,-0.4519,-0.4519,-0.4519,-0.4519,-0.4519,-0.4519,-0.4519,-0.4519,-0.4519,-0.4519,-0.4519,-0.4519,-0.4519,-0.4519,-0.4519,-0.4519,-0.4519,-0.4519,-0.4519,-0.4519,-0.4519,-0.4519,-0.4519,-0.4519,-0.4519,-0.4519,-0.4519,-0.4519,-0.4519,-0.4519,-0.4519,-0.4519,-0.4519,-0.4519,-0.4519,-0.4519,-0.4519,-0.4519,-0.4688,-0.4849,-0.5117,-0.5719,-0.5819,-0.5957,-0.6473,-0.7158,-0.7844,-0.8322,-0.8863,-0.9279,-0.9395,-0.9563,-0.9686,-0.9686,-0.9686,-0.9686,-0.9686,-0.9686,-0.9686,-0.9686,-0.9679,-0.9546,-0.9203,-0.9176,-0.9044,-0.8818,-0.8804,-0.8804,-0.8804,-0.8804,-0.8804,-0.8804,-0.8804,-0.8804,-0.8804,-0.8685,-0.8474,-0.1803,0.0,0.0,0.0,0.0,0.0,-0.264,-0.2778,-0.2937,-0.3195,-0.3326,-0.3474,-0.3673,-0.3819,-0.3968,-0.4117,-0.4321,-0.4519,-0.4519,-0.4519,-0.4519,-0.4519,-0.4519,-0.4519,-0.4519,-0.4519,-0.4519,-0.4519,-0.4519,-0.4519,-0.4519,-0.4519,-0.4519,-0.4519,-0.4519,-0.4519,-0.4519,-0.4519,-0.4519,-0.4519,-0.4519,-0.4519,-0.4519,-0.4519,-0.4519,-0.4519,-0.4519,-0.4519,-0.4519,-0.4519,-0.4519,-0.4519,-0.4519,-0.4519,-0.4519,-0.4519,-0.4519,-0.4519,-0.4519,-0.4519,-0.4519,-0.4519,-0.4519,-0.4519,-0.4519,-0.4519,-0.4519,-0.4519,-0.4519,-0.4519,-0.4632,-0.4632,-0.4743,-0.5238,-0.5449,-0.5719,-0.6436,-0.6752,-0.7005,-0.7295,-0.7716,-0.8218,-0.8891,-0.9155,-0.9389,-0.957,-0.9679,-0.9686,-0.9686,-0.9686,-0.9686,-0.9686,-0.9686,-0.9686,-0.9686,-0.9486,-0.9269,-0.919,-0.9045,-0.8891,-0.8811,-0.8804,-0.8804,-0.8804,-0.8804,-0.8804,-0.8804,-0.8804,-0.8804,-0.8804,-0.8752,-0.8586,-0.1905,0.0,0.0,-0.204,0.0,0.0,-0.2435,-0.2544,-0.2685,-0.289,-0.3059,-0.3172,-0.3361,-0.3602,-0.3773,-0.3863,-0.4181,-0.4435,-0.433,-0.4277,-0.43,-0.4365,-0.4372,-0.4395,-0.4512,-0.4519,-0.4519,-0.4519,-0.4519,-0.4519,-0.4519,-0.4519,-0.4519,-0.4519,-0.4519,-0.4519,-0.4519,-0.4519,-0.4519,-0.4519,-0.4519,-0.4519,-0.4519,-0.4519,-0.4519,-0.4519,-0.4519,-0.4519,-0.4519,-0.4519,-0.4519,-0.4519,-0.4519,-0.4519,-0.4519,-0.4519,-0.4519,-0.4519,-0.4519,-0.4519,-0.4574,-0.4574,-0.4684,-0.4739,-0.468,-0.4684,-0.4739,-0.4629,-0.4574,-0.4629,-0.4739,-0.4849,-0.5069,-0.5618,-0.5891,-0.6268,-0.6982,-0.73,-0.7549,-0.7758,-0.8007,-0.8386,-0.8895,-0.9032,-0.9207,-0.9319,-0.9319,-0.9319,-0.9319,-0.9319,-0.9319,-0.9319,-0.9319,-0.9319,-0.9319,-0.9158,-0.9058,-0.9058,-0.8898,-0.8804,-0.8804,-0.8804,-0.8804,-0.8804,-0.8804,-0.8804,-0.8804,-0.8804,-0.8804,-0.8804,-0.8804,-0.8692,-0.2125,-0.2085,0.0,-0.2177,-0.2211,0.0,-0.2231,-0.2361,-0.2527,-0.2682,-0.2801,-0.2947,-0.3073,-0.3409,-0.3648,-0.3648,-0.4033,-0.4251,-0.4062,-0.4019,-0.407,-0.4153,-0.417,-0.4273,-0.4399,-0.4467,-0.4467,-0.4467,-0.4467,-0.4474,-0.4491,-0.4494,-0.4501,-0.4519,-0.4519,-0.4519,-0.4519,-0.4519,-0.4519,-0.4519,-0.4519,-0.4519,-0.4519,-0.4519,-0.4519,-0.4519,-0.4519,-0.4519,-0.4519,-0.4519,-0.4519,-0.4519,-0.4519,-0.4519,-0.4519,-0.4519,-0.4519,-0.4519,-0.4519,-0.4632,-0.4743,-0.4743,-0.4963,-0.5124,-0.5011,-0.5066,-0.5124,-0.4853,-0.4743,-0.4794,-0.4956,-0.5171,-0.55,-0.6,-0.6327,-0.6707,-0.7461,-0.7723,-0.783,-0.7984,-0.8203,-0.8474,-0.8573,-0.8745,-0.8804,-0.8804,-0.8804,-0.8804,-0.8804,-0.8804,-0.8804,-0.8804,-0.8804,-0.8804,-0.8804,-0.8804,-0.8804,-0.8804,-0.8804,-0.8804,-0.8804,-0.8804,-0.8804,-0.8804,-0.8804,-0.8804,-0.8804,-0.8804,-0.8804,-0.8804,-0.8804,-0.8745,-0.2423,-0.2377,-0.2303,-0.2228,-0.2211,0.0,-0.2414,-0.2462,-0.2527,-0.2682,-0.2867,-0.2978,-0.3006,-0.3243,-0.3454,-0.3454,-0.3652,-0.3917,-0.4119,-0.4175,-0.4132,-0.406,-0.4063,-0.4077,-0.4104,-0.4107,-0.4107,-0.4107,-0.4107,-0.4158,-0.4231,-0.4237,-0.4341,-0.4515,-0.4519,-0.4519,-0.4519,-0.4519,-0.4519,-0.4519,-0.4519,-0.4519,-0.4519,-0.4519,-0.4519,-0.4519,-0.4519,-0.4519,-0.4519,-0.4519,-0.4519,-0.4519,-0.4519,-0.4519,-0.4519,-0.4519,-0.4519,-0.4519,-0.4632,-0.4739,-0.4901,-0.512,-0.534,-0.5508,-0.5614,-0.5559,-0.5454,-0.523,-0.5171,-0.5226,-0.5555,-0.5723,-0.6055,-0.6707,-0.7085,-0.7461,-0.8103,-0.8315,-0.8468,-0.8586,-0.858,-0.858,-0.8745,-0.8804,-0.8804,-0.8804,-0.8804,-0.8804,-0.8804,-0.8804,-0.8804,-0.8804,-0.8804,-0.8804,-0.8804,-0.8804,-0.8804,-0.8804,-0.8804,-0.8804,-0.8804,-0.8804,-0.8804,-0.8804,-0.8804,-0.8804,-0.8804,-0.8804,-0.8804,-0.8804,-0.8804,-0.8699,-0.2839,-0.2748,-0.2656,-0.2649,-0.252,0.0,0.0,-0.2513,-0.2503,-0.2582,-0.2753,-0.2891,-0.2891,-0.3133,-0.3354,-0.3354,-0.3567,-0.3764,-0.3938,-0.4073,-0.4113,-0.4045,-0.41,-0.4132,-0.4115,-0.4168,-0.4214,-0.4214,-0.4118,-0.4106,-0.4185,-0.4134,-0.4202,-0.4351,-0.4355,-0.4389,-0.4519,-0.4519,-0.4519,-0.4519,-0.4519,-0.4519,-0.4519,-0.4519,-0.4519,-0.4519,-0.4519,-0.4519,-0.4519,-0.4519,-0.4519,-0.4519,-0.4519,-0.4519,-0.4519,-0.4519,-0.4519,-0.4519,-0.4632,-0.4849,-0.5171,-0.5445,-0.5887,-0.6218,-0.6209,-0.605,-0.5887,-0.5773,-0.5769,-0.5828,-0.605,-0.6376,-0.6756,-0.7295,-0.7622,-0.7949,-0.8421,-0.8573,-0.8633,-0.8752,-0.8745,-0.8745,-0.8804,-0.8804,-0.8804,-0.8804,-0.8804,-0.8804,-0.8804,-0.8804,-0.8804,-0.8804,-0.8804,-0.8804,-0.8804,-0.8804,-0.8804,-0.8804,-0.8804,-0.8804,-0.8804,-0.8804,-0.8804,-0.8804,-0.8804,-0.8804,-0.8804,-0.8804,-0.8804,-0.8804,-0.8804,-0.8646,-0.3365,-0.3268,-0.315,-0.3191,-0.3018,-0.2784,0.0,0.0,0.0,-0.262,-0.2755,-0.2882,-0.2849,-0.306,-0.3236,-0.3236,-0.3421,-0.3549,-0.3549,-0.379,-0.3983,-0.401,-0.4074,-0.4138,-0.4072,-0.4179,-0.4212,-0.4226,-0.4116,-0.4056,-0.408,-0.401,-0.4046,-0.4147,-0.418,-0.4304,-0.4419,-0.4501,-0.4519,-0.4519,-0.4519,-0.4519,-0.4519,-0.4519,-0.4519,-0.4519,-0.4519,-0.4519,-0.4519,-0.4519,-0.4519,-0.4519,-0.4519,-0.4519,-0.4519,-0.4519,-0.4519,-0.4574,-0.4743,-0.5069,-0.55,-0.5882,-0.6485,-0.7036,-0.6864,-0.6642,-0.648,-0.648,-0.6426,-0.648,-0.6598,-0.702,-0.7503,-0.7777,-0.8049,-0.8321,-0.858,-0.8633,-0.8685,-0.8804,-0.8804,-0.8804,-0.8804,-0.8804,-0.8804,-0.8804,-0.8804,-0.8804,-0.8804,-0.8804,-0.8804,-0.8804,-0.8804,-0.8804,-0.8804,-0.8804,-0.8804,-0.8804,-0.8804,-0.8804,-0.8804,-0.8804,-0.8804,-0.8804,-0.8804,-0.8804,-0.8804,-0.8804,-0.8804,-0.8804,-0.8804,-0.8699,-0.4088,-0.4009,-0.3909,-0.3686,-0.3603,-0.3513,-0.3216,0.0,-0.311,-0.3045,0.0,-0.3142,-0.3076,0.0,0.0,-0.2931,-0.2978,-0.3025,-0.3056,-0.3364,-0.3629,-0.3715,-0.364,-0.3625,-0.3658,-0.3637,-0.3583,-0.3523,-0.3562,-0.3616,-0.3746,-0.3791,-0.3887,-0.4039,-0.4127,-0.4204,-0.422,-0.4399,-0.4519,-0.4519,-0.4519,-0.4519,-0.4519,-0.4519,-0.4519,-0.4519,-0.4519,-0.4519,-0.4519,-0.4519,-0.4519,-0.4519,-0.4519,-0.4519,-0.4519,-0.4519,-0.4574,-0.4688,-0.4963,-0.5454,-0.6,-0.6603,-0.7241,-0.7771,-0.7616,-0.7563,-0.7509,-0.7408,-0.7354,-0.7408,-0.7509,-0.7717,-0.7931,-0.8262,-0.8421,-0.858,-0.8745,-0.8752,-0.8804,-0.8804,-0.8804,-0.8804,-0.8804,-0.8804,-0.8804,-0.8804,-0.8804,-0.8804,-0.8804,-0.8804,-0.8804,-0.8804,-0.8804,-0.8804,-0.8804,-0.8804,-0.8804,-0.8804,-0.8804,-0.8804,-0.8804,-0.8804,-0.8804,-0.8804,-0.8804,-0.8804,-0.8804,-0.8804,-0.8804,-0.8804,-0.8804,-0.8745,-0.4962,-0.4802,-0.4624,-0.4352,-0.4111,-0.3848,-0.3552,-0.3438,-0.3335,-0.3241,0.0,0.0,0.0,0.0,0.0,0.0,-0.2788,-0.2753,-0.2876,-0.2968,-0.3196,-0.3642,-0.3663,-0.3621,-0.3672,-0.354,-0.3475,-0.3556,-0.3585,-0.3625,-0.369,-0.3674,-0.3737,-0.3883,-0.3948,-0.4026,-0.4063,-0.4263,-0.4338,-0.4338,-0.4423,-0.4519,-0.4519,-0.4519,-0.4519,-0.4519,-0.4519,-0.4519,-0.4519,-0.4519,-0.4519,-0.4519,-0.4574,-0.4632,-0.4632,-0.4632,-0.4743,-0.4963,-0.5293,-0.5782,-0.6381,-0.7359,-0.7889,-0.8203,-0.8203,-0.8103,-0.8002,-0.7895,-0.7895,-0.7895,-0.8002,-0.815,-0.8355,-0.8468,-0.8633,-0.8745,-0.8804,-0.8804,-0.8804,-0.8804,-0.8804,-0.8804,-0.8804,-0.8804,-0.8804,-0.8804,-0.8804,-0.8804,-0.8804,-0.8804,-0.8804,-0.8804,-0.8804,-0.8804,-0.8804,-0.8804,-0.8804,-0.8804,-0.8804,-0.8804,-0.8804,-0.8804,-0.8804,-0.8804,-0.8804,-0.8804,-0.8804,-0.8804,-0.8804,-0.8804,-0.8804,-0.8745,-0.5681,-0.5509,-0.5294,-0.4965,-0.4659,-0.4373,-0.3988,-0.3858,-0.3723,-0.3541,-0.3508,0.0,0.0,0.0,-0.292,-0.2871,0.0,-0.2534,-0.2594,-0.256,-0.2768,-0.3392,-0.3471,-0.3431,-0.3404,-0.3281,-0.3271,-0.3481,-0.3498,-0.3518,-0.3607,-0.356,-0.3581,-0.3731,-0.3771,-0.3843,-0.3958,-0.406,-0.4133,-0.4133,-0.429,-0.4362,-0.4402,-0.4402,-0.4426,-0.4519,-0.4519,-0.4519,-0.4519,-0.4519,-0.4519,-0.4574,-0.4688,-0.4853,-0.4963,-0.4908,-0.5069,-0.5399,-0.5727,-0.6268,-0.6972,-0.7996,-0.8374,-0.8533,-0.8633,-0.8533,-0.8381,-0.8381,-0.8381,-0.8381,-0.8381,-0.8533,-0.8633,-0.8633,-0.8745,-0.8804,-0.8804,-0.8804,-0.8804,-0.8804,-0.8804,-0.8804,-0.8804,-0.8804,-0.8804,-0.8804,-0.8804,-0.8804,-0.8804,-0.8804,-0.8804,-0.8804,-0.8804,-0.8804,-0.8804,-0.8804,-0.8804,-0.8804,-0.8804,-0.8804,-0.8804,-0.8804,-0.8804,-0.8804,-0.8804,-0.8804,-0.8804,-0.8804,-0.8804,-0.8804,-0.8804,-0.8752,-0.6076,-0.6065,-0.5957,-0.5488,-0.538,-0.5214,-0.4608,-0.4462,-0.4403,-0.4129,-0.4031,-0.3863,-0.3565,-0.3277,-0.3006,-0.2745,-0.2478,0.0,0.0,-0.2116,-0.2318,-0.2869,-0.2884,-0.278,-0.2641,-0.269,-0.2782,-0.293,-0.2942,-0.3081,-0.339,-0.3357,-0.3383,-0.3581,-0.3721,-0.3792,-0.3799,-0.3951,-0.4026,-0.4026,-0.4033,-0.406,-0.4204,-0.4204,-0.4331,-0.4519,-0.4519,-0.4519,-0.4519,-0.4519,-0.4574,-0.4688,-0.4846,-0.5175,-0.5567,-0.534,-0.5555,-0.6,-0.6273,-0.702,-0.7925,-0.8408,-0.8685,-0.8804,-0.8804,-0.8804,-0.8758,-0.8758,-0.8758,-0.8758,-0.8758,-0.8804,-0.8804,-0.8804,-0.8804,-0.8804,-0.8804,-0.8804,-0.8804,-0.8804,-0.8804,-0.8804,-0.8804,-0.8804,-0.8804,-0.8804,-0.8804,-0.8804,-0.8804,-0.8804,-0.8804,-0.8804,-0.8804,-0.8804,-0.8804,-0.8804,-0.8804,-0.8804,-0.8804,-0.8804,-0.8804,-0.8804,-0.8804,-0.8804,-0.8804,-0.8804,-0.8804,-0.8804,-0.8804,-0.8804,-0.8804,-0.8804,-0.6689,-0.6674,-0.6533,-0.6206,-0.5844,-0.5505,-0.5128,-0.4856,-0.464,-0.4409,-0.4242,-0.4048,-0.3821,-0.346,-0.314,-0.2807,-0.2544,-0.2291,0.0,-0.2056,-0.2095,-0.2232,-0.245,-0.2572,-0.2542,-0.2501,-0.2579,-0.2747,-0.2823,-0.2908,-0.3111,-0.3252,-0.3333,-0.3471,-0.3619,-0.3653,-0.3653,-0.3795,-0.387,-0.387,-0.3972,-0.4046,-0.405,-0.415,-0.422,-0.4328,-0.4423,-0.4519,-0.4519,-0.4577,-0.4684,-0.4849,-0.5234,-0.5614,-0.5996,-0.5832,-0.6109,-0.6657,-0.7182,-0.7771,-0.8256,-0.8521,-0.8692,-0.8804,-0.8804,-0.8804,-0.8804,-0.8804,-0.8804,-0.8804,-0.8804,-0.8804,-0.8804,-0.8804,-0.8804,-0.8804,-0.8804,-0.8804,-0.8804,-0.8804,-0.8804,-0.8804,-0.8804,-0.8804,-0.8804,-0.8804,-0.8804,-0.8804,-0.8804,-0.8804,-0.8804,-0.8804,-0.8804,-0.8804,-0.8804,-0.8804,-0.8804,-0.8804,-0.8804,-0.8804,-0.8804,-0.8804,-0.8804,-0.8804,-0.8804,-0.8804,-0.8804,-0.8804,-0.8752,-0.8685,-0.8586,-0.8586,-0.6979,-0.6985,-0.6884,-0.6593,-0.6266,-0.5933,-0.5682,-0.5449,-0.5227,-0.4972,-0.4733,-0.4471,-0.4172,-0.3795,-0.3394,-0.2994,-0.2669,-0.2367,0.0,-0.1964,-0.1916,-0.1872,-0.2122,-0.2277,-0.2277,-0.2248,-0.234,-0.2594,-0.2618,-0.2729,-0.2986,-0.313,-0.3252,-0.3347,-0.35,-0.3581,-0.3581,-0.367,-0.3717,-0.3717,-0.3816,-0.389,-0.3944,-0.4097,-0.4247,-0.4306,-0.4616,-0.4739,-0.4739,-0.4849,-0.5011,-0.5281,-0.5668,-0.6105,-0.6534,-0.6436,-0.6815,-0.7413,-0.799,-0.8309,-0.8474,-0.8633,-0.8745,-0.8804,-0.8804,-0.8804,-0.8804,-0.8804,-0.8804,-0.8804,-0.8804,-0.8804,-0.8804,-0.8804,-0.8804,-0.8804,-0.8804,-0.8804,-0.8804,-0.8804,-0.8804,-0.8804,-0.8804,-0.8804,-0.8804,-0.8804,-0.8804,-0.8804,-0.8804,-0.8804,-0.8804,-0.8804,-0.8804,-0.8804,-0.8804,-0.8804,-0.8804,-0.8804,-0.8804,-0.8804,-0.8804,-0.8804,-0.8804,-0.8804,-0.8804,-0.8804,-0.8804,-0.8804,-0.8745,-0.8573,-0.8362,-0.8203]},{"header":{"parameterUnit":"m.s-1","parameterCategory":1,"la1":30.6,"la2":29.2853,"lo1":-89.7004,"lo2":-87.6739,"dy":0.0162,"dx":0.0183,"nx":112,"ny":82,"refTime":"2024-07-02T00:00:00:Z","depth":0,"parameterNumber":3,"parameterNumberName":"V-component_of_WINDS"},"data":[0.0,0.0,0.0,0.0,0.0,0.0,0.0,0.0,0.0,0.0,0.0,0.0,0.0,0.0,0.0,0.0,0.0,0.0,0.0,0.0,0.0,0.0,0.0,0.0,0.0,0.0,0.0,0.0,0.0,0.0,0.0,0.0,0.0,0.0,0.0,0.0,0.0,0.0,0.0,0.0,0.0,0.0,0.0,0.0,0.0,0.0,0.0,0.0,0.0,0.0,0.0,0.0,0.0,0.0,0.0,0.0,0.0,0.0,0.0,0.0,0.0,0.0,0.0,0.0,0.0,0.0,0.0,0.0,0.0,0.0,0.0,0.0,0.0,0.0,0.0,0.0,0.0,0.0,0.0,0.0,0.0,0.0,0.0,0.0,0.0,0.0,0.0,0.0,0.0,0.0,-1.4922,-1.707,-2.0176,-2.2031,-2.1914,-2.1211,-2.0,-1.8125,0.0,0.0,0.0,0.0,0.0,0.0,0.0,0.0,0.0,0.0,0.0,0.0,0.0,0.0,0.0,0.0,0.0,0.0,0.0,0.0,0.0,0.0,0.0,0.0,0.0,0.0,0.0,0.0,0.0,0.0,0.0,0.0,0.0,0.0,0.0,0.0,0.0,0.0,0.0,0.0,0.0,0.0,0.0,0.0,0.0,0.0,0.0,0.0,0.0,0.0,0.0,0.0,0.0,0.0,0.0,0.0,0.0,0.0,0.0,0.0,0.0,0.0,0.0,0.0,0.0,0.0,0.0,0.0,0.0,0.0,0.0,0.0,0.0,0.0,0.0,0.0,0.0,0.0,0.0,0.0,0.0,0.0,0.0,0.0,0.0,0.0,0.0,0.0,0.0,0.0,0.0,0.0,0.0,0.0,0.0,0.0,0.0,0.0,0.0,0.0,0.0,0.0,0.0,0.0,-1.5621,-1.9587,-2.1755,-2.2634,-2.1951,-2.1775,-2.0642,-1.8162,0.0,0.0,0.0,0.0,0.0,0.0,0.0,0.0,0.0,0.0,0.0,0.0,0.0,0.0,0.0,0.0,0.0,0.0,0.0,0.0,0.0,0.0,0.0,0.0,0.0,0.0,0.0,0.0,0.0,0.0,0.0,0.0,0.0,0.0,0.0,0.0,0.0,0.0,0.0,0.0,0.0,0.0,0.0,0.0,0.0,0.0,0.0,0.0,0.0,0.0,0.0,0.0,0.0,0.0,0.0,0.0,0.0,0.0,0.0,0.0,0.0,0.0,0.0,0.0,0.0,0.0,0.0,0.0,0.0,0.0,0.0,0.0,0.0,0.0,0.0,0.0,0.0,0.0,0.0,0.0,0.0,0.0,0.0,0.0,0.0,0.0,0.0,0.0,0.0,0.0,0.0,0.0,0.0,0.0,0.0,0.0,0.0,0.0,0.0,0.0,0.0,0.0,0.0,-1.5811,-1.8212,-2.1591,-2.3057,-2.3467,-2.2628,-2.2159,-2.077,-1.8172,-1.5558,0.0,0.0,0.0,0.0,0.0,0.0,0.0,0.0,0.0,0.0,0.0,0.0,0.0,0.0,0.0,0.0,0.0,0.0,0.0,0.0,0.0,0.0,0.0,0.0,0.0,0.0,0.0,0.0,0.0,0.0,0.0,0.0,0.0,0.0,0.0,0.0,0.0,0.0,0.0,0.0,0.0,0.0,0.0,0.0,0.0,0.0,0.0,0.0,0.0,0.0,0.0,0.0,0.0,0.0,0.0,0.0,0.0,0.0,0.0,0.0,0.0,0.0,0.0,0.0,0.0,0.0,0.0,0.0,0.0,0.0,0.0,0.0,0.0,0.0,0.0,0.0,0.0,0.0,0.0,0.0,0.0,0.0,0.0,0.0,0.0,0.0,0.0,0.0,0.0,0.0,0.0,0.0,0.0,0.0,0.0,0.0,0.0,0.0,0.0,0.0,0.0,0.0,-1.7682,-2.0275,-2.2836,-2.389,-2.4046,-2.3169,-2.2346,-2.0761,-1.8161,-1.5543,0.0,0.0,0.0,0.0,0.0,0.0,0.0,0.0,0.0,0.0,0.0,0.0,0.0,0.0,0.0,0.0,0.0,0.0,0.0,0.0,0.0,0.0,0.0,0.0,0.0,0.0,0.0,0.0,0.0,0.0,0.0,0.0,0.0,0.0,0.0,0.0,0.0,0.0,0.0,0.0,0.0,0.0,0.0,0.0,0.0,0.0,0.0,0.0,0.0,0.0,0.0,0.0,0.0,0.0,0.0,0.0,0.0,0.0,0.0,0.0,0.0,0.0,0.0,0.0,0.0,0.0,0.0,0.0,0.0,0.0,0.0,0.0,0.0,0.0,0.0,0.0,0.0,0.0,0.0,0.0,0.0,0.0,0.0,0.0,0.0,0.0,0.0,0.0,0.0,0.0,0.0,0.0,0.0,0.0,0.0,0.0,0.0,0.0,0.0,0.0,0.0,0.0,-1.7677,-2.0277,-2.2838,-2.387,-2.4046,-2.3169,-2.2307,-2.0722,-1.8161,-1.5541,0.0,0.0,0.0,0.0,0.0,0.0,0.0,0.0,0.0,0.0,0.0,0.0,0.0,0.0,0.0,0.0,0.0,0.0,0.0,0.0,0.0,0.0,0.0,0.0,0.0,0.0,0.0,0.0,0.0,0.0,0.0,0.0,0.0,0.0,0.0,0.0,0.0,0.0,0.0,0.0,0.0,0.0,0.0,0.0,0.0,0.0,0.0,0.0,0.0,0.0,0.0,0.0,0.0,0.0,0.0,0.0,0.0,0.0,0.0,0.0,0.0,0.0,0.0,0.0,0.0,0.0,0.0,0.0,0.0,0.0,0.0,0.0,0.0,0.0,0.0,0.0,0.0,0.0,0.0,0.0,0.0,0.0,0.0,0.0,0.0,0.0,0.0,0.0,0.0,0.0,0.0,0.0,0.0,0.0,0.0,0.0,0.0,0.0,0.0,0.0,0.0,0.0,-1.8026,-2.0277,-2.2839,-2.3872,-2.4046,-2.3168,-2.184,-1.9946,-1.7343,0.0,0.0,0.0,0.0,0.0,0.0,0.0,0.0,0.0,0.0,0.0,0.0,0.0,0.0,0.0,0.0,0.0,0.0,0.0,0.0,0.0,0.0,0.0,0.0,0.0,0.0,0.0,0.0,0.0,0.0,0.0,0.0,0.0,0.0,0.0,0.0,0.0,0.0,0.0,0.0,0.0,0.0,0.0,0.0,0.0,0.0,0.0,0.0,0.0,0.0,0.0,0.0,0.0,0.0,0.0,0.0,0.0,0.0,0.0,0.0,0.0,0.0,0.0,0.0,0.0,0.0,0.0,0.0,0.0,0.0,0.0,0.0,0.0,0.0,0.0,0.0,0.0,0.0,0.0,0.0,0.0,0.0,0.0,0.0,0.0,0.0,0.0,0.0,0.0,0.0,0.0,0.0,0.0,0.0,0.0,0.0,0.0,0.0,0.0,0.0,0.0,0.0,-1.6352,-1.8219,-2.0279,-2.2824,-2.3877,-2.4051,-2.3171,-2.1552,-1.9597,-1.727,0.0,0.0,0.0,0.0,0.0,0.0,0.0,0.0,0.0,0.0,0.0,0.0,0.0,0.0,0.0,0.0,0.0,0.0,0.0,0.0,0.0,0.0,0.0,0.0,0.0,0.0,0.0,0.0,0.0,0.0,0.0,0.0,0.0,0.0,0.0,0.0,0.0,0.0,0.0,0.0,0.0,0.0,0.0,0.0,0.0,0.0,0.0,0.0,0.0,0.0,0.0,0.0,0.0,0.0,0.0,0.0,0.0,0.0,0.0,0.0,0.0,0.0,0.0,0.0,0.0,0.0,0.0,0.0,0.0,0.0,0.0,0.0,0.0,0.0,0.0,0.0,0.0,0.0,0.0,0.0,0.0,0.0,0.0,0.0,0.0,0.0,0.0,0.0,0.0,0.0,0.0,0.0,0.0,0.0,0.0,0.0,0.0,0.0,0.0,0.0,0.0,0.0,-1.6376,-1.8221,-2.0281,-2.2828,-2.3883,-2.4059,-2.318,-2.1557,-1.9856,0.0,0.0,0.0,0.0,0.0,0.0,0.0,0.0,0.0,0.0,0.0,0.0,0.0,0.0,0.0,0.0,0.0,0.0,0.0,0.0,0.0,0.0,0.0,0.0,0.0,0.0,0.0,0.0,0.0,0.0,0.0,0.0,0.0,0.0,0.0,0.0,0.0,0.0,0.0,0.0,0.0,0.0,0.0,0.0,0.0,0.0,0.0,0.0,0.0,0.0,0.0,0.0,0.0,0.0,0.0,0.0,0.0,0.0,0.0,0.0,0.0,0.0,0.0,0.0,0.0,0.0,0.0,0.0,0.0,0.0,0.0,0.0,0.0,0.0,0.0,0.0,0.0,0.0,0.0,0.0,0.0,0.0,0.0,0.0,0.0,0.0,0.0,0.0,0.0,0.0,0.0,0.0,0.0,0.0,0.0,0.0,0.0,0.0,0.0,0.0,0.0,0.0,0.0,-1.7194,-1.86,-2.029,-2.289,-2.3906,-2.4062,-2.3242,-2.1582,-1.9588,-1.7238,0.0,0.0,0.0,0.0,0.0,0.0,0.0,0.0,0.0,0.0,0.0,0.0,0.0,0.0,0.0,0.0,0.0,0.0,0.0,0.0,0.0,0.0,0.0,0.0,0.0,0.0,0.0,0.0,0.0,0.0,0.0,0.0,0.0,0.0,0.0,0.0,0.0,0.0,0.0,0.0,0.0,0.0,0.0,0.0,0.0,0.0,0.0,0.0,0.0,0.0,0.0,0.0,0.0,0.0,0.0,0.0,0.0,0.0,0.0,0.0,0.0,0.0,0.0,0.0,0.0,0.0,0.0,0.0,0.0,0.0,0.0,0.0,0.0,0.0,0.0,0.0,0.0,0.0,0.0,0.0,0.0,0.0,0.0,0.0,0.0,0.0,0.0,0.0,0.0,0.0,0.0,0.0,0.0,0.0,0.0,0.0,0.0,0.0,0.0,0.0,0.0,0.0,-1.7608,-1.9365,-2.1053,-2.2969,-2.4219,-2.4434,-2.3262,-2.1582,-1.9629,-1.7361,0.0,0.0,0.0,0.0,0.0,0.0,0.0,0.0,0.0,0.0,0.0,0.0,0.0,0.0,0.0,0.0,0.0,0.0,0.0,0.0,0.0,0.0,0.0,0.0,0.0,0.0,0.0,0.0,0.0,0.0,0.0,0.0,0.0,0.0,0.0,0.0,0.0,0.0,0.0,0.0,0.0,0.0,0.0,0.0,0.0,0.0,0.0,0.0,0.0,0.0,0.0,0.0,0.0,0.0,0.0,0.0,0.0,0.0,0.0,0.0,0.0,0.0,0.0,0.0,0.0,0.0,0.0,0.0,0.0,0.0,0.0,0.0,0.0,0.0,0.0,0.0,0.0,0.0,0.0,0.0,0.0,0.0,0.0,0.0,0.0,0.0,0.0,0.0,0.0,0.0,0.0,0.0,0.0,0.0,0.0,0.0,0.0,0.0,0.0,0.0,0.0,0.0,-1.7776,-2.0323,-2.2243,-2.3125,-2.4707,-2.498,-2.3242,-2.1641,-1.9941,-1.8125,0.0,0.0,0.0,0.0,0.0,0.0,0.0,0.0,0.0,0.0,0.0,0.0,0.0,0.0,0.0,0.0,0.0,0.0,0.0,0.0,0.0,0.0,0.0,0.0,0.0,0.0,0.0,0.0,0.0,0.0,0.0,0.0,0.0,0.0,0.0,0.0,0.0,0.0,0.0,0.0,0.0,0.0,0.0,0.0,0.0,0.0,0.0,0.0,0.0,0.0,0.0,0.0,0.0,0.0,0.0,0.0,0.0,0.0,0.0,0.0,-1.5268,-1.4355,0.0,0.0,0.0,0.0,0.0,0.0,0.0,0.0,0.0,0.0,0.0,0.0,0.0,0.0,0.0,0.0,0.0,0.0,0.0,0.0,0.0,0.0,0.0,0.0,0.0,0.0,0.0,0.0,0.0,0.0,0.0,0.0,0.0,0.0,0.0,0.0,0.0,0.0,0.0,0.0,-1.8603,-2.0716,-2.2477,-2.3965,-2.5078,-2.498,-2.3242,-2.2187,-2.0586,-1.8144,-1.6035,0.0,0.0,0.0,0.0,0.0,0.0,0.0,0.0,0.0,0.0,0.0,0.0,0.0,0.0,0.0,0.0,0.0,0.0,0.0,0.0,0.0,0.0,0.0,0.0,0.0,0.0,0.0,0.0,0.0,0.0,0.0,0.0,0.0,0.0,0.0,0.0,0.0,0.0,0.0,0.0,0.0,0.0,0.0,0.0,0.0,0.0,0.0,0.0,0.0,0.0,0.0,0.0,0.0,0.0,0.0,0.0,0.0,0.0,0.0,-1.7489,-1.6512,0.0,0.0,0.0,0.0,0.0,0.0,0.0,0.0,0.0,0.0,0.0,0.0,0.0,0.0,0.0,0.0,0.0,0.0,0.0,0.0,0.0,0.0,0.0,0.0,0.0,0.0,0.0,0.0,0.0,0.0,0.0,0.0,0.0,0.0,0.0,0.0,0.0,0.0,0.0,0.0,-1.8957,-2.1188,-2.3007,-2.4277,-2.5176,-2.498,-2.3242,-2.2363,-2.0957,-1.8769,-1.6602,0.0,0.0,0.0,0.0,0.0,0.0,0.0,0.0,0.0,0.0,0.0,0.0,0.0,0.0,0.0,0.0,0.0,0.0,0.0,0.0,0.0,0.0,0.0,0.0,0.0,0.0,0.0,0.0,0.0,0.0,0.0,0.0,0.0,0.0,0.0,0.0,0.0,0.0,0.0,0.0,0.0,0.0,0.0,0.0,0.0,0.0,0.0,0.0,0.0,0.0,0.0,0.0,0.0,-2.0951,-2.0943,-2.0977,-2.1701,-2.212,-2.2124,-1.9807,-1.9103,-1.9448,-1.7905,0.0,0.0,0.0,0.0,0.0,0.0,0.0,0.0,0.0,0.0,0.0,0.0,0.0,0.0,0.0,0.0,0.0,0.0,0.0,0.0,0.0,0.0,-1.7497,-1.8364,-1.9807,-2.0153,-1.7272,0.0,0.0,0.0,0.0,0.0,0.0,0.0,0.0,0.0,0.0,0.0,-1.9505,-2.1894,-2.3711,-2.4531,-2.5273,-2.5059,-2.3457,-2.2598,-2.1387,-1.9648,-1.7363,-1.5879,0.0,0.0,0.0,0.0,0.0,0.0,0.0,0.0,0.0,0.0,0.0,0.0,0.0,0.0,0.0,0.0,0.0,0.0,0.0,0.0,0.0,0.0,0.0,0.0,0.0,0.0,0.0,0.0,0.0,0.0,0.0,0.0,-1.1721,-1.2549,0.0,0.0,0.0,0.0,0.0,0.0,0.0,0.0,0.0,0.0,0.0,0.0,0.0,-2.0286,-2.1274,-2.1298,-2.178,-2.2765,-2.2769,-2.276,-2.2764,-2.2886,-2.3345,-2.3991,-2.2894,0.0,-2.1367,-2.0393,0.0,0.0,0.0,0.0,0.0,0.0,0.0,0.0,0.0,0.0,0.0,0.0,0.0,0.0,0.0,0.0,0.0,0.0,0.0,0.0,0.0,0.0,-2.0211,-2.1087,-2.2029,-2.2624,-2.2172,-2.0198,-1.8303,-1.7613,-1.6166,-1.4773,0.0,0.0,0.0,0.0,0.0,0.0,-2.1244,-2.3124,-2.457,-2.5449,-2.5625,-2.5293,-2.4316,-2.3496,-2.2285,-2.0547,-1.9394,-1.7773,-1.5488,-1.5078,0.0,0.0,0.0,0.0,0.0,0.0,0.0,0.0,0.0,0.0,0.0,0.0,0.0,0.0,0.0,0.0,0.0,0.0,0.0,0.0,0.0,0.0,0.0,0.0,0.0,0.0,0.0,0.0,0.0,-1.2583,-1.3866,-1.4212,-1.4684,-1.4982,0.0,0.0,0.0,0.0,0.0,0.0,0.0,0.0,0.0,-2.0087,-2.1772,-2.3104,-2.3972,-2.4478,-2.5166,-2.6019,-2.6025,-2.603,-2.603,-2.6019,-2.6239,-2.6573,-2.6182,-2.5805,-2.5266,-2.2935,-2.123,-1.9974,0.0,0.0,0.0,0.0,-1.6809,-1.8278,-1.8306,-1.9414,-2.062,-1.938,0.0,0.0,0.0,0.0,0.0,0.0,0.0,-1.6797,-1.8958,-2.0734,-2.2185,-2.3057,-2.3937,-2.4561,-2.4561,-2.3279,-2.1737,-2.0382,-1.8759,-1.7314,-1.6432,-1.5981,0.0,0.0,0.0,-2.0226,-2.2319,-2.3632,-2.4727,-2.5605,-2.5703,-2.5352,-2.4473,-2.4082,-2.3144,-2.1445,-2.0508,-1.9297,-1.7656,-1.6172,-1.4883,0.0,0.0,0.0,0.0,0.0,0.0,0.0,0.0,0.0,0.0,0.0,0.0,0.0,0.0,0.0,0.0,0.0,0.0,0.0,0.0,0.0,0.0,0.0,0.0,0.0,0.0,0.0,0.0,-1.4064,-1.5641,-1.6298,-1.6948,-1.7404,0.0,0.0,0.0,0.0,0.0,0.0,-1.983,-2.1733,-2.2796,-2.2806,-2.4492,-2.5707,-2.6353,-2.7015,-2.7666,-2.8293,-2.8293,-2.8293,-2.8293,-2.8293,-2.8294,-2.8296,-2.8296,-2.8295,-2.8078,-2.526,-2.3714,-2.3047,-2.2168,-2.1461,-2.0859,-2.0219,-2.0906,-2.2179,-2.2225,-2.3198,-2.4247,-2.314,-2.2361,-2.1598,-2.0316,0.0,0.0,0.0,0.0,-1.9743,-2.1633,-2.294,-2.394,-2.4577,-2.5224,-2.5693,-2.5709,-2.5187,-2.4273,-2.2761,-2.1118,-1.9768,-1.9119,-1.8804,0.0,-1.8958,-2.0289,-2.1794,-2.3259,-2.4199,-2.498,-2.5625,-2.5703,-2.5449,-2.4785,-2.4531,-2.3769,-2.2304,-2.1406,-2.0449,-1.9355,-1.7421,-1.6074,-1.541,0.0,0.0,0.0,0.0,0.0,0.0,0.0,0.0,0.0,0.0,0.0,0.0,0.0,0.0,0.0,0.0,0.0,0.0,0.0,0.0,0.0,0.0,0.0,0.0,0.0,0.0,0.0,0.0,0.0,-1.8727,-1.9046,0.0,0.0,0.0,0.0,-2.0308,-2.1107,-2.162,-2.1678,-2.4118,-2.5495,-2.5496,-2.7192,-2.8129,-2.8168,-2.8207,-2.8255,-2.8301,-2.8301,-2.8301,-2.8301,-2.8301,-2.8301,-2.8301,-2.8301,-2.8301,-2.8223,-2.7226,-2.6776,-2.6656,-2.5777,-2.5404,-2.5361,-2.5322,-2.5888,-2.6669,-2.669,-2.7279,-2.777,-2.6051,-2.3863,-2.187,-2.1728,-2.1084,0.0,0.0,-2.1615,-2.2864,-2.3001,-2.4305,-2.559,-2.5629,-2.568,-2.5702,-2.5691,-2.5676,-2.5369,-2.4453,-2.2928,-2.1754,-2.1715,0.0,-2.0755,-2.1576,-2.2479,-2.3379,-2.4238,-2.5098,-2.5644,-2.5703,-2.5703,-2.5684,-2.5644,-2.4877,-2.4011,-2.3096,-2.228,-2.1071,-1.9371,-1.9176,-1.7947,-1.5449,-1.4453,0.0,0.0,0.0,0.0,0.0,0.0,0.0,0.0,0.0,0.0,0.0,0.0,0.0,0.0,0.0,0.0,0.0,0.0,0.0,0.0,0.0,0.0,0.0,0.0,0.0,0.0,0.0,0.0,-2.0694,-2.1366,0.0,-2.2133,-2.2172,-2.2406,-2.2975,-2.3815,-2.4549,-2.5119,-2.6561,-2.7364,-2.737,-2.8511,-2.9139,-2.9139,-2.9686,-2.998,-2.9961,-2.9961,-2.9961,-2.9961,-2.9961,-2.9961,-2.9961,-2.9961,-2.9961,-2.9941,-2.9648,-2.8848,-2.7812,-2.75,-2.7363,-2.7362,-2.7362,-2.7577,-2.7831,-2.7831,-2.8046,-2.8203,-2.7578,-2.6757,-2.5917,-2.5311,-2.494,-2.4726,-2.4726,-2.5156,-2.5742,-2.6308,-2.6483,-2.6541,-2.6541,-2.6113,-2.5703,-2.5702,-2.5702,-2.5605,-2.5293,-2.4297,-2.3515,-2.3515,-2.2792,-2.2499,-2.3378,-2.3769,-2.4277,-2.5131,-2.5502,-2.5698,-2.5702,-2.5702,-2.5701,-2.5697,-2.5418,-2.4631,-2.3181,-2.2828,-2.1911,-2.0217,-1.9597,-1.8605,-1.7103,-1.5663,-1.4375,0.0,0.0,0.0,0.0,0.0,0.0,0.0,0.0,0.0,0.0,0.0,0.0,0.0,0.0,0.0,0.0,0.0,0.0,0.0,0.0,0.0,0.0,0.0,0.0,0.0,-1.9193,-2.1416,-2.2541,-2.3449,-2.4085,-2.4391,-2.469,-2.5083,-2.5671,-2.6251,-2.6827,-2.7418,-2.8276,-2.8743,-2.8743,-2.9863,-3.0488,-3.0488,-3.1328,-3.1738,-3.1738,-3.1738,-3.1738,-3.1738,-3.1738,-3.1738,-3.1738,-3.1738,-3.1738,-3.1738,-3.1738,-3.1055,-2.9961,-2.9394,-2.918,-2.918,-2.918,-2.918,-2.918,-2.918,-2.8984,-2.873,-2.873,-2.8535,-2.8184,-2.7617,-2.7441,-2.7441,-2.7441,-2.7441,-2.7578,-2.8144,-2.7871,-2.7363,-2.707,-2.6562,-2.6055,-2.5762,-2.5703,-2.5703,-2.5702,-2.5234,-2.4844,-2.4842,-2.4353,-2.4178,-2.4744,-2.4842,-2.5055,-2.5631,-2.5705,-2.5703,-2.5707,-2.5707,-2.5705,-2.5696,-2.5417,-2.4612,-2.3192,-2.2819,-2.2023,-2.0625,-2.0009,-1.9177,-1.8012,-1.5992,-1.4527,-1.3653,0.0,0.0,0.0,0.0,0.0,0.0,0.0,0.0,0.0,0.0,0.0,0.0,0.0,0.0,0.0,0.0,0.0,0.0,0.0,0.0,0.0,0.0,0.0,-1.9257,-2.0819,-2.2536,-2.4266,-2.5234,-2.6086,-2.6961,-2.7793,-2.8307,-2.8346,-2.8346,-2.8353,-2.8379,-2.918,-2.9648,-2.9687,-3.1328,-3.2207,-3.2246,-3.3008,-3.3398,-3.3398,-3.3398,-3.3398,-3.3398,-3.3398,-3.3398,-3.3398,-3.3398,-3.3398,-3.3398,-3.3398,-3.3398,-3.3242,-3.1601,-3.0976,-3.0976,-3.0976,-3.0957,-3.0937,-3.0918,-3.0351,-2.9648,-2.9648,-2.9062,-2.8379,-2.8379,-2.8379,-2.8379,-2.8379,-2.8379,-2.8379,-2.8379,-2.8359,-2.8125,-2.7285,-2.7051,-2.6816,-2.5957,-2.5762,-2.5741,-2.575,-2.5719,-2.5702,-2.5691,-2.5707,-2.5705,-2.5705,-2.5705,0.0,-2.5705,-2.5696,-2.5701,-2.5699,-2.5699,-2.5699,-2.5695,-2.486,-2.399,-2.3145,-2.2298,-2.143,-2.0522,-2.0503,-1.9717,-1.8067,-1.5514,-1.3809,-1.2958,0.0,0.0,0.0,0.0,0.0,0.0,0.0,0.0,0.0,0.0,0.0,0.0,0.0,0.0,0.0,0.0,0.0,0.0,0.0,0.0,0.0,-1.9121,-2.0918,-2.1152,-2.2637,-2.4336,-2.6073,-2.65,-2.6983,-2.7854,-2.8168,-2.8564,-2.9198,-2.9237,-2.9511,-3.0156,-3.041,-3.082,-3.1465,-3.1953,-3.248,-3.3066,-3.3281,-3.3398,-3.3398,-3.3398,-3.3398,-3.3398,-3.3398,-3.3398,-3.3398,-3.3398,-3.3398,-3.3398,-3.3398,-3.3398,-3.3359,-3.2891,-3.2715,-3.2715,-3.2715,-3.2344,-3.1758,-3.1113,-3.0742,-3.0547,-3.0547,-3.0371,-3.0195,-3.0195,-3.0195,-3.0195,-3.0195,-3.0195,-3.0195,-3.0195,-2.9726,-2.918,-2.8945,-2.8398,-2.7871,-2.7648,-2.708,-2.6631,-2.6646,-2.6127,-2.5693,-2.5705,-2.569,-2.5694,-2.5694,-2.5703,-2.5675,-2.5628,-2.5619,-2.5639,-2.5639,-2.5639,-2.561,-2.5571,-2.5327,-2.4533,-2.3054,-2.2738,-2.1948,-2.0497,-2.0439,-1.9939,-1.889,-1.7543,-1.6742,0.0,0.0,0.0,0.0,0.0,0.0,0.0,0.0,0.0,0.0,0.0,0.0,0.0,0.0,0.0,0.0,0.0,0.0,0.0,0.0,0.0,0.0,-2.2266,-2.375,-2.4473,-2.5117,-2.5996,-2.7383,-2.7871,-2.8299,-2.8804,-2.9175,-2.9743,-3.0625,-3.0684,-3.1055,-3.1894,-3.1953,-3.2187,-3.2695,-3.3066,-3.3476,-3.3945,-3.4316,-3.4492,-3.4492,-3.4492,-3.4492,-3.4492,-3.4492,-3.4492,-3.4492,-3.4492,-3.4492,-3.4492,-3.4492,-3.4492,-3.4414,0.0,0.0,0.0,0.0,-3.3105,-3.2637,-3.2129,-3.1953,-3.1953,-3.1953,-3.1953,-3.1875,-3.1543,-3.1445,-3.1367,-3.0996,-3.0898,-3.0898,-3.0898,-3.0527,-3.0058,-2.9685,-2.9215,-2.8744,-2.8381,-2.7881,-2.7384,-2.7033,-2.656,0.0,-2.5687,-2.5636,-2.5658,-2.561,-2.562,-2.5604,-2.5562,-2.5562,-2.5562,-2.5562,-2.5562,-2.555,-2.5499,-2.5163,0.0,0.0,0.0,-2.1746,-2.0402,-2.002,0.0,0.0,0.0,0.0,0.0,-1.7868,0.0,0.0,-1.5097,-1.547,0.0,0.0,0.0,0.0,0.0,0.0,0.0,0.0,0.0,0.0,0.0,0.0,0.0,0.0,0.0,0.0,-2.5352,-2.6562,-2.8223,-2.7773,-2.7578,-2.8359,-2.9121,-2.9648,-2.9746,-3.0547,-3.1367,-3.2148,-3.2285,-3.2656,-3.3359,-3.3398,0.0,0.0,0.0,-3.4746,-3.4844,-3.5605,-3.5996,-3.5996,-3.5996,-3.5996,-3.5996,-3.5996,-3.5996,-3.5996,-3.5996,-3.5996,-3.5996,-3.5996,-3.5996,-3.5859,-3.4297,-3.3691,-3.3672,-3.3574,-3.3555,-3.3535,-3.3437,0.0,0.0,-3.3398,-3.3398,-3.3262,-3.2559,-3.2266,-3.2031,-3.1269,-3.0976,-3.0898,-3.0898,-3.0898,-3.0702,-2.9927,-2.9743,-2.9525,-2.8742,-2.8459,-2.8111,-2.7328,-2.7015,-2.6623,-2.5783,-2.5607,-2.5579,-2.5517,-2.5492,-2.5499,-2.5492,-2.5485,-2.5498,-2.5488,-2.5488,0.0,-2.5484,-2.4791,-2.4292,-2.4196,-2.2655,-2.1381,-2.0611,-1.9896,-1.9521,-1.9521,-1.8778,-1.8385,-1.8388,-1.8388,-1.8774,-1.9509,-1.85,-1.8139,0.0,0.0,0.0,0.0,0.0,0.0,0.0,0.0,0.0,0.0,0.0,0.0,0.0,0.0,0.0,-2.5098,-2.6777,-2.8164,-2.9199,-2.9199,-2.916,-2.9336,-2.9492,-2.9883,-3.0586,-3.1445,-3.2012,-3.2187,-3.2793,-3.3242,-3.3398,-3.3398,-3.3711,-3.4434,-3.4609,-3.5039,-3.5742,-3.5918,-3.5996,-3.5996,-3.5996,0.0,-3.5996,-3.5996,-3.5996,-3.5996,-3.5996,-3.5996,-3.5996,-3.5996,-3.5996,-3.5976,-3.5625,-3.5508,-3.541,-3.4707,-3.4453,-3.4355,-3.3633,-3.3398,-3.3398,-3.3398,-3.3398,-3.3379,-3.3223,-3.2715,0.0,-3.1992,-3.1445,-3.0898,-3.0909,-3.0905,-3.0845,-3.0626,-3.0567,-3.052,-3.0351,-2.9741,-2.9187,-2.8955,-2.777,-2.6734,-2.6502,-2.5945,-2.5518,-2.5498,-2.5503,-2.5488,-2.5426,-2.5418,-2.541,-2.5412,-2.5432,-2.5423,-2.5416,-2.5262,-2.4859,-2.4167,-2.3135,-2.2488,-2.2323,-2.2219,-2.2176,-2.2176,-2.2002,-2.1905,-2.1898,-2.1903,-2.1991,-2.2107,-1.9898,-1.9609,0.0,0.0,0.0,0.0,0.0,0.0,0.0,0.0,0.0,0.0,0.0,-2.0098,-2.2676,0.0,-2.5625,-2.7363,-2.8379,-2.9258,-3.0137,-3.0254,-3.0254,-3.0254,-3.0254,-3.0586,-3.1465,-3.1934,-3.2559,-3.3398,-3.3828,-3.4238,-3.4687,-3.4707,-3.4902,-3.5332,-3.5351,-3.5566,-3.5996,-3.5996,-3.5996,-3.5996,-3.5996,-3.5996,-3.5996,-3.5996,-3.5996,-3.5996,-3.5996,-3.5996,-3.5996,-3.5996,-3.5996,-3.5996,-3.5996,-3.5996,-3.5957,-3.5508,-3.5351,-3.5293,-3.4844,-3.4706,-3.47,-3.47,-3.47,-3.4622,-3.4173,-3.3763,-3.3275,-3.2397,-3.1831,-3.14,-3.096,-3.0849,-3.0833,-3.081,-3.0765,-3.0748,-3.0749,-3.038,-2.9906,-2.9435,-2.8609,-2.7705,-2.6813,-2.6318,-2.5909,-2.5498,-2.5451,-2.5434,-2.5369,-2.535,-2.534,-2.5351,-2.5351,-2.5341,-2.5351,-2.5351,-2.4985,-2.4149,-2.3696,-2.3253,-2.281,-2.2827,-2.2855,-2.2855,-2.2855,-2.2855,-2.2855,-2.2846,-2.3077,-2.3463,-2.2199,-2.1855,0.0,0.0,0.0,0.0,0.0,0.0,0.0,0.0,-2.0488,-2.1191,-2.2715,-2.4394,-2.5918,-2.6914,-2.7969,-2.9375,-2.9746,-3.0098,-3.0801,-3.0898,-3.0898,-3.0898,-3.0898,-3.123,-3.2129,-3.2344,-3.3066,-3.459,-3.4863,-3.5254,-3.5957,-3.5996,-3.5996,-3.5996,-3.5996,-3.5996,-3.5996,-3.5996,-3.5996,-3.5996,-3.5996,-3.5996,-3.5996,-3.5996,-3.5996,-3.5996,-3.5996,-3.5996,-3.5996,-3.5996,-3.5996,-3.5996,-3.5996,-3.5995,-3.5993,-3.5995,-3.5996,-3.5996,-3.5996,-3.5991,-3.5991,-3.6004,-3.5981,-3.5845,-3.5158,-3.4804,-3.4394,-3.2973,-3.2349,-3.1942,-3.1217,-3.0919,-3.0789,-3.0773,-3.073,-3.0685,-3.0656,-3.0614,-3.0369,-2.9641,-2.9342,-2.8705,-2.7123,-2.6708,-2.6323,-2.5505,-2.5389,-2.5361,-2.5313,-2.5303,-2.5303,-2.5303,-2.5303,-2.5303,-2.5303,-2.5303,-2.5024,-2.4379,-2.4341,-2.4024,-2.3312,-2.3293,-2.3293,-2.3293,-2.3293,-2.3293,-2.3293,-2.3293,-2.3639,-2.4341,-2.434,-2.3989,-1.5927,-1.7264,-1.8672,-1.9629,-2.0527,-2.0996,0.0,0.0,-2.3867,-2.3945,-2.5352,-2.6875,-2.7832,-2.8711,-2.9375,-2.957,-3.0254,-3.0781,-3.0898,-3.0898,-3.0898,-3.0898,-3.0898,-3.123,-3.2129,-3.2851,-3.3652,-3.4629,-3.543,-3.5898,-3.5996,-3.5996,-3.5996,-3.5996,-3.5996,-3.5996,-3.5996,-3.5996,-3.5996,-3.5996,-3.5996,-3.5996,-3.5996,-3.5996,-3.5996,-3.5996,-3.5996,-3.5996,-3.5996,-3.5996,-3.5996,-3.5996,-3.6005,-3.6001,-3.5992,-3.6007,-3.6005,-3.5992,-3.5992,-3.6005,-3.6007,-3.5992,-3.5958,-3.5894,-3.5807,-3.523,-3.4568,-3.4374,-3.3251,-3.2063,-3.1915,-3.1281,-3.0704,-3.0704,-3.0664,-3.0595,-3.0528,-3.0511,-3.0462,-3.0304,-2.9696,-2.8895,-2.792,-2.7101,-2.6313,-2.5447,-2.5313,-2.5313,-2.5303,-2.5303,-2.5303,-2.5303,-2.5303,-2.5303,-2.5303,-2.5303,-2.5264,-2.5168,-2.5178,-2.5111,-2.5014,-2.5014,-2.5014,-2.5014,-2.5014,-2.5014,-2.5014,-2.5014,-2.5072,-2.5178,-2.5178,-2.5159,-1.9415,-2.0561,-2.1601,0.0,-2.2715,-2.3398,-2.3535,-2.4785,-2.6055,-2.6562,-2.7656,-2.8613,-2.8984,-2.9766,-3.0351,0.0,-3.1094,-3.1484,-3.0976,-3.1348,-3.1465,-3.0957,-3.0898,-3.1426,-3.2773,-3.3203,-3.3965,-3.5351,-3.5781,-3.5996,-3.5996,-3.5996,-3.5996,-3.5996,-3.5996,-3.5996,-3.5996,-3.5996,-3.5996,-3.5996,-3.5996,-3.5996,-3.5996,-3.5996,-3.5996,-3.5996,-3.5996,-3.5996,-3.5996,-3.5996,-3.5995,-3.6005,-3.5997,-3.5992,-3.6007,-3.6009,-3.5978,-3.5935,-3.5935,-3.5938,-3.5947,-3.5943,-3.5905,-3.5845,-3.585,-3.5554,-3.5122,-3.4637,-3.3608,-3.2567,-3.2066,-3.1301,-3.0634,-3.0582,-3.0557,-3.053,-3.0462,-3.0441,-3.0439,-3.0414,-3.0133,-2.9613,-2.8747,-2.7909,-2.7063,-2.6197,-2.561,-2.5303,-2.5303,-2.5303,-2.5303,-2.5303,-2.5303,-2.5303,-2.5303,-2.5303,-2.5303,-2.5303,-2.5303,-2.5303,-2.5303,-2.5303,-2.5303,-2.5303,-2.5303,-2.5303,-2.5303,-2.5303,-2.5303,-2.5303,-2.5303,-2.5313,-2.2171,0.0,0.0,-2.3769,-2.4473,-2.5273,-2.5918,-2.6914,-2.7891,-2.8535,-2.9355,-2.9961,-2.9961,-3.0469,-3.0898,-3.0898,-3.1621,-3.1973,-3.1348,-3.1797,-3.1973,-3.1328,-3.1055,-3.1562,-3.3242,-3.3398,-3.4121,-3.5879,-3.5996,-3.5996,-3.5996,-3.5996,-3.5996,-3.5996,-3.5996,-3.6113,-3.6367,-3.6367,-3.6484,-3.6719,-3.6719,-3.6582,-3.6348,-3.6113,-3.5996,-3.5996,-3.5995,-3.5994,-3.5994,-3.5994,-3.6009,-3.6007,-3.5987,-3.5972,-3.5972,-3.5958,-3.5933,-3.5903,-3.5878,-3.5872,-3.5869,-3.5842,-3.5818,-3.5765,-3.5736,-3.5718,-3.5553,-3.4904,-3.3936,-3.2967,-3.2377,-3.1419,-3.0568,-3.0492,-3.0472,-3.046,-3.0417,-3.0406,-3.0394,-3.041,-3.0398,-3.0121,-2.9256,-2.8621,-2.7852,-2.6755,-2.6063,-2.5572,-2.5322,-2.5303,-2.5303,-2.5303,-2.5303,-2.5303,-2.5303,-2.5303,-2.5303,-2.5303,-2.5303,-2.5303,-2.5303,-2.5303,-2.5303,-2.5303,-2.5303,-2.5303,-2.5303,-2.5303,-2.5303,-2.5303,-2.5303,-2.5303,0.0,0.0,-2.456,-2.5406,-2.6288,-2.6934,-2.6953,-2.8281,-2.9531,-2.9551,-3.0254,-3.0859,-3.0859,-3.0879,-3.0898,-3.0898,-3.1621,-3.2187,-3.2168,-3.2187,-3.2187,-3.2168,-3.1406,-3.1562,-3.3242,-3.3398,-3.4121,-3.5879,-3.5996,-3.5996,-3.5996,-3.5996,-3.5996,-3.5996,-3.5996,-3.6406,-3.7246,-3.7266,-3.7676,-3.8516,-3.8516,-3.8086,-3.7226,-3.6387,-3.5996,-3.5996,-3.6005,-3.5994,-3.5994,-3.5994,-3.5994,-3.5988,-3.5929,-3.5905,-3.5903,-3.5818,-3.584,-3.5885,-3.5833,-3.5799,-3.5791,-3.5735,-3.5689,-3.5688,-3.5618,-3.5588,-3.5588,-3.5568,-3.4369,-3.3082,-3.3062,-3.1795,-3.0481,-3.0409,-3.0398,-3.0406,-3.039,-3.041,-3.041,-3.0398,-3.0398,-3.0121,-2.9256,-2.9083,-2.8506,-2.6851,-2.6582,-2.6255,-2.5399,-2.5303,-2.5303,-2.5303,-2.5303,-2.5303,-2.5303,-2.5303,-2.5303,-2.5303,-2.5303,-2.5303,-2.5303,-2.5303,-2.5303,-2.5303,-2.5303,-2.5303,-2.5303,-2.5303,-2.5303,-2.5303,-2.5303,-2.5303,-2.4785,0.0,-2.6133,-2.6423,-2.7188,-2.8014,-2.859,-2.9178,-2.9608,-2.9609,-2.9824,-2.9863,-2.9277,-2.9648,-3.0039,-3.0039,-3.1699,-3.2812,-3.2285,-3.3164,-3.3633,-3.3066,-3.2734,-3.3008,-3.4141,-3.373,-3.4121,-3.5879,-3.5996,-3.5996,-3.5996,-3.5996,-3.5996,-3.5996,-3.6562,-3.6992,-3.7305,-3.7871,-3.8301,-3.8594,-3.8594,-3.8144,-3.7285,-3.6992,-3.6541,-3.6003,-3.5994,-3.5992,-3.5992,-3.5953,-3.5924,-3.5936,-3.5917,-3.5862,-3.5771,-3.5736,-3.5718,-3.5699,-3.5727,-3.5699,-3.5658,-3.5648,-3.5604,-3.5558,-3.5546,-3.554,-3.5534,-3.5534,-3.4282,-3.2972,-3.296,-3.1707,-3.0425,-3.0402,-3.0402,-3.0402,-3.041,-3.0398,-3.0398,-3.0398,-3.0398,-3.0302,-3.0006,-2.9486,-2.8525,-2.6851,-2.612,-2.563,-2.5341,-2.5303,-2.5303,-2.5303,-2.5303,-2.5303,-2.5303,-2.5303,-2.5303,-2.5303,-2.5303,-2.5303,-2.5303,-2.5303,-2.5303,-2.5303,-2.5303,-2.5303,-2.5303,-2.5303,-2.5303,-2.5303,-2.5303,-2.5303,-2.5718,-2.6637,-2.7333,-2.7336,-2.803,-2.8883,-2.945,-2.9554,-2.9562,-2.9567,-2.9335,-2.8964,-2.8398,-2.8769,-2.9238,-2.9551,-3.1504,-3.2891,-3.2656,-3.3828,-3.4492,-3.3926,-3.3594,-3.373,-3.4629,-3.4199,-3.4453,-3.5898,-3.5996,-3.5996,-3.5996,-3.5996,-3.6133,-3.6445,-3.7012,-3.7598,-3.8223,-3.8789,-3.9218,-3.9489,-3.9196,-3.8767,-3.8202,-3.7577,-3.6986,-3.644,-3.6133,-3.5992,-3.5955,-3.5891,-3.5866,-3.5862,-3.584,-3.5766,-3.566,-3.5667,-3.5612,-3.5577,-3.5643,-3.5612,-3.5546,-3.5546,-3.5528,-3.5509,-3.5509,-3.5501,-3.5493,-3.5493,-3.4468,-3.3295,-3.2987,-3.1891,-3.0794,-3.0456,-3.0398,-3.0398,-3.0398,-3.0398,-3.0398,-3.0398,-3.0398,-3.0398,-3.0398,-2.9679,-2.8717,-2.7659,-2.6505,-2.5649,-2.5341,-2.5303,-2.5303,-2.5303,-2.5303,-2.5303,-2.5303,-2.5303,-2.5303,-2.5303,-2.5303,-2.5303,-2.5303,-2.5303,-2.5303,-2.5303,-2.5303,-2.5303,-2.5303,-2.5303,-2.5303,-2.5303,-2.5303,-2.5303,-2.6591,-2.7496,-2.8159,-2.8152,-2.8855,-2.9547,-2.9494,-2.9496,-2.9478,-2.9374,-2.8761,-2.822,-2.8164,0.0,-2.8516,-2.9394,-3.1035,-3.248,-3.3281,-3.4199,-3.4766,0.0,0.0,0.0,0.0,0.0,-3.5195,-3.6074,-3.6094,-3.6094,-3.6133,-3.6133,-3.6504,-3.7344,-3.7402,-3.8223,-3.9883,-3.9941,-4.0348,-4.1088,-4.0327,-3.9942,-3.9836,-3.8176,-3.7389,-3.7237,-3.6411,-3.5986,-3.5872,-3.5826,-3.5795,-3.5782,-3.5708,-3.5648,-3.5596,-3.5596,-3.556,-3.5515,-3.556,-3.5547,-3.5502,-3.5502,-3.5495,-3.5493,-3.5493,-3.5493,-3.5493,-3.5493,-3.4872,-3.4007,-3.3179,-3.2372,-3.1545,-3.0679,-3.0456,-3.0436,-3.0398,-3.0398,-3.0398,-3.0398,-3.0398,-3.0398,-3.0398,-2.9717,-2.914,-2.9102,-2.7717,-2.6351,-2.5476,-2.5322,-2.5303,-2.5303,-2.5303,-2.5303,-2.5303,-2.5303,-2.5303,-2.5303,-2.5303,-2.5303,-2.5303,-2.5303,-2.5303,-2.5303,-2.5303,-2.5303,-2.5303,-2.5303,-2.5303,-2.5303,-2.5303,-2.5303,-2.7383,-2.8287,-2.8988,-2.8993,-2.9656,-3.0159,-2.957,-2.9427,-2.9065,-2.7826,-2.7398,-2.7077,-2.6475,-2.6893,0.0,-2.8496,-3.0644,0.0,-3.3281,-3.4707,0.0,-3.5664,0.0,-3.5684,-3.6543,-3.6641,-3.6992,-3.7871,-3.7344,-3.7246,-3.7891,-3.7949,-3.8047,-3.8262,-3.8906,-3.9453,-3.9902,-4.0482,-4.0909,-4.1095,-4.0881,-4.0452,-3.9814,-3.9365,-3.8433,-3.7151,-3.6922,-3.6406,-3.5752,-3.5726,-3.5699,-3.5657,-3.5635,-3.557,-3.5521,-3.5528,-3.5522,-3.5501,-3.5534,-3.5501,-3.5501,-3.5501,-3.5507,-3.5493,-3.5493,-3.5493,-3.5493,-3.5493,-3.4872,-3.4141,-3.393,-3.3237,-3.2391,-3.1564,-3.1371,-3.1198,-3.0533,-3.0398,-3.0398,-3.0398,-3.0398,-3.0398,-3.0398,-3.0217,-2.9852,-2.9198,-2.8217,-2.7255,-2.639,-2.5687,-2.5303,-2.5303,-2.5303,-2.5303,-2.5303,-2.5303,-2.5303,-2.5303,-2.5303,-2.5303,-2.5303,-2.5303,-2.5303,-2.5303,-2.5303,-2.5303,-2.5303,-2.5303,-2.5303,-2.5303,-2.5303,-2.5303,-2.8231,-2.912,-2.9835,-2.9825,-2.991,-2.9879,-2.9427,-2.8461,-2.7427,-2.6491,-2.573,0.0,-2.5139,-2.5522,0.0,0.0,0.0,0.0,-3.3184,-3.457,-3.5566,0.0,-3.6348,0.0,-3.7246,-3.7656,-3.8223,-3.9101,-3.8359,-3.8086,-3.8574,-3.8594,-3.8789,-3.916,-3.9648,-4.0078,-4.0425,-4.0867,-4.1111,-4.1103,-4.1064,-4.0805,-4.0318,-3.9935,-3.8979,-3.7611,-3.7208,-3.6512,-3.565,-3.5658,-3.5623,-3.5565,-3.556,-3.5534,-3.5495,-3.5495,-3.5501,-3.5493,-3.5493,-3.5493,-3.5493,-3.5493,-3.5493,-3.5493,-3.5493,-3.5493,-3.5493,-3.5493,-3.5161,-3.468,-3.4295,-3.3833,-3.316,-3.1987,-3.1698,-3.1468,-3.059,-3.0398,-3.0398,-3.0398,-3.0398,-3.0398,-3.0398,-3.0398,-3.0237,-2.9737,-2.8948,-2.8121,-2.7274,-2.6082,-2.5303,-2.5303,-2.5303,-2.5303,-2.5303,-2.5303,-2.5303,-2.5303,-2.5303,-2.5303,-2.5303,-2.5303,-2.5303,-2.5303,-2.5303,-2.5303,-2.5303,-2.5303,-2.5303,-2.5303,-2.5303,-2.5303,-2.8953,-2.9811,-3.0449,-3.0334,-2.9737,-2.9101,-2.8763,-2.7028,-2.5395,-2.5065,0.0,-2.3293,-2.3942,-2.4249,-2.5174,-2.7578,0.0,-3.041,-3.2734,-3.4004,-3.498,-3.5742,-3.6699,-3.7344,-3.7461,-3.8262,-3.9121,-4.0019,-3.9375,-3.8945,-3.8945,-3.8945,-3.9296,-4.0039,-4.0058,-4.0386,-4.1088,-4.11,-4.1097,-4.1089,-4.1013,-4.0972,-4.0953,-4.0182,-3.9274,-3.8219,-3.7473,-3.655,-3.5585,-3.5596,-3.5547,-3.5502,-3.5501,-3.5493,-3.5493,-3.5493,-3.5493,-3.5493,-3.5493,-3.5493,-3.5493,-3.5493,-3.5493,-3.5493,-3.5493,-3.5493,-3.5493,-3.5493,-3.5493,-3.5334,-3.4564,-3.4372,-3.3949,-3.2256,-3.1852,-3.1583,-3.0609,-3.0398,-3.0398,-3.0398,-3.0398,-3.0398,-3.0398,-3.0398,-3.0398,-3.0398,-2.966,-2.8813,-2.8005,-2.6486,-2.5418,-2.5303,-2.5303,-2.5303,-2.5303,-2.5303,-2.5303,-2.5303,-2.5303,-2.5303,-2.5303,-2.5303,-2.5303,-2.5303,-2.5303,-2.5303,-2.5303,-2.5303,-2.5303,-2.5303,-2.5303,-2.5303,-2.8901,-2.9748,-3.0248,-2.9528,-2.922,-2.8576,-2.6535,-2.5732,0.0,0.0,-2.276,-2.2929,-2.2363,-2.3425,-2.4783,-2.5957,0.0,0.0,0.0,0.0,-3.4766,0.0,0.0,-3.7578,-3.8301,-3.916,-4.0039,-4.0918,-4.082,-4.0742,-4.0742,-4.0755,-4.0784,-4.0882,-4.0882,-4.0957,-4.1108,-4.11,-4.1071,-4.1015,-4.0941,-4.0887,-4.0829,-4.0671,-3.9696,-3.8129,-3.7974,-3.7011,-3.5509,-3.5528,-3.5509,-3.5488,-3.5507,-3.5493,-3.5493,-3.5493,-3.5493,-3.5493,-3.5493,-3.5493,-3.5493,-3.5493,-3.5493,-3.5493,-3.5493,-3.5493,-3.5493,-3.5493,-3.5493,-3.5468,-3.5315,-3.5276,-3.4853,-3.3103,-3.2699,-3.2275,-3.0737,-3.0398,-3.0398,-3.0398,-3.0398,-3.0398,-3.0398,-3.0398,-3.0398,-3.0398,-2.966,-2.8813,-2.8005,-2.7005,-2.6101,-2.538,-2.5303,-2.5303,-2.5303,-2.5303,-2.5303,-2.5303,-2.5303,-2.5303,-2.5303,-2.5303,-2.5303,-2.5303,-2.5303,-2.5303,-2.5303,-2.5303,-2.5303,-2.5303,-2.5303,-2.5303,-2.8756,-2.9102,-2.9102,-2.9102,-2.8429,-2.7381,-2.5774,0.0,0.0,0.0,-2.0681,-2.0542,-2.1029,0.0,0.0,0.0,0.0,0.0,0.0,0.0,0.0,0.0,0.0,-3.7637,0.0,-3.9394,-4.0254,-4.1133,-4.1208,-4.1207,-4.1191,-4.1162,-4.114,-4.1096,-4.1096,-4.1072,-4.1042,-4.1045,-4.0991,-4.0888,-4.0859,-4.0807,-4.0738,-4.0275,-3.9348,-3.8061,-3.7617,-3.6685,-3.5495,-3.5495,-3.5501,-3.5493,-3.5493,-3.5493,-3.5493,-3.5493,-3.5493,-3.5493,-3.5493,-3.5493,-3.5493,-3.5493,-3.5493,-3.5493,-3.5493,-3.5493,-3.5493,-3.5493,-3.5493,-3.5493,-3.5493,-3.5161,-3.4507,-3.3218,-3.2237,-3.1391,-3.0571,-3.0398,-3.0398,-3.0398,-3.0398,-3.0398,-3.0398,-3.0398,-3.0398,-3.0398,-3.0044,-2.9467,-2.8621,-2.7794,-2.6774,-2.5437,-2.5303,-2.5303,-2.5303,-2.5303,-2.5303,-2.5303,-2.5303,-2.5303,-2.5303,-2.5303,-2.5303,-2.5303,-2.5303,-2.5303,-2.5303,-2.5303,-2.5303,-2.5303,-2.5303,-2.5303,-2.8209,-2.8247,-2.8016,-2.8469,-2.7613,-2.6323,-2.5157,-2.3192,0.0,0.0,-1.8831,-1.828,-1.9464,0.0,0.0,0.0,0.0,0.0,0.0,0.0,0.0,0.0,0.0,0.0,-3.8242,-3.9277,-4.0176,-4.0878,-4.1077,-4.1169,-4.117,-4.1136,-4.1007,-4.0824,-4.0786,-4.0655,-4.042,-4.0421,-4.0344,-4.0236,-4.0239,-4.0198,-4.0113,-3.943,-3.8632,-3.7756,-3.7082,-3.6285,-3.5493,-3.5493,-3.5493,-3.5493,-3.5493,-3.5493,-3.5493,-3.5493,-3.5493,-3.5493,-3.5493,-3.5493,-3.5493,-3.5493,-3.5493,-3.5493,-3.5493,-3.5493,-3.5493,-3.5493,-3.5493,-3.5493,-3.5493,-3.4853,-3.393,-3.2891,-3.1487,-3.0398,-3.0398,-3.0398,-3.0398,-3.0398,-3.0398,-3.0398,-3.0398,-3.0398,-3.0398,-3.0398,-3.0398,-3.0102,-2.9198,-2.8544,-2.7486,-2.5774,-2.5399,-2.5303,-2.5303,-2.5303,-2.5303,-2.5303,-2.5303,-2.5303,-2.5303,-2.5303,-2.5303,-2.5303,-2.5303,-2.5303,-2.5303,-2.5303,-2.5303,-2.5303,-2.5303,-2.5303,-2.6795,-2.7344,-2.7739,-2.7074,-2.6803,-2.6078,-2.3753,0.0,0.0,-1.8628,-1.8063,-1.7796,-1.717,-1.9062,0.0,0.0,0.0,-2.6269,0.0,0.0,0.0,0.0,0.0,0.0,-3.7324,-3.8926,-3.992,-4.0001,-4.0701,-4.1106,-4.1111,-4.1105,-4.0749,-3.9934,-3.9804,-3.9357,-3.8555,-3.8491,-3.8449,-3.8435,-3.8382,-3.8331,-3.8329,-3.819,-3.7656,-3.6815,-3.6738,-3.6257,-3.5493,-3.5493,-3.5493,-3.5493,-3.5493,-3.5493,-3.5493,-3.5493,-3.5493,-3.5493,-3.5493,-3.5493,-3.5493,-3.5493,-3.5493,-3.5493,-3.5493,-3.5493,-3.5493,-3.5493,-3.5493,-3.5493,-3.5493,-3.4853,-3.3795,-3.2199,-3.1102,-3.0398,-3.0398,-3.0398,-3.0398,-3.0398,-3.0398,-3.0398,-3.0398,-3.0398,-3.0398,-3.0398,-3.0398,-3.0102,-2.9198,-2.9044,-2.8352,-2.6659,-2.5764,-2.5303,-2.5303,-2.5303,-2.5303,-2.5303,-2.5303,-2.5303,-2.5303,-2.5303,-2.5303,-2.5303,-2.5303,-2.5303,-2.5303,-2.5303,-2.5303,-2.5303,-2.5303,-2.5303,-2.6391,-2.6535,-2.6446,-2.6644,-2.5936,-2.4803,-2.3346,0.0,-1.9778,-1.8266,-1.7151,-1.6487,-1.6664,-1.8412,-1.9999,-2.0508,-2.3477,-2.582,-2.6172,0.0,0.0,0.0,-3.3864,0.0,0.0,-3.7628,-3.8543,-3.9081,-3.937,-3.9544,-3.9535,-4.0031,-4.0137,-3.975,-3.9146,-3.8636,-3.8249,-3.8205,-3.8175,-3.8144,-3.8105,-3.8078,-3.8017,-3.7469,-3.7026,-3.668,-3.6199,-3.5815,-3.5493,-3.5493,-3.5493,-3.5493,-3.5493,-3.5493,-3.5493,-3.5493,-3.5493,-3.5493,-3.5493,-3.5493,-3.5493,-3.5493,-3.5493,-3.5493,-3.5493,-3.5493,-3.5493,-3.5493,-3.5493,-3.5391,-3.4853,-3.3718,-3.2391,-3.1198,-3.0648,-3.0398,-3.0398,-3.0398,-3.0398,-3.0398,-3.0398,-3.0398,-3.0398,-3.0398,-3.0398,-3.0398,-3.0398,-3.0275,-2.9929,-2.941,-2.8659,-2.7505,-2.6601,-2.587,-2.5341,-2.5303,-2.5303,-2.5303,-2.5303,-2.5303,-2.5303,-2.5303,-2.5303,-2.5303,-2.5303,-2.5303,-2.5303,-2.5303,-2.5303,-2.5303,-2.5303,-2.5303,-2.5164,-2.5123,-2.4819,-2.5444,-2.4723,-2.3631,0.0,-2.0861,-1.8967,-1.8173,-1.6618,-1.5598,-1.6207,-1.7734,-1.9121,-1.9727,-2.2695,-2.5019,-2.5273,-2.8105,0.0,0.0,0.0,-3.4664,-3.5522,-3.6629,-3.7617,-3.8487,-3.8505,-3.8468,-3.8447,-3.8782,-3.896,-3.8898,-3.8229,-3.7713,-3.7406,-3.7397,-3.7372,-3.7319,-3.7319,-3.7305,-3.7238,-3.6622,-3.6353,-3.6315,-3.5757,-3.5493,-3.5493,-3.5493,-3.5493,-3.5493,-3.5493,-3.5493,-3.5493,-3.5493,-3.5493,-3.5493,-3.5493,-3.5493,-3.5493,-3.5493,-3.5493,-3.5493,-3.5493,-3.5493,-3.5493,-3.5493,-3.5315,-3.4853,-3.3757,-3.2583,-3.1487,-3.0609,-3.0398,-3.0398,-3.0398,-3.0398,-3.0398,-3.0398,-3.0398,-3.0398,-3.0398,-3.0398,-3.0398,-3.0398,-3.0398,-3.0398,-3.0398,-2.9871,-2.9083,-2.8005,-2.7351,-2.6524,-2.5399,-2.5303,-2.5303,-2.5303,-2.5303,-2.5303,-2.5303,-2.5303,-2.5303,-2.5303,-2.5303,-2.5303,-2.5303,-2.5303,-2.5303,-2.5303,-2.5303,-2.5303,-2.2709,-2.2936,-2.2946,-2.3015,-2.3026,-2.2809,0.0,-2.0464,-1.8965,-1.8172,-1.6605,-1.5405,-1.541,-1.6836,-1.8027,-1.8027,-2.0898,-2.3437,-2.4297,-2.6672,0.0,0.0,0.0,-3.3763,-3.4625,-3.6211,-3.7539,-3.833,-3.8397,-3.8363,-3.8316,-3.7492,-3.7036,-3.7027,-3.6891,-3.6389,-3.5534,-3.552,-3.5526,-3.5545,-3.5545,-3.5545,-3.5545,-3.5526,-3.5512,-3.5512,-3.5493,-3.5493,-3.5493,-3.5493,-3.5493,-3.5493,-3.5493,-3.5493,-3.5493,-3.5493,-3.5493,-3.5493,-3.5493,-3.5493,-3.5493,-3.5493,-3.5493,-3.5493,-3.5493,-3.5493,-3.5493,-3.5493,-3.4872,-3.3833,-3.216,-3.1718,-3.1487,-3.0609,-3.0398,-3.0398,-3.0398,-3.0398,-3.0398,-3.0398,-3.0398,-3.0398,-3.0398,-3.0398,-3.0398,-3.0398,-3.0398,-3.0398,-3.0398,-3.0379,-2.9756,-2.8082,-2.789,-2.7178,-2.5437,-2.5303,-2.5303,-2.5303,-2.5303,-2.5303,-2.5303,-2.5303,-2.5303,-2.5303,-2.5303,-2.5303,-2.5303,-2.5303,-2.5303,-2.5303,-2.5303,-2.5303,-2.177,-2.2474,-2.2966,-2.299,-2.2133,-2.1216,-2.0967,-1.9149,-1.7428,-1.7155,-1.6204,-1.5407,-1.5391,-1.6816,-1.8008,-1.8008,-2.0879,0.0,0.0,0.0,0.0,-2.9067,-3.1607,-3.3916,-3.5391,-3.5963,-3.6355,-3.6592,-3.658,-3.6532,-3.6463,-3.6195,-3.6319,-3.6903,-3.6272,-3.5785,-3.5515,-3.5501,-3.5493,-3.5493,-3.5493,-3.5493,-3.5493,-3.5493,-3.5493,-3.5493,-3.5493,-3.5493,-3.5493,-3.5493,-3.5493,-3.5493,-3.5493,-3.5493,-3.5493,-3.5493,-3.5493,-3.5493,-3.5493,-3.5493,-3.5493,-3.5493,-3.5493,-3.5493,-3.5493,-3.5493,-3.5391,-3.4776,-3.3987,-3.3064,-3.1987,-3.1256,-3.0737,-3.0456,-3.0398,-3.0398,-3.0398,-3.0398,-3.0398,-3.0398,-3.0398,-3.0398,-3.0398,-3.0398,-3.0398,-3.0398,-3.0398,-3.0398,-3.0398,-3.0398,-2.9756,-2.8082,-2.789,-2.7198,-2.5437,-2.5303,-2.5303,-2.5303,-2.5303,-2.5303,-2.5303,-2.5303,-2.5303,-2.5303,-2.5303,-2.5303,-2.5303,-2.5303,-2.5303,-2.5303,-2.5303,-2.5303,0.0,-2.0592,-2.1029,-2.1064,-2.0289,-1.9511,-1.9526,-1.8064,-1.6694,-1.671,-1.6013,-1.541,-1.5391,-1.6816,-1.8008,-1.8008,-2.0879,0.0,0.0,0.0,0.0,-3.0029,0.0,-3.4328,-3.569,-3.5782,-3.5756,-3.5728,-3.5688,-3.5626,-3.5562,-3.5565,-3.581,-3.635,-3.5791,-3.5509,-3.5509,-3.5501,-3.5493,-3.5493,-3.5493,-3.5493,-3.5493,-3.5493,-3.5493,-3.5493,-3.5493,-3.5493,0.0,-3.5493,-3.5493,-3.5493,-3.5493,-3.5493,-3.5493,-3.5493,-3.5493,-3.5493,-3.5493,-3.5493,-3.5493,-3.5493,-3.5493,-3.5449,-3.5122,-3.5007,-3.4834,-3.3949,-3.3103,-3.2256,-3.1429,-3.0814,-3.0398,-3.0398,-3.0398,-3.0398,-3.0398,-3.0398,-3.0398,-3.0398,-3.0398,-3.0398,-3.0398,-3.0398,-3.0398,-3.0398,-3.0398,-3.0398,-3.0398,-3.0398,-2.9871,-2.8506,-2.8082,-2.7332,-2.5909,-2.5495,-2.5303,-2.5303,-2.5303,-2.5303,-2.5303,-2.5303,-2.5303,-2.5303,-2.5303,-2.5303,-2.5303,-2.5303,-2.5303,-2.5303,-2.5303,-2.5303,0.0,-1.7623,-1.7747,-1.7878,-1.7842,-1.7808,-1.7816,-1.7187,0.0,-1.6608,-1.5954,-1.543,-1.5488,-1.6875,-1.8047,-1.8164,-2.0957,0.0,0.0,-2.6186,0.0,0.0,-3.4069,-3.4882,-3.5611,-3.5699,-3.5669,-3.5601,-3.5589,-3.5565,-3.5502,-3.5502,-3.5509,-3.5507,-3.5493,-3.5493,-3.5493,-3.5493,-3.5493,-3.5493,-3.5493,-3.5493,-3.5493,-3.5493,-3.5493,-3.5493,-3.5493,-3.5493,-3.5493,-3.5493,-3.5493,-3.5493,-3.5493,-3.5493,-3.5493,-3.5493,-3.5493,-3.5493,-3.5493,-3.5493,-3.5474,-3.543,-3.5411,-3.5238,-3.4372,-3.4141,-3.4007,-3.3083,-3.2275,-3.1506,-3.0641,-3.0398,-3.0398,-3.0398,-3.0398,-3.0398,-3.0398,-3.0398,-3.0398,-3.0398,-3.0398,-3.0398,-3.0398,-3.0398,-3.0398,-3.0398,-3.0398,-3.0398,-3.0398,-3.0398,-3.0083,-2.9179,-2.8429,-2.7601,-2.6678,-2.5813,-2.5303,-2.5303,-2.5303,-2.5303,-2.5303,-2.5303,-2.5303,-2.5303,-2.5303,-2.5303,-2.5303,-2.5303,-2.5303,-2.5303,-2.5303,-2.5303,-1.4383,0.0,-1.7045,-1.7738,-1.7403,-1.6915,0.0,-1.6269,-1.5706,0.0,0.0,-1.5604,-1.6269,-1.7266,-1.8437,-1.9766,0.0,0.0,-2.4016,0.0,0.0,-3.2959,-3.4029,-3.4803,-3.5542,-3.5623,-3.5596,-3.554,-3.5522,-3.5515,-3.5501,-3.5501,-3.5488,-3.5507,-3.5493,-3.5493,-3.5493,-3.5493,-3.5493,-3.5493,-3.5493,-3.5493,-3.5493,-3.5493,-3.5493,-3.5493,-3.5493,-3.5493,-3.5493,-3.5493,-3.5493,-3.5493,-3.5493,-3.5493,-3.5493,-3.5493,-3.5493,-3.5493,-3.5493,-3.5493,-3.5391,-3.4718,-3.4507,-3.4334,-3.3468,-3.366,-3.3891,-3.2391,-3.1852,-3.1506,-3.0641,-3.0398,-3.0398,-3.0398,-3.0398,-3.0398,-3.0398,-3.0398,-3.0398,-3.0398,-3.0398,-3.0398,-3.0398,-3.0398,-3.0398,-3.0398,-3.0398,-3.0398,-3.0398,-3.0398,-3.0083,-2.9179,-2.8929,-2.8217,-2.6736,-2.5813,-2.5303,-2.5303,-2.5303,-2.5303,-2.5303,-2.5303,-2.5303,-2.5303,-2.5303,-2.5303,-2.5303,-2.5303,-2.5303,-2.5303,-2.5303,-2.5303,-1.2998,-1.4403,-1.5614,-1.6491,-1.6371,-1.6059,-1.6049,0.0,0.0,0.0,0.0,0.0,-1.6618,-1.8066,0.0,0.0,-2.2379,0.0,0.0,0.0,-3.0884,-3.3005,-3.3984,-3.4788,-3.5527,-3.5596,-3.5579,-3.5509,-3.5501,-3.5493,-3.5493,-3.5493,-3.5493,-3.5493,-3.5493,-3.5493,-3.5493,-3.5493,-3.5493,-3.5493,-3.5493,-3.5493,-3.5493,-3.5493,-3.5493,-3.5493,-3.5493,-3.5493,-3.5493,-3.5493,-3.5493,-3.5493,-3.5493,-3.5493,-3.5493,-3.5493,-3.5493,-3.5493,-3.5493,-3.5238,-3.4834,-3.4353,-3.393,-3.3449,-3.2602,-3.2679,-3.2852,-3.1968,-3.141,-3.0987,-3.0513,-3.0398,-3.0398,-3.0398,-3.0398,-3.0398,-3.0398,-3.0398,-3.0398,-3.0398,-3.0398,-3.0398,-3.0398,-3.0398,-3.0398,-3.0398,-3.0398,-3.0398,-3.0398,-3.0398,-3.0217,-2.9756,-2.9333,-2.8717,-2.7813,-2.6986,-2.6159,-2.5341,-2.5303,-2.5303,-2.5303,-2.5303,-2.5303,-2.5303,-2.5303,-2.5303,-2.5303,-2.5303,-2.5303,-2.5303,-2.5303,-2.5303,-1.2337,-1.3316,-1.4095,-1.5223,-1.5568,-1.5621,-1.576,0.0,0.0,0.0,0.0,0.0,0.0,0.0,0.0,0.0,0.0,0.0,-2.8131,-2.981,-3.1339,-3.2819,-3.3768,-3.4536,-3.514,-3.5206,-3.5181,-3.5103,-3.5103,-3.5103,-3.5103,-3.5103,-3.5103,-3.5103,-3.5103,-3.5103,-3.5103,-3.5238,-3.5315,-3.5315,-3.5315,-3.5372,-3.5493,-3.5493,-3.5493,-3.5493,-3.5493,-3.5493,-3.5493,-3.5493,-3.5493,-3.5493,-3.5493,-3.5493,-3.5493,-3.5493,-3.543,-3.5276,-3.5161,-3.4622,-3.3968,-3.3853,-3.3314,-3.2564,-3.1756,-3.1506,-3.1506,-3.1506,-3.0968,-3.0398,-3.0398,-3.0398,-3.0398,-3.0398,-3.0398,-3.0398,-3.0398,-3.0398,-3.0398,-3.0398,-3.0398,-3.0398,-3.0398,-3.0398,-3.0398,-3.0398,-3.0398,-3.0398,-3.0398,-3.0398,-3.0398,-3.0398,-2.9737,-2.9236,-2.9102,-2.8467,-2.739,-2.5813,-2.5572,-2.5437,-2.5303,-2.5303,-2.5303,-2.5303,-2.5303,-2.5303,-2.5303,-2.5303,-2.5303,-2.5303,-2.5303,-2.5303,-1.2335,-1.2939,-1.3617,-1.5906,-1.649,-1.6685,-1.7424,0.0,0.0,0.0,0.0,0.0,0.0,0.0,-2.1302,0.0,0.0,-2.7234,0.0,-3.0127,-3.1059,-3.1984,-3.2809,-3.3345,-3.3384,-3.3388,-3.3383,-3.3295,-3.3295,-3.3295,-3.3295,-3.3295,-3.3295,-3.3295,-3.3295,-3.3295,-3.3295,-3.4026,-3.4391,-3.4391,-3.4391,-3.4795,-3.5493,-3.5493,-3.5493,-3.5493,-3.5493,-3.5493,-3.5493,-3.5493,-3.5493,-3.5493,-3.5493,-3.5493,-3.5493,-3.5493,-3.5026,-3.4295,-3.3564,-3.3218,-3.2987,-3.2314,-3.1987,-3.1718,-3.0871,-3.059,-3.059,-3.059,-3.0494,-3.0398,-3.0398,-3.0398,-3.0398,-3.0398,-3.0398,-3.0398,-3.0398,-3.0398,-3.0398,-3.0398,-3.0398,-3.0398,-3.0398,-3.0398,-3.0398,-3.0398,-3.0398,-3.0398,-3.0398,-3.0398,-3.0398,-3.0398,-3.0294,-2.991,-2.9159,-2.8986,-2.8506,-2.7563,-2.6813,-2.6082,-2.5322,-2.5303,-2.5303,-2.5303,-2.5303,-2.5303,-2.5303,-2.5303,-2.5303,-2.5303,-2.5303,-2.5303,-1.2397,-1.2885,-1.3625,-1.6646,-1.7052,-1.693,-1.7803,0.0,0.0,0.0,0.0,0.0,0.0,0.0,-2.3357,-2.5456,0.0,-2.8077,-2.9283,-3.014,-3.0952,-3.1745,-3.2174,-3.257,-3.2956,-3.2991,-3.2967,-3.291,-3.2891,-3.2891,-3.2891,-3.2891,-3.2891,-3.2891,-3.2891,-3.2699,-3.2256,-3.2641,-3.3064,-3.3506,-3.3506,-3.3718,-3.4103,-3.4103,-3.4103,-3.4103,-3.4103,-3.4353,-3.4795,-3.4795,-3.4795,-3.4795,-3.4795,-3.4507,-3.4103,-3.4103,-3.3833,-3.343,-3.3045,-3.2622,-3.2199,-3.1814,-3.1391,-3.0929,-3.0513,-3.0398,-3.0398,-3.0398,-3.0398,-3.0398,-3.0398,-3.0398,-3.0398,-3.0398,-3.0398,-3.0398,-3.0398,-3.0398,-3.0398,-3.0398,-3.0398,-3.0398,-3.0398,-3.0398,-3.0398,-3.0398,-3.0398,-3.0398,-3.0398,-3.0398,-3.0398,-3.0398,-3.0398,-3.0237,-2.9833,-2.9794,-2.9063,-2.7313,-2.6813,-2.6217,-2.5341,-2.5303,-2.5303,-2.5303,-2.5303,-2.5303,-2.5303,-2.5303,-2.5303,-2.5303,-2.5303,-2.5303,-1.2438,-1.2906,-1.3726,-1.7144,-1.7493,-1.735,-1.8592,0.0,0.0,0.0,0.0,0.0,0.0,-2.3676,0.0,-2.6991,-2.778,-2.8529,-2.9531,-3.0188,-3.0806,-3.142,-3.1486,-3.1706,-3.2336,-3.2401,-3.2358,-3.2314,-3.2314,-3.2314,-3.2314,-3.2314,-3.2314,-3.2314,-3.2314,-3.2025,-3.141,-3.141,-3.1814,-3.2622,-3.2622,-3.2718,-3.2891,-3.2891,-3.2891,-3.2891,-3.2891,-3.3276,-3.3891,-3.3891,-3.3891,-3.3891,-3.3891,-3.3487,-3.2872,-3.2699,-3.2622,-3.2583,-3.2391,-3.191,-3.141,-3.141,-3.0948,-3.0398,-3.0398,-3.0398,-3.0398,-3.0398,-3.0398,-3.0398,-3.0398,-3.0398,-3.0398,-3.0398,-3.0398,-3.0398,-3.0398,-3.0398,-3.0398,-3.0398,-3.0398,-3.0398,-3.0398,-3.0398,-3.0398,-3.0398,-3.0398,-3.0398,-3.0398,-3.0398,-3.0398,-3.0398,-3.0398,-3.0398,-3.0398,-3.0398,-2.9486,-2.7313,-2.6813,-2.6294,-2.563,-2.5399,-2.5303,-2.5303,-2.5303,-2.5303,-2.5303,-2.5303,-2.5303,-2.5303,-2.5303,-2.5303,-1.2422,-1.2891,-1.3711,-1.7148,-1.7948,0.0,-2.0974,-2.1567,0.0,-2.2656,0.0,0.0,0.0,-2.4982,-2.6155,-2.7839,-2.8104,-2.8677,-3.0288,-3.051,-3.052,-3.0598,-3.0527,-3.0513,-3.059,-3.0595,-3.0602,-3.0571,-3.0571,-3.0571,-3.0571,-3.0571,-3.0571,-3.0571,-3.0571,-3.0552,-3.0494,-3.0494,-3.0929,-3.1795,-3.1795,-3.2179,-3.2891,-3.2891,-3.2891,-3.2891,-3.2891,-3.2949,-3.2987,-3.2987,-3.2987,-3.2987,-3.2987,-3.2968,-3.2814,-3.2064,-3.1795,-3.1679,-3.0871,-3.0533,-3.0494,-3.0494,-3.0436,-3.0398,-3.0398,-3.0398,-3.0398,-3.0398,-3.0398,-3.0398,-3.0398,-3.0398,-3.0398,-3.0398,-3.0398,-3.0398,-3.0398,-3.0398,-3.0398,-3.0398,-3.0398,-3.0398,-3.0398,-3.0398,-3.0398,-3.0398,-3.0398,-3.0398,-3.0398,-3.0398,-3.0398,-3.0398,-3.0398,-3.0398,-3.0398,-3.0398,-2.9987,-2.8967,-2.7467,-2.6563,-2.6505,-2.5726,-2.5303,-2.5303,-2.5303,-2.5303,-2.5303,-2.5303,-2.5303,-2.5303,-2.5303,-2.5303,-1.2422,-1.2891,-1.3711,-1.7144,0.0,0.0,0.0,-2.2198,-2.2801,-2.367,-2.4287,0.0,0.0,0.0,-2.6077,-2.7204,-2.7796,-2.8473,-2.9582,-3.0143,-3.0439,-3.0436,-3.0414,-3.0402,-3.0402,-3.039,-3.0398,-3.0398,-3.0398,-3.0398,-3.0398,-3.0398,-3.0398,-3.0398,-3.0398,-3.0398,-3.0398,-3.0398,-3.0571,-3.0891,-3.0891,-3.1064,-3.1352,-3.1352,-3.1352,-3.1352,-3.1352,-3.166,-3.216,-3.216,-3.216,-3.2102,-3.1564,-3.1352,-3.1314,-3.1006,-3.0891,-3.0852,-3.0513,-3.0398,-3.0398,-3.0398,-3.0398,-3.0398,-3.0398,-3.0398,-3.0398,-3.0398,-3.0398,-3.0398,-3.0398,-3.0398,-3.0398,-3.0398,-3.0398,-3.0398,-3.0398,-3.0398,-3.0398,-3.0398,-3.0398,-3.0398,-3.0398,-3.0398,-3.0398,-3.0398,-3.0398,-3.0398,-3.0398,-3.0398,-3.0398,-3.0398,-3.0398,-3.0398,-3.0398,-3.0398,-3.0275,-2.9929,-2.8332,-2.7178,-2.6621,-2.5774,-2.5303,-2.5303,-2.5303,-2.5303,-2.5303,-2.5303,-2.5303,-2.5303,-2.5303,-2.5303,-1.2422,-1.3085,-1.4097,0.0,0.0,0.0,-2.2133,-2.3015,-2.366,-2.453,-2.5179,-2.5604,-2.5652,0.0,0.0,-2.6741,-2.7302,-2.802,-2.9052,-2.9657,-3.0086,-3.0371,-3.0398,-3.0398,-3.0398,-3.0398,-3.0398,-3.0398,-3.0398,-3.0398,-3.0398,-3.0398,-3.0398,-3.0398,-3.0398,-3.0398,-3.0398,-3.0398,-3.0398,-3.0398,-3.0398,-3.0398,-3.0398,-3.0398,-3.0398,-3.0398,-3.0398,-3.0737,-3.1295,-3.1295,-3.1295,-3.1237,-3.0629,-3.0398,-3.0398,-3.0398,-3.0398,-3.0398,-3.0398,-3.0398,-3.0398,-3.0398,-3.0398,-3.0398,-3.0398,-3.0398,-3.0398,-3.0398,-3.0398,-3.0398,-3.0398,-3.0398,-3.0398,-3.0398,-3.0398,-3.0398,-3.0398,-3.0398,-3.0398,-3.0398,-3.0398,-3.0398,-3.0398,-3.0398,-3.0398,-3.0398,-3.0398,-3.0398,-3.0398,-3.0398,-3.0398,-3.0398,-3.0398,-3.0398,-3.0398,-3.0398,-3.0398,-3.0398,-2.9063,-2.789,-2.7044,-2.5909,-2.5303,-2.5303,-2.5303,-2.5303,-2.5303,-2.5303,-2.5303,-2.5303,-2.5303,-2.5303,-1.2422,-1.3491,-1.4954,0.0,0.0,0.0,-2.3723,-2.4307,-2.454,-2.5432,-2.5593,-2.5599,-2.5599,-2.5595,-2.5862,-2.6669,-2.6734,-2.7275,-2.8944,-2.9124,-2.941,-3.0263,-3.0379,-3.0379,-3.0379,-3.0379,-3.0379,-3.0398,-3.0398,-3.0398,-3.0398,-3.0398,-3.0398,-3.0398,-3.0398,-3.0398,-3.0398,-3.0398,-3.0398,-3.0398,-3.0398,-3.0398,-3.0398,-3.0398,-3.0398,-3.0398,-3.0398,-3.0398,-3.0398,-3.0398,-3.0398,-3.0398,-3.0398,-3.0398,-3.0398,-3.0398,-3.0398,-3.0398,-3.0398,-3.0398,-3.0398,-3.0398,-3.0398,-3.0398,-3.0398,-3.0398,-3.0398,-3.0398,-3.0398,-3.0398,-3.0398,-3.0398,-3.0398,-3.0398,-3.0398,-3.0398,-3.0398,-3.0398,-3.0398,-3.0398,-3.0398,-3.0398,-3.0398,-3.0398,-3.0398,-3.0398,-3.0398,-3.0398,-3.0398,-3.0398,-3.0398,-3.0398,-3.0398,-3.0398,-3.0398,-3.0398,-3.0398,-3.0398,-2.9583,-2.8736,-2.7928,-2.6236,-2.5303,-2.5303,-2.5303,-2.5303,-2.5303,-2.5303,-2.5303,-2.5303,-2.5303,-2.5303,-1.2595,-1.3925,0.0,0.0,0.0,0.0,0.0,-2.4255,0.0,0.0,-2.5464,-2.5478,-2.5531,-2.5538,-2.5589,-2.5786,-2.6307,-2.6862,-2.7315,-2.7892,-2.8352,-2.8602,-2.864,-2.8852,-2.9429,-2.9486,-2.9737,-3.034,-3.0398,-3.0398,-3.0398,-3.0398,-3.0398,-3.0398,-3.0398,-3.0398,-3.0398,-3.0398,-3.0398,-3.0398,-3.0398,-3.0398,-3.0398,-3.0398,-3.0398,-3.0398,-3.0398,-3.0398,-3.0398,-3.0398,-3.0398,-3.0398,-3.0398,-3.0398,-3.0398,-3.0398,-3.0398,-3.0398,-3.0398,-3.0398,-3.0398,-3.0398,-3.0398,-3.0398,-3.0398,-3.0398,-3.0398,-3.0398,-3.0398,-3.0398,-3.0398,-3.0398,-3.0398,-3.0398,-3.0398,-3.0398,-3.0398,-3.0398,-3.0398,-3.0398,-3.0398,-3.0398,-3.0398,-3.0398,-3.0398,-3.0398,-3.0398,-3.0398,-3.0398,-3.0398,-3.0398,-3.0398,-3.0398,-3.0398,-3.0398,-3.0367,-3.0336,-3.0336,-2.9505,-2.8691,-2.7928,-2.6813,-2.5928,-2.5303,-2.5303,-2.5303,-2.5303,-2.5303,-2.5303,-2.5303,-2.5303,-2.5303,-1.266,0.0,0.0,0.0,0.0,0.0,-2.4361,0.0,0.0,0.0,-2.5401,-2.5398,-2.5445,-2.5453,-2.5445,-2.5421,-2.5839,-2.6275,-2.6564,-2.7054,-2.7505,-2.7852,-2.789,-2.8082,-2.8582,-2.8621,-2.8832,-2.9371,-2.941,-2.941,-2.941,-2.941,-2.941,-2.941,-2.9717,-2.989,-2.989,-3.0237,-3.0398,-3.0398,-3.0398,-3.0398,-3.0398,-3.0398,-3.0398,-3.0398,-3.0398,-3.0398,-3.0398,-3.0398,-3.0398,-3.0398,-3.0398,-3.0398,-3.0398,-3.0398,-3.0398,-3.0398,-3.0398,-3.0398,-3.0398,-3.0398,-3.0398,-3.0398,-3.0398,-3.0398,-3.0398,-3.0398,-3.0398,-3.0398,-3.0398,-3.0398,-3.0398,-3.0398,-3.0398,-3.0398,-3.0398,-3.0398,-3.0398,-3.0398,-3.0398,-3.0398,-3.0398,-3.0398,-3.0398,-3.0398,-3.0398,-3.0398,-3.0398,-3.0379,-3.0367,-3.0367,-3.0355,-3.0362,-3.0362,-3.0299,-3.0254,-3.0273,-2.9742,-2.8938,-2.7795,-2.6979,-2.6137,-2.5273,-2.5253,-2.5253,-2.5253,-2.5253,-2.5253,-2.5253,-2.5253,-2.5253,-1.2678,0.0,0.0,0.0,0.0,0.0,-2.5065,-2.5395,-2.5385,-2.5387,0.0,-2.5385,-2.5387,-2.5395,-2.5395,-2.5398,-2.5389,-2.5649,-2.637,-2.6486,-2.6774,-2.7563,-2.7659,-2.7678,-2.7775,-2.7775,-2.7813,-2.789,-2.789,-2.789,-2.789,-2.789,-2.789,-2.789,-2.8602,-2.8986,-2.8986,-2.9775,-3.0167,-3.0167,-3.0167,-3.0167,-3.0179,-3.0321,-3.0398,-3.0398,-3.0398,-3.0398,-3.0398,-3.0398,-3.0398,-3.0398,-3.0398,-3.0398,-3.0398,-3.0398,-3.0398,-3.0398,-3.0398,-3.0398,-3.0398,-3.0398,-3.0398,-3.0398,-3.0398,-3.0398,-3.0398,-3.0398,-3.0398,-3.0398,-3.0398,-3.0398,-3.0398,-3.0398,-3.0398,-3.0398,-3.0398,-3.0398,-3.0398,-3.0398,-3.0398,-3.0398,-3.0398,-3.0398,-3.0398,-3.0398,-3.0398,-3.0398,-3.0398,-3.0348,-3.0304,-3.0304,-3.0286,-3.0299,-3.0279,-3.0207,-3.018,-3.0171,-3.0109,-2.9303,-2.7547,-2.6899,-2.6148,-2.519,-2.5182,-2.5182,-2.5171,-2.5182,-2.5182,-2.5201,-2.5182,-2.5182,0.0,-1.5182,0.0,0.0,0.0,0.0,-2.532,-2.537,-2.5313,-2.5322,-2.5332,-2.5313,-2.5322,-2.5332,-2.5332,-2.5322,-2.5322,-2.537,-2.5563,-2.5572,-2.5649,-2.5851,-2.587,-2.614,-2.6813,-2.689,-2.7159,-2.7852,-2.789,-2.789,-2.789,-2.789,-2.789,-2.789,-2.8063,-2.8159,-2.8159,-2.8332,-2.8448,-2.8448,-2.8448,-2.8448,-2.8486,-2.9813,-3.0398,-3.0398,-3.0398,-3.0398,-3.0398,-3.0398,-3.0398,-3.0398,-3.0398,-3.0398,-3.0398,-3.0398,-3.0398,-3.0398,-3.0398,-3.0398,-3.0398,-3.0398,-3.0398,-3.0398,-3.0398,-3.0398,-3.0398,-3.0398,-3.0398,-3.0398,-3.0398,-3.0398,-3.0398,-3.0398,-3.0398,-3.0398,-3.0398,-3.0398,-3.0398,-3.0398,-3.0398,-3.0398,-3.0398,-3.0398,-3.0398,-3.0398,-3.0398,-3.0398,-3.0398,-3.0348,-3.0292,-3.0305,-3.0253,-3.0199,-3.0138,-3.003,-2.9953,-2.9953,-2.9907,-2.912,-2.7403,-2.7366,-2.6645,-2.5063,-2.5084,-2.5103,-2.5043,-2.5103,-2.5115,-2.5118,-2.5115,-2.5138,0.0,0.0,0.0,0.0,0.0,0.0,-2.5264,-2.5341,-2.5303,-2.5303,-2.5303,-2.5303,-2.5303,-2.5303,-2.5303,-2.5303,-2.5303,-2.5303,-2.5303,-2.5303,-2.5303,-2.5303,-2.5303,-2.5476,-2.5928,-2.5986,-2.6178,-2.6621,-2.6659,-2.6659,-2.6659,-2.6659,-2.6659,-2.6659,-2.7063,-2.7274,-2.7274,-2.7678,-2.789,-2.789,-2.789,-2.789,-2.7928,-2.8794,-2.941,-2.9775,-2.9775,-3.0006,-3.0398,-3.0398,-3.0398,-3.0398,-3.0398,-3.0398,-3.0398,-3.0398,-3.0398,-3.0398,-3.0398,-3.0398,-3.0398,-3.0398,-3.0398,-3.0398,-3.0398,-3.0398,-3.0398,-3.0398,-3.0102,-2.9775,-2.9775,-2.9486,-2.9198,-2.9198,-2.9833,-3.0398,-3.0398,-3.0398,-3.0398,-3.0398,-3.0398,-3.0398,-3.0398,-3.0398,-3.0398,-3.0367,-3.0348,-3.0336,-3.0318,-3.0247,-3.0188,-3.0199,-3.0132,-3.0038,-3.0022,-2.9855,-2.9753,-2.9754,-2.9306,-2.8445,-2.7153,-2.6836,-2.6132,-2.4921,-2.4936,-2.4936,-2.4902,-2.4936,-2.4955,-2.4961,-2.5,-2.5006,0.0,0.0,0.0,0.0,0.0,0.0,-2.512,-2.5303,-2.5303,-2.5303,-2.5303,-2.5303,-2.5303,-2.5303,-2.5303,-2.5303,-2.5303,-2.5303,-2.5303,-2.5303,-2.5303,-2.5303,-2.5303,-2.5303,-2.5303,-2.5303,-2.5303,-2.5303,-2.5303,-2.5303,-2.5303,-2.5303,-2.5303,-2.5303,-2.6005,-2.639,-2.639,-2.7082,-2.7448,-2.7448,-2.7448,-2.7448,-2.7448,-2.7448,-2.7986,-2.889,-2.889,-2.9294,-2.9967,-2.9967,-2.9967,-2.9987,-3.0121,-3.0179,-3.0198,-3.034,-3.0398,-3.0398,-3.0398,-3.0398,-3.0398,-3.0398,-3.0398,-3.0359,-3.0217,-3.0179,-3.016,-3.0006,-2.9448,-2.889,-2.889,-2.839,-2.789,-2.789,-2.8967,-3.0006,-3.016,-3.0294,-3.0398,-3.0398,-3.0398,-3.0379,-3.0379,-3.0367,-3.0355,-3.0292,-3.0279,-3.0254,-3.0188,-3.0104,-3.0064,-3.0053,-2.9926,-2.9825,-2.9825,-2.9664,-2.9551,-2.9549,-2.8668,-2.7772,-2.6896,-2.6098,-2.5366,-2.4734,-2.4746,-2.4746,-2.4727,-2.4746,-2.476,-2.4746,-2.4842,-2.4865,0.0,0.0,0.0,0.0,0.0,0.0,0.0,0.0,-2.5303,-2.5303,-2.5303,-2.5303,-2.5303,-2.5303,-2.5303,-2.5303,-2.5303,-2.5303,-2.5303,-2.5303,-2.5303,-2.5303,-2.5303,-2.5303,-2.5303,-2.5303,-2.5303,-2.5303,-2.5303,-2.5303,-2.5303,-2.5303,-2.5303,-2.5303,-2.5399,-2.5476,-2.5476,-2.5591,-2.5649,-2.5649,-2.5649,-2.5649,-2.5649,-2.5649,-2.6524,-2.8063,-2.8063,-2.8121,-2.8236,-2.8236,-2.8236,-2.8294,-2.9006,-2.9275,-2.9371,-3.0121,-3.0398,-3.0398,-3.0398,-3.0398,-3.0398,-3.0398,-3.0398,-3.0256,-2.9506,-2.9275,-2.9121,-2.8429,-2.814,-2.8063,-2.8063,-2.7967,-2.789,-2.789,-2.8063,-2.8409,-2.9121,-2.9871,-3.0398,-3.0398,-3.0348,-3.0316,-3.0316,-3.0273,-3.0215,-3.0202,-3.0161,-3.0118,-3.0123,-3.0,-2.9905,-2.9853,-2.9718,-2.9626,-2.9551,-2.9411,-2.9347,-2.9344,-2.8524,-2.765,-2.676,-2.5947,-2.5153,-2.4375,-2.4547,-2.4561,-2.4458,-2.4561,-2.4596,-2.4526,-2.4657,-2.4749,-1.2986,0.0,0.0,0.0,0.0,-2.2447,-2.4216,-2.462,-2.4755,-2.5207,-2.5303,-2.5303,-2.5303,-2.5303,-2.5303,-2.5303,-2.5303,-2.5303,-2.5303,-2.5303,-2.5303,-2.5303,-2.5303,-2.5303,-2.5303,-2.5303,-2.5303,-2.5303,-2.5303,-2.5303,-2.5303,-2.5303,-2.5303,-2.5303,-2.5303,-2.5303,-2.5303,-2.5303,-2.5303,-2.5303,-2.5303,-2.5303,-2.5303,-2.5303,-2.5986,-2.7178,-2.7178,-2.7448,-2.789,-2.789,-2.789,-2.7928,-2.8294,-2.8429,-2.8467,-2.8852,-2.9006,-2.9006,-2.9006,-2.9006,-2.9006,-2.9006,-2.9006,-2.8929,-2.8544,-2.8429,-2.8352,-2.8005,-2.7544,-2.7178,-2.7178,-2.6813,-2.6447,-2.6447,-2.6813,-2.7274,-2.7621,-2.8736,-2.9813,-3.0251,-3.0323,-3.0286,-3.0247,-3.0194,-3.0123,-3.0045,-3.0,-2.9953,-2.9836,-2.9753,-2.97,-2.9589,-2.9472,-2.9409,-2.9409,-2.9262,-2.9197,-2.9197,-2.7951,-2.7046,-2.6657,-2.5424,-2.4615,-2.4247,-2.4375,-2.441,-2.4338,-2.441,-2.441,-2.4393,-2.4532,-2.4613,0.0,0.0,0.0,0.0,0.0,-2.085,0.0,0.0,-2.4264,-2.487,-2.5159,-2.5303,-2.5303,-2.5303,-2.5303,-2.5303,-2.5303,-2.5303,-2.5303,-2.5303,-2.5303,-2.5303,-2.5303,-2.5303,-2.5303,-2.5303,-2.5303,-2.5303,-2.5303,-2.5303,-2.5303,-2.5303,-2.5303,-2.5303,-2.5303,-2.5303,-2.5303,-2.5303,-2.5303,-2.5303,-2.5303,-2.5303,-2.5303,-2.5303,-2.5649,-2.6274,-2.6274,-2.664,-2.7236,-2.7236,-2.7236,-2.7255,-2.7486,-2.7563,-2.7601,-2.7813,-2.789,-2.789,-2.789,-2.789,-2.789,-2.789,-2.789,-2.7852,-2.764,-2.7563,-2.7525,-2.7294,-2.6774,-2.6274,-2.6274,-2.5793,-2.5303,-2.5303,-2.5813,-2.639,-2.6832,-2.8082,-2.9271,-2.9862,-3.012,-3.0226,-3.0157,-3.0064,-2.9953,-2.9839,-2.9805,-2.9717,-2.957,-2.9531,-2.949,-2.939,-2.9304,-2.924,-2.924,-2.9152,-2.8993,-2.8772,-2.7405,-2.6521,-2.63,-2.4942,-2.419,-2.419,-2.4247,-2.4284,-2.4284,-2.4284,-2.4284,-2.4284,-2.4393,-2.4498,0.0,0.0,0.0,0.0,0.0,0.0,0.0,0.0,-2.411,-2.4149,-2.4774,-2.5303,-2.5303,-2.5303,-2.5303,-2.5303,-2.5303,-2.5303,-2.5303,-2.5303,-2.5303,-2.5303,-2.5303,-2.5303,-2.5303,-2.5303,-2.5303,-2.5303,-2.5303,-2.5303,-2.5303,-2.5303,-2.5303,-2.5303,-2.5303,-2.5303,-2.5303,-2.5303,-2.5303,-2.5303,-2.5303,-2.5303,-2.5303,-2.5303,-2.5322,-2.536,-2.536,-2.538,-2.5437,-2.5437,-2.5437,-2.5514,-2.6351,-2.6678,-2.6774,-2.7601,-2.789,-2.789,-2.789,-2.789,-2.789,-2.789,-2.789,-2.7755,-2.6928,-2.6678,-2.6505,-2.5668,-2.5399,-2.536,-2.536,-2.5322,-2.5303,-2.5303,-2.5322,-2.5832,-2.7486,-2.8503,-2.9082,-2.9065,-2.9625,-3.0094,-3.0019,-2.9839,-2.9698,-2.9626,-2.9513,-2.9433,-2.9412,-2.9349,-2.9323,-2.9302,-2.9197,-2.9112,-2.9112,-2.9062,-2.8686,-2.7915,-2.7071,-2.6264,-2.5495,-2.4649,-2.419,-2.419,-2.419,-2.4227,-2.4227,-2.4227,-2.4227,-2.4209,-2.434,-2.441,0.0,0.0,0.0,0.0,-1.6349,-1.7676,-2.0158,-2.1216,-2.1966,-2.3052,-2.3485,-2.387,-2.4428,-2.4947,-2.5303,-2.5303,-2.5303,-2.5303,-2.5303,-2.5303,-2.5303,-2.5303,-2.5303,-2.5303,-2.5303,-2.5303,-2.5303,-2.5303,-2.5303,-2.5303,-2.5303,-2.5303,-2.5303,-2.5303,-2.5303,-2.5303,-2.5303,-2.5303,-2.5303,-2.5303,-2.5303,-2.5303,-2.5303,-2.5303,-2.5303,-2.5303,-2.5303,-2.5303,-2.5303,-2.5303,-2.5303,-2.5322,-2.563,-2.5774,-2.5813,-2.612,-2.6236,-2.6236,-2.6236,-2.6236,-2.6236,-2.6236,-2.6236,-2.6178,-2.587,-2.5774,-2.5687,-2.538,-2.5303,-2.5303,-2.5303,-2.5303,-2.5303,-2.5302,-2.5302,-2.5465,-2.6039,-2.7275,-2.8413,-2.8842,-2.9089,-2.933,-2.9693,-2.9645,-2.9513,-2.9412,-2.937,-2.9286,-2.9222,-2.9197,-2.9152,-2.9108,-2.9062,-2.904,-2.904,-2.8539,-2.8117,-2.7824,-2.6557,-2.5695,-2.5421,-2.463,-2.419,-2.419,-2.419,-2.419,-2.419,-2.419,-2.419,-2.419,-2.4247,-2.4284,-1.081,0.0,0.0,0.0,0.0,-1.5785,-1.8073,-1.9254,-2.0254,-2.1677,-2.2177,-2.262,-2.3494,-2.4332,-2.4986,-2.5264,-2.5303,-2.5303,-2.5303,-2.5303,-2.5303,-2.5303,-2.5303,-2.5303,-2.5303,-2.5303,-2.5303,-2.5303,-2.5303,-2.5303,-2.5303,-2.5303,-2.5303,-2.5303,-2.5303,-2.5303,-2.5303,-2.5303,-2.5303,-2.5303,-2.5303,-2.5303,-2.5303,-2.5303,-2.5303,-2.5303,-2.5303,-2.5303,-2.5303,-2.5303,-2.5303,-2.5303,-2.5303,-2.5303,-2.5303,-2.5303,-2.5303,-2.5303,-2.5303,-2.5303,-2.5303,-2.5303,-2.5303,-2.5303,-2.5303,-2.5303,-2.5303,-2.5303,-2.5303,-2.5303,-2.5303,-2.5303,-2.5303,-2.5292,-2.5282,-2.5241,-2.5145,-2.6293,-2.7459,-2.7908,-2.8097,-2.8315,-2.867,-2.8651,-2.8552,-2.8447,-2.8405,-2.8363,-2.8276,-2.8276,-2.8235,-2.8209,-2.8187,-2.8187,-2.8187,-2.7695,-2.7273,-2.6998,-2.5991,-2.5293,-2.5017,-2.4483,-2.419,-2.419,-2.419,-2.419,-2.419,-2.419,-2.419,-2.419,-2.4191,-2.4247,0.0,0.0,0.0,0.0,0.0,0.0,-1.517,-1.7099,-1.9146,-2.0042,-2.0869,-2.1696,-2.2562,-2.3437,-2.4302,-2.5101,-2.5264,-2.5303,-2.5303,-2.5303,-2.5303,-2.5303,-2.5303,-2.5303,-2.5303,-2.5303,-2.5303,-2.5303,-2.5303,-2.5303,-2.5303,-2.5303,-2.5303,-2.5303,-2.5303,-2.5303,-2.5303,-2.5303,-2.5303,-2.5303,-2.5303,-2.5303,-2.5303,-2.5303,-2.5303,-2.5303,-2.5303,-2.5303,-2.5303,-2.5303,-2.5303,-2.5303,-2.5303,-2.5303,-2.5303,-2.5303,-2.5303,-2.5303,-2.5303,-2.5303,-2.5303,-2.5303,-2.5303,-2.5303,-2.5303,-2.5303,-2.5303,-2.5303,-2.5303,-2.5303,-2.5303,-2.5303,-2.5303,-2.5292,-2.5241,-2.5149,-2.5019,-2.5717,-2.6327,-2.6205,-2.6714,-2.7131,-2.7009,-2.6877,-2.6757,-2.6716,-2.6636,-2.6612,-2.6612,-2.6612,-2.6612,-2.6612,-2.6612,-2.6612,-2.6612,-2.6594,-2.6227,-2.5458,-2.5384,-2.5017,-2.4226,-2.419,-2.419,-2.419,-2.419,-2.419,-2.419,-2.419,-2.419,-2.419,-2.4191,-2.4266,-1.0094,0.0,0.0,0.0,0.0,0.0,-1.4786,-1.5753,-1.6657,-1.8119,-1.9107,-1.9954,-2.0831,-2.1658,-2.2504,-2.3351,-2.4505,-2.5303,-2.5303,-2.5303,-2.5303,-2.5303,-2.5303,-2.5303,-2.5303,-2.5303,-2.5303,-2.5303,-2.5303,-2.5303,-2.5303,-2.5303,-2.5303,-2.5303,-2.5303,-2.5303,-2.5303,-2.5303,-2.5303,-2.5303,-2.5303,-2.5303,-2.5303,-2.5303,-2.5303,-2.5303,-2.5303,-2.5303,-2.5303,-2.5303,-2.5303,-2.5303,-2.5303,-2.5303,-2.5303,-2.5303,-2.5303,-2.5303,-2.5303,-2.5303,-2.5303,-2.5303,-2.5303,-2.5303,-2.5303,-2.5303,-2.5303,-2.5303,-2.5303,-2.5303,-2.5302,-2.5302,-2.5282,-2.5184,-2.5099,-2.5019,-2.4884,-2.4982,-2.5258,-2.5866,-2.6049,-2.6264,-2.6765,-2.6779,-2.6698,-2.6654,-2.6594,-2.6612,-2.6612,-2.6612,-2.6612,-2.6612,-2.6612,-2.6612,-2.6612,-2.6062,-2.5642,-2.5421,-2.485,-2.4428,-2.4208,-2.419,-2.419,-2.419,-2.419,-2.419,-2.419,-2.419,-2.419,-2.419,-2.4209,-2.4247,-1.0532,0.0,0.0,-1.1718,0.0,0.0,-1.381,-1.4426,-1.5036,-1.6388,-1.735,-1.8222,-1.9061,-2.0169,-2.1131,-2.163,-2.3121,-2.4226,-2.4245,-2.4255,-2.4389,-2.4755,-2.4793,-2.4928,-2.5264,-2.5303,-2.5303,-2.5303,-2.5303,-2.5303,-2.5303,-2.5303,-2.5303,-2.5303,-2.5303,-2.5303,-2.5303,-2.5303,-2.5303,-2.5303,-2.5303,-2.5303,-2.5303,-2.5303,-2.5303,-2.5303,-2.5303,-2.5303,-2.5303,-2.5303,-2.5303,-2.5303,-2.5303,-2.5303,-2.5303,-2.5303,-2.5303,-2.5303,-2.5303,-2.5303,-2.5293,-2.5293,-2.5273,-2.5262,-2.5253,-2.5273,-2.5262,-2.5283,-2.5293,-2.5283,-2.5262,-2.5241,-2.5198,-2.5082,-2.5019,-2.4907,-2.4757,-2.4645,-2.4692,-2.5179,-2.5204,-2.5245,-2.565,-2.5685,-2.5643,-2.5603,-2.5603,-2.5603,-2.5603,-2.5603,-2.5603,-2.5603,-2.5603,-2.5603,-2.5603,-2.5162,-2.4887,-2.4887,-2.4447,-2.419,-2.419,-2.419,-2.419,-2.419,-2.419,-2.419,-2.419,-2.419,-2.419,-2.419,-2.419,-2.4209,-1.1326,-1.1532,0.0,-1.2507,-1.27,0.0,-1.2815,-1.3387,-1.4151,-1.5016,-1.5888,-1.6715,-1.7426,-1.8854,-1.9923,-1.9923,-2.1242,-2.2393,-2.2746,-2.2793,-2.3081,-2.386,-2.3956,-2.4235,-2.4947,-2.5014,-2.5014,-2.5014,-2.5014,-2.5053,-2.5149,-2.5168,-2.5207,-2.5303,-2.5303,-2.5303,-2.5303,-2.5303,-2.5303,-2.5303,-2.5303,-2.5303,-2.5303,-2.5303,-2.5303,-2.5303,-2.5303,-2.5303,-2.5303,-2.5303,-2.5303,-2.5303,-2.5303,-2.5303,-2.5303,-2.5303,-2.5303,-2.5303,-2.5303,-2.5302,-2.5282,-2.5282,-2.5239,-2.5187,-2.519,-2.5179,-2.5187,-2.5261,-2.5282,-2.5252,-2.5201,-2.5138,-2.5068,-2.4993,-2.4912,-2.4813,-2.4596,-2.4495,-2.4461,-2.4391,-2.4338,-2.4266,-2.421,-2.419,-2.419,-2.419,-2.419,-2.419,-2.419,-2.419,-2.419,-2.419,-2.419,-2.419,-2.419,-2.419,-2.419,-2.419,-2.419,-2.419,-2.419,-2.419,-2.419,-2.419,-2.419,-2.419,-2.419,-2.419,-2.419,-2.419,-2.419,-2.419,-1.2323,-1.2371,-1.2425,-1.2637,-1.27,0.0,-1.3517,-1.3786,-1.4151,-1.5016,-1.5856,-1.6471,-1.6625,-1.7495,-1.8191,-1.8191,-1.9008,-2.0389,-2.2497,-2.2804,-2.2852,-2.3024,-2.3043,-2.312,-2.3274,-2.3293,-2.3293,-2.3293,-2.3293,-2.3581,-2.4302,-2.4341,-2.462,-2.5284,-2.5303,-2.5303,-2.5303,-2.5303,-2.5303,-2.5303,-2.5303,-2.5303,-2.5303,-2.5303,-2.5303,-2.5303,-2.5303,-2.5303,-2.5303,-2.5303,-2.5303,-2.5303,-2.5303,-2.5303,-2.5303,-2.5303,-2.5303,-2.5303,-2.5302,-2.5262,-2.5212,-2.5168,-2.5122,-2.5106,-2.5063,-2.5075,-2.5118,-2.5145,-2.5138,-2.5126,-2.5056,-2.5038,-2.498,-2.4813,-2.4707,-2.4596,-2.4393,-2.4321,-2.4248,-2.4247,-2.4229,-2.4229,-2.419,-2.419,-2.419,-2.419,-2.419,-2.419,-2.419,-2.419,-2.419,-2.419,-2.419,-2.419,-2.419,-2.419,-2.419,-2.419,-2.419,-2.419,-2.419,-2.419,-2.419,-2.419,-2.419,-2.419,-2.419,-2.419,-2.419,-2.419,-2.419,-2.4228,-1.3074,-1.3213,-1.3352,-1.3791,-1.3597,0.0,0.0,-1.3896,-1.4017,-1.4459,-1.5222,-1.5792,-1.5792,-1.6502,-1.7056,-1.7056,-1.7731,-1.8707,-2.0027,-2.0955,-2.1664,-2.2094,-2.2123,-2.2296,-2.2756,-2.2766,-2.2738,-2.2738,-2.2775,-2.2996,-2.3438,-2.3447,-2.3832,-2.4678,-2.4697,-2.4889,-2.5303,-2.5303,-2.5303,-2.5303,-2.5303,-2.5303,-2.5303,-2.5303,-2.5303,-2.5303,-2.5303,-2.5303,-2.5303,-2.5303,-2.5303,-2.5303,-2.5303,-2.5303,-2.5303,-2.5303,-2.5303,-2.5303,-2.5302,-2.5241,-2.5138,-2.508,-2.5,-2.494,-2.4902,-2.4961,-2.5,-2.5006,-2.4987,-2.4994,-2.4961,-2.4879,-2.4779,-2.4626,-2.4547,-2.4464,-2.4284,-2.421,-2.421,-2.4209,-2.419,-2.419,-2.419,-2.419,-2.419,-2.419,-2.419,-2.419,-2.419,-2.419,-2.419,-2.419,-2.419,-2.419,-2.419,-2.419,-2.419,-2.419,-2.419,-2.419,-2.419,-2.419,-2.419,-2.419,-2.419,-2.419,-2.419,-2.419,-2.419,-2.419,-2.419,-2.4247,-1.4016,-1.4299,-1.4506,-1.5176,-1.4833,-1.4322,0.0,0.0,0.0,-1.4134,-1.4685,-1.5178,-1.5184,-1.5561,-1.5905,-1.5905,-1.6445,-1.6877,-1.6877,-1.8223,-1.9579,-2.0629,-2.0716,-2.1042,-2.197,-2.2009,-2.1923,-2.1741,-2.1941,-2.2151,-2.2286,-2.2457,-2.2947,-2.3821,-2.4014,-2.4409,-2.5063,-2.5207,-2.5303,-2.5303,-2.5303,-2.5303,-2.5303,-2.5303,-2.5303,-2.5303,-2.5303,-2.5303,-2.5303,-2.5303,-2.5303,-2.5303,-2.5303,-2.5303,-2.5303,-2.5303,-2.5303,-2.5293,-2.5282,-2.5198,-2.5068,-2.4981,-2.4851,-2.4742,-2.4749,-2.479,-2.4832,-2.4832,-2.4847,-2.4832,-2.4842,-2.4685,-2.4543,-2.4478,-2.441,-2.4339,-2.4229,-2.421,-2.4191,-2.419,-2.419,-2.419,-2.419,-2.419,-2.419,-2.419,-2.419,-2.419,-2.419,-2.419,-2.419,-2.419,-2.419,-2.419,-2.419,-2.419,-2.419,-2.419,-2.419,-2.419,-2.419,-2.419,-2.419,-2.419,-2.419,-2.419,-2.419,-2.419,-2.419,-2.419,-2.419,-2.4228,-1.5667,-1.5929,-1.5974,-1.6127,-1.6086,-1.5846,-1.5131,0.0,-1.4953,-1.4967,0.0,-1.5106,-1.512,0.0,0.0,-1.4093,-1.4163,-1.4233,-1.4226,-1.5018,-1.62,-1.786,-1.8094,-1.8436,-1.9265,-1.9388,-1.91,-1.8337,-1.8985,-1.975,-2.0461,-2.1227,-2.2043,-2.2908,-2.3706,-2.4149,-2.4245,-2.4947,-2.5303,-2.5303,-2.5303,-2.5303,-2.5303,-2.5303,-2.5303,-2.5303,-2.5303,-2.5303,-2.5303,-2.5303,-2.5303,-2.5303,-2.5303,-2.5303,-2.5303,-2.5303,-2.5293,-2.5292,-2.5239,-2.5118,-2.4993,-2.4861,-2.4642,-2.4459,-2.4528,-2.4545,-2.4561,-2.4613,-2.4629,-2.4613,-2.4561,-2.4476,-2.4408,-2.4339,-2.4284,-2.4229,-2.419,-2.4209,-2.419,-2.419,-2.419,-2.419,-2.419,-2.419,-2.419,-2.419,-2.419,-2.419,-2.419,-2.419,-2.419,-2.419,-2.419,-2.419,-2.419,-2.419,-2.419,-2.419,-2.419,-2.419,-2.419,-2.419,-2.419,-2.419,-2.419,-2.419,-2.419,-2.419,-2.419,-2.419,-2.419,-2.419,-1.6619,-1.6747,-1.6675,-1.6243,-1.6185,-1.6029,-1.5236,-1.5042,-1.5045,-1.5085,0.0,0.0,0.0,0.0,0.0,0.0,-1.3404,-1.3093,-1.3106,-1.3386,-1.4416,-1.6597,-1.6872,-1.7221,-1.8048,-1.8214,-1.8087,-1.7673,-1.8444,-1.9092,-1.9438,-2.0315,-2.1196,-2.2023,-2.2389,-2.2831,-2.334,-2.4178,-2.4601,-2.4601,-2.5082,-2.5303,-2.5303,-2.5303,-2.5303,-2.5303,-2.5303,-2.5303,-2.5303,-2.5303,-2.5303,-2.5303,-2.5293,-2.5302,-2.5302,-2.5302,-2.5282,-2.5239,-2.5172,-2.5044,-2.4898,-2.4647,-2.4462,-2.4338,-2.4338,-2.4393,-2.4446,-2.4481,-2.4481,-2.4481,-2.4446,-2.4356,-2.4266,-2.4248,-2.421,-2.419,-2.419,-2.419,-2.419,-2.419,-2.419,-2.419,-2.419,-2.419,-2.419,-2.419,-2.419,-2.419,-2.419,-2.419,-2.419,-2.419,-2.419,-2.419,-2.419,-2.419,-2.419,-2.419,-2.419,-2.419,-2.419,-2.419,-2.419,-2.419,-2.419,-2.419,-2.419,-2.419,-2.419,-2.419,-2.419,-2.419,-1.7356,-1.7472,-1.7314,-1.6496,-1.6382,-1.6177,-1.5148,-1.4919,-1.4933,-1.5038,-1.5046,0.0,0.0,0.0,-1.3736,-1.3507,0.0,-1.2181,-1.1948,-1.1916,-1.275,-1.4992,-1.5495,-1.5804,-1.6189,-1.6493,-1.6635,-1.6552,-1.7386,-1.8099,-1.8559,-1.9442,-2.0312,-2.1158,-2.1389,-2.1793,-2.2447,-2.3321,-2.3744,-2.3744,-2.4332,-2.4736,-2.4966,-2.4966,-2.5101,-2.5303,-2.5303,-2.5303,-2.5303,-2.5303,-2.5303,-2.5293,-2.5292,-2.5261,-2.5239,-2.525,-2.5198,-2.513,-2.5057,-2.4907,-2.4719,-2.4428,-2.4321,-2.4266,-2.421,-2.4266,-2.434,-2.434,-2.434,-2.434,-2.434,-2.4266,-2.421,-2.421,-2.419,-2.419,-2.419,-2.419,-2.419,-2.419,-2.419,-2.419,-2.419,-2.419,-2.419,-2.419,-2.419,-2.419,-2.419,-2.419,-2.419,-2.419,-2.419,-2.419,-2.419,-2.419,-2.419,-2.419,-2.419,-2.419,-2.419,-2.419,-2.419,-2.419,-2.419,-2.419,-2.419,-2.419,-2.419,-2.419,-2.419,-2.4209,-1.8027,-1.8257,-1.8066,-1.7274,-1.7063,-1.6664,-1.5073,-1.4709,-1.4747,-1.4887,-1.4914,-1.4938,-1.4992,-1.4337,-1.3558,-1.2775,-1.1913,0.0,0.0,-1.0173,-1.0789,-1.2427,-1.3424,-1.3665,-1.2837,-1.3524,-1.3984,-1.3934,-1.4788,-1.6035,-1.7646,-1.8566,-1.9434,-2.0312,-2.11,-2.1504,-2.1543,-2.2408,-2.2831,-2.2831,-2.287,-2.3321,-2.4149,-2.4149,-2.4562,-2.5303,-2.5303,-2.5303,-2.5303,-2.5303,-2.5293,-2.5292,-2.5222,-2.5157,-2.5113,-2.5122,-2.5056,-2.4993,-2.4926,-2.4685,-2.4389,-2.4248,-2.4191,-2.419,-2.419,-2.419,-2.4227,-2.4227,-2.4227,-2.4227,-2.4227,-2.419,-2.419,-2.419,-2.419,-2.419,-2.419,-2.419,-2.419,-2.419,-2.419,-2.419,-2.419,-2.419,-2.419,-2.419,-2.419,-2.419,-2.419,-2.419,-2.419,-2.419,-2.419,-2.419,-2.419,-2.419,-2.419,-2.419,-2.419,-2.419,-2.419,-2.419,-2.419,-2.419,-2.419,-2.419,-2.419,-2.419,-2.419,-2.419,-2.419,-2.419,-1.889,-1.8978,-1.8841,-1.8024,-1.7466,-1.6817,-1.5666,-1.5057,-1.4716,-1.4766,-1.4794,-1.4849,-1.4909,-1.4274,-1.3467,-1.2661,-1.1839,-1.1014,0.0,-1.0105,-1.0297,-1.0847,-1.2178,-1.293,-1.2637,-1.2865,-1.3267,-1.3811,-1.4692,-1.569,-1.6784,-1.8208,-1.9146,-1.9439,-2.0265,-2.0716,-2.0716,-2.1523,-2.1947,-2.1947,-2.2524,-2.2947,-2.3263,-2.3841,-2.4245,-2.4543,-2.5082,-2.5303,-2.5303,-2.5312,-2.5273,-2.5241,-2.5164,-2.5063,-2.4974,-2.5013,-2.4966,-2.4846,-2.4639,-2.4459,-2.4321,-2.4229,-2.4209,-2.419,-2.419,-2.419,-2.419,-2.419,-2.419,-2.419,-2.419,-2.419,-2.419,-2.419,-2.419,-2.419,-2.419,-2.419,-2.419,-2.419,-2.419,-2.419,-2.419,-2.419,-2.419,-2.419,-2.419,-2.419,-2.419,-2.419,-2.419,-2.419,-2.419,-2.419,-2.419,-2.419,-2.419,-2.419,-2.419,-2.419,-2.419,-2.419,-2.419,-2.419,-2.419,-2.419,-2.419,-2.419,-2.4209,-2.4191,-2.4247,-2.4247,-1.9305,-1.9323,-1.9173,-1.8364,-1.7817,-1.723,-1.6386,-1.5826,-1.551,-1.5532,-1.5362,-1.5216,-1.5301,-1.4673,-1.3868,-1.31,-1.2292,-1.1378,0.0,-1.0104,-1.0093,-1.0101,-1.1048,-1.1714,-1.1714,-1.17,-1.218,-1.3344,-1.3956,-1.4908,-1.6311,-1.7753,-1.8684,-1.8984,-1.985,-2.0312,-2.0312,-2.0812,-2.1081,-2.1081,-2.1639,-2.2062,-2.237,-2.3235,-2.3784,-2.4111,-2.4908,-2.5262,-2.5262,-2.5241,-2.519,-2.5115,-2.505,-2.4947,-2.4818,-2.4884,-2.4783,-2.4631,-2.4409,-2.4302,-2.4266,-2.421,-2.419,-2.419,-2.419,-2.419,-2.419,-2.419,-2.419,-2.419,-2.419,-2.419,-2.419,-2.419,-2.419,-2.419,-2.419,-2.419,-2.419,-2.419,-2.419,-2.419,-2.419,-2.419,-2.419,-2.419,-2.419,-2.419,-2.419,-2.419,-2.419,-2.419,-2.419,-2.419,-2.419,-2.419,-2.419,-2.419,-2.419,-2.419,-2.419,-2.419,-2.419,-2.419,-2.419,-2.419,-2.419,-2.419,-2.419,-2.421,-2.4284,-2.4338]}]]